<?xml version="1.0" encoding="UTF-8" standalone="no" ?>
<gpx xmlns="http://www.topografix.com/GPX/1/1" xmlns:xsi="http://www.w3.org/2001/XMLSchema-instance" xsi:schemaLocation="http://www.topografix.com/GPX/1/1 http://www.topografix.com/GPX/1/1/gpx.xsd" version="1.1" creator="VisuGPX - https://www.visugpx.com">
  <metadata>
    <name>2016-02-11 Arche double de la tour Isabelle</name>
    <desc><![CDATA[Belle rando alpine pour visiter cette magnifique arche habillée d'hiver fraîchement tombé.]]></desc>
  </metadata>
  <trk>
    <name><![CDATA[2016-02-11 Arche double]]></name>
    <trkseg>
      <trkpt lat="45.35581" lon="5.91888">
        <ele>1091</ele>
        <time>2016-02-11T07:29:11Z</time>
      </trkpt>
      <trkpt lat="45.35589" lon="5.9191">
        <ele>1068.747313096</ele>
        <time>2016-02-11T07:29:16Z</time>
      </trkpt>
      <trkpt lat="45.35589" lon="5.9191">
        <ele>1068.747313096</ele>
        <time>2016-02-11T07:29:21Z</time>
      </trkpt>
      <trkpt lat="45.35588" lon="5.9191">
        <ele>1068.747313096</ele>
        <time>2016-02-11T07:29:26Z</time>
      </trkpt>
      <trkpt lat="45.35588" lon="5.9191">
        <ele>1068.747313096</ele>
        <time>2016-02-11T07:29:31Z</time>
      </trkpt>
      <trkpt lat="45.35588" lon="5.9191">
        <ele>1068.747313096</ele>
        <time>2016-02-11T07:29:41Z</time>
      </trkpt>
      <trkpt lat="45.35588" lon="5.9191">
        <ele>1068.747313096</ele>
        <time>2016-02-11T07:29:46Z</time>
      </trkpt>
      <trkpt lat="45.35589" lon="5.91887">
        <ele>1075.943049408</ele>
        <time>2016-02-11T07:30:01Z</time>
      </trkpt>
      <trkpt lat="45.35589" lon="5.91875">
        <ele>1075.943049408</ele>
        <time>2016-02-11T07:30:06Z</time>
      </trkpt>
      <trkpt lat="45.35586" lon="5.91868">
        <ele>1082.03862419</ele>
        <time>2016-02-11T07:30:12Z</time>
      </trkpt>
      <trkpt lat="45.35582" lon="5.91864">
        <ele>1082.03862419</ele>
        <time>2016-02-11T07:30:17Z</time>
      </trkpt>
      <trkpt lat="45.3558" lon="5.91854">
        <ele>1088.783374958</ele>
        <time>2016-02-11T07:30:27Z</time>
      </trkpt>
      <trkpt lat="45.35573" lon="5.91843">
        <ele>1094.359866429</ele>
        <time>2016-02-11T07:30:33Z</time>
      </trkpt>
      <trkpt lat="45.35572" lon="5.91833">
        <ele>1094.359866429</ele>
        <time>2016-02-11T07:30:44Z</time>
      </trkpt>
      <trkpt lat="45.35571" lon="5.91827">
        <ele>1099.594366087</ele>
        <time>2016-02-11T07:30:47Z</time>
      </trkpt>
      <trkpt lat="45.35568" lon="5.91819">
        <ele>1099.594366087</ele>
        <time>2016-02-11T07:30:52Z</time>
      </trkpt>
      <trkpt lat="45.35555" lon="5.91804">
        <ele>1103.964404158</ele>
        <time>2016-02-11T07:31:08Z</time>
      </trkpt>
      <trkpt lat="45.35555" lon="5.91803">
        <ele>1103.964404158</ele>
        <time>2016-02-11T07:31:08Z</time>
      </trkpt>
      <trkpt lat="45.35552" lon="5.9179">
        <ele>1107.752696115</ele>
        <time>2016-02-11T07:31:18Z</time>
      </trkpt>
      <trkpt lat="45.35552" lon="5.91785">
        <ele>1107.752696115</ele>
        <time>2016-02-11T07:31:24Z</time>
      </trkpt>
      <trkpt lat="45.35559" lon="5.91776">
        <ele>1111.531981633</ele>
        <time>2016-02-11T07:31:31Z</time>
      </trkpt>
      <trkpt lat="45.35557" lon="5.91769">
        <ele>1111.531981633</ele>
        <time>2016-02-11T07:31:35Z</time>
      </trkpt>
      <trkpt lat="45.35555" lon="5.91765">
        <ele>1111.531981633</ele>
        <time>2016-02-11T07:31:38Z</time>
      </trkpt>
      <trkpt lat="45.35553" lon="5.91749">
        <ele>1115.197747837</ele>
        <time>2016-02-11T07:31:52Z</time>
      </trkpt>
      <trkpt lat="45.35556" lon="5.91738">
        <ele>1115.197747837</ele>
        <time>2016-02-11T07:32:03Z</time>
      </trkpt>
      <trkpt lat="45.35556" lon="5.91733">
        <ele>1117.89347768</ele>
        <time>2016-02-11T07:32:07Z</time>
      </trkpt>
      <trkpt lat="45.35556" lon="5.91727">
        <ele>1117.89347768</ele>
        <time>2016-02-11T07:32:12Z</time>
      </trkpt>
      <trkpt lat="45.35556" lon="5.91713">
        <ele>1119.880024566</ele>
        <time>2016-02-11T07:32:21Z</time>
      </trkpt>
      <trkpt lat="45.35559" lon="5.91709">
        <ele>1119.880024566</ele>
        <time>2016-02-11T07:32:27Z</time>
      </trkpt>
      <trkpt lat="45.35565" lon="5.91703">
        <ele>1122.094569458</ele>
        <time>2016-02-11T07:32:37Z</time>
      </trkpt>
      <trkpt lat="45.35569" lon="5.917">
        <ele>1122.094569458</ele>
        <time>2016-02-11T07:32:41Z</time>
      </trkpt>
      <trkpt lat="45.35573" lon="5.917">
        <ele>1122.094569458</ele>
        <time>2016-02-11T07:32:54Z</time>
      </trkpt>
      <trkpt lat="45.35573" lon="5.91699">
        <ele>1123.572037437</ele>
        <time>2016-02-11T07:32:57Z</time>
      </trkpt>
      <trkpt lat="45.35573" lon="5.91699">
        <ele>1123.572037437</ele>
        <time>2016-02-11T07:33:07Z</time>
      </trkpt>
      <trkpt lat="45.35573" lon="5.917">
        <ele>1123.572037437</ele>
        <time>2016-02-11T07:33:24Z</time>
      </trkpt>
      <trkpt lat="45.35573" lon="5.91699">
        <ele>1123.572037437</ele>
        <time>2016-02-11T07:33:26Z</time>
      </trkpt>
      <trkpt lat="45.35572" lon="5.917">
        <ele>1123.572037437</ele>
        <time>2016-02-11T07:33:38Z</time>
      </trkpt>
      <trkpt lat="45.35572" lon="5.917">
        <ele>1123.572037437</ele>
        <time>2016-02-11T07:33:43Z</time>
      </trkpt>
      <trkpt lat="45.35572" lon="5.917">
        <ele>1123.572037437</ele>
        <time>2016-02-11T07:33:51Z</time>
      </trkpt>
      <trkpt lat="45.35572" lon="5.917">
        <ele>1123.572037437</ele>
        <time>2016-02-11T07:33:58Z</time>
      </trkpt>
      <trkpt lat="45.35572" lon="5.917">
        <ele>1123.572037437</ele>
        <time>2016-02-11T07:34:07Z</time>
      </trkpt>
      <trkpt lat="45.35572" lon="5.917">
        <ele>1123.572037437</ele>
        <time>2016-02-11T07:34:13Z</time>
      </trkpt>
      <trkpt lat="45.35572" lon="5.917">
        <ele>1123.572037437</ele>
        <time>2016-02-11T07:34:22Z</time>
      </trkpt>
      <trkpt lat="45.35572" lon="5.917">
        <ele>1123.572037437</ele>
        <time>2016-02-11T07:34:27Z</time>
      </trkpt>
      <trkpt lat="45.35572" lon="5.917">
        <ele>1123.572037437</ele>
        <time>2016-02-11T07:34:32Z</time>
      </trkpt>
      <trkpt lat="45.35572" lon="5.917">
        <ele>1123.572037437</ele>
        <time>2016-02-11T07:34:42Z</time>
      </trkpt>
      <trkpt lat="45.35572" lon="5.917">
        <ele>1123.572037437</ele>
        <time>2016-02-11T07:34:46Z</time>
      </trkpt>
      <trkpt lat="45.35572" lon="5.917">
        <ele>1123.572037437</ele>
        <time>2016-02-11T07:34:56Z</time>
      </trkpt>
      <trkpt lat="45.35573" lon="5.91699">
        <ele>1123.572037437</ele>
        <time>2016-02-11T07:35:01Z</time>
      </trkpt>
      <trkpt lat="45.35573" lon="5.91701">
        <ele>1123.572037437</ele>
        <time>2016-02-11T07:35:13Z</time>
      </trkpt>
      <trkpt lat="45.35573" lon="5.91701">
        <ele>1123.572037437</ele>
        <time>2016-02-11T07:35:17Z</time>
      </trkpt>
      <trkpt lat="45.35573" lon="5.91702">
        <ele>1123.572037437</ele>
        <time>2016-02-11T07:35:27Z</time>
      </trkpt>
      <trkpt lat="45.35573" lon="5.91702">
        <ele>1123.572037437</ele>
        <time>2016-02-11T07:35:31Z</time>
      </trkpt>
      <trkpt lat="45.35573" lon="5.91702">
        <ele>1123.572037437</ele>
        <time>2016-02-11T07:35:42Z</time>
      </trkpt>
      <trkpt lat="45.35573" lon="5.91702">
        <ele>1123.572037437</ele>
        <time>2016-02-11T07:35:48Z</time>
      </trkpt>
      <trkpt lat="45.35573" lon="5.91702">
        <ele>1123.572037437</ele>
        <time>2016-02-11T07:35:57Z</time>
      </trkpt>
      <trkpt lat="45.35573" lon="5.91702">
        <ele>1123.572037437</ele>
        <time>2016-02-11T07:36:03Z</time>
      </trkpt>
      <trkpt lat="45.35573" lon="5.91702">
        <ele>1123.572037437</ele>
        <time>2016-02-11T07:36:12Z</time>
      </trkpt>
      <trkpt lat="45.35573" lon="5.91702">
        <ele>1123.572037437</ele>
        <time>2016-02-11T07:36:17Z</time>
      </trkpt>
      <trkpt lat="45.35586" lon="5.91698">
        <ele>1124.771007986</ele>
        <time>2016-02-11T07:36:28Z</time>
      </trkpt>
      <trkpt lat="45.35588" lon="5.91694">
        <ele>1124.771007986</ele>
        <time>2016-02-11T07:36:32Z</time>
      </trkpt>
      <trkpt lat="45.35592" lon="5.91691">
        <ele>1124.771007986</ele>
        <time>2016-02-11T07:36:37Z</time>
      </trkpt>
      <trkpt lat="45.35597" lon="5.91683">
        <ele>1125.445884935</ele>
        <time>2016-02-11T07:36:43Z</time>
      </trkpt>
      <trkpt lat="45.35599" lon="5.91679">
        <ele>1125.445884935</ele>
        <time>2016-02-11T07:36:47Z</time>
      </trkpt>
      <trkpt lat="45.35602" lon="5.91674">
        <ele>1125.445884935</ele>
        <time>2016-02-11T07:36:52Z</time>
      </trkpt>
      <trkpt lat="45.35609" lon="5.91664">
        <ele>1126.356470074</ele>
        <time>2016-02-11T07:37:03Z</time>
      </trkpt>
      <trkpt lat="45.35609" lon="5.91659">
        <ele>1126.356470074</ele>
        <time>2016-02-11T07:37:07Z</time>
      </trkpt>
      <trkpt lat="45.35584" lon="5.91641">
        <ele>1127.357687285</ele>
        <time>2016-02-11T07:37:31Z</time>
      </trkpt>
      <trkpt lat="45.35583" lon="5.91632">
        <ele>1127.357687285</ele>
        <time>2016-02-11T07:37:44Z</time>
      </trkpt>
      <trkpt lat="45.3559" lon="5.91628">
        <ele>1128.471485301</ele>
        <time>2016-02-11T07:37:53Z</time>
      </trkpt>
      <trkpt lat="45.35591" lon="5.91627">
        <ele>1128.471485301</ele>
        <time>2016-02-11T07:37:53Z</time>
      </trkpt>
      <trkpt lat="45.35599" lon="5.91616">
        <ele>1129.708990473</ele>
        <time>2016-02-11T07:38:01Z</time>
      </trkpt>
      <trkpt lat="45.35605" lon="5.91613">
        <ele>1129.708990473</ele>
        <time>2016-02-11T07:38:06Z</time>
      </trkpt>
      <trkpt lat="45.35605" lon="5.91597">
        <ele>1130.918740956</ele>
        <time>2016-02-11T07:38:17Z</time>
      </trkpt>
      <trkpt lat="45.35602" lon="5.91592">
        <ele>1130.918740956</ele>
        <time>2016-02-11T07:38:21Z</time>
      </trkpt>
      <trkpt lat="45.35604" lon="5.91571">
        <ele>1132.268490637</ele>
        <time>2016-02-11T07:38:31Z</time>
      </trkpt>
      <trkpt lat="45.35607" lon="5.91562">
        <ele>1132.268490637</ele>
        <time>2016-02-11T07:38:36Z</time>
      </trkpt>
      <trkpt lat="45.35612" lon="5.91544">
        <ele>1133.750361723</ele>
        <time>2016-02-11T07:38:51Z</time>
      </trkpt>
      <trkpt lat="45.35613" lon="5.91552">
        <ele>1133.750361723</ele>
        <time>2016-02-11T07:38:56Z</time>
      </trkpt>
      <trkpt lat="45.35613" lon="5.91566">
        <ele>1135.501919434</ele>
        <time>2016-02-11T07:39:06Z</time>
      </trkpt>
      <trkpt lat="45.35616" lon="5.91577">
        <ele>1135.501919434</ele>
        <time>2016-02-11T07:39:11Z</time>
      </trkpt>
      <trkpt lat="45.35626" lon="5.91575">
        <ele>1136.912779786</ele>
        <time>2016-02-11T07:39:21Z</time>
      </trkpt>
      <trkpt lat="45.35629" lon="5.9157">
        <ele>1136.912779786</ele>
        <time>2016-02-11T07:39:26Z</time>
      </trkpt>
      <trkpt lat="45.35631" lon="5.91553">
        <ele>1138.595019852</ele>
        <time>2016-02-11T07:39:36Z</time>
      </trkpt>
      <trkpt lat="45.3563" lon="5.91552">
        <ele>1138.595019852</ele>
        <time>2016-02-11T07:39:38Z</time>
      </trkpt>
      <trkpt lat="45.35627" lon="5.91523">
        <ele>1140.520042249</ele>
        <time>2016-02-11T07:40:06Z</time>
      </trkpt>
      <trkpt lat="45.35627" lon="5.91522">
        <ele>1140.520042249</ele>
        <time>2016-02-11T07:40:11Z</time>
      </trkpt>
      <trkpt lat="45.35629" lon="5.91492">
        <ele>1141.956478239</ele>
        <time>2016-02-11T07:40:25Z</time>
      </trkpt>
      <trkpt lat="45.35629" lon="5.91492">
        <ele>1141.956478239</ele>
        <time>2016-02-11T07:40:26Z</time>
      </trkpt>
      <trkpt lat="45.35657" lon="5.91516">
        <ele>1143.787651493</ele>
        <time>2016-02-11T07:41:01Z</time>
      </trkpt>
      <trkpt lat="45.35661" lon="5.91509">
        <ele>1143.787651493</ele>
        <time>2016-02-11T07:41:06Z</time>
      </trkpt>
      <trkpt lat="45.35665" lon="5.91497">
        <ele>1145.976484411</ele>
        <time>2016-02-11T07:41:17Z</time>
      </trkpt>
      <trkpt lat="45.35666" lon="5.91491">
        <ele>1145.976484411</ele>
        <time>2016-02-11T07:41:21Z</time>
      </trkpt>
      <trkpt lat="45.35671" lon="5.91479">
        <ele>1148.074166033</ele>
        <time>2016-02-11T07:41:31Z</time>
      </trkpt>
      <trkpt lat="45.35677" lon="5.91477">
        <ele>1148.074166033</ele>
        <time>2016-02-11T07:41:38Z</time>
      </trkpt>
      <trkpt lat="45.35685" lon="5.91467">
        <ele>1150.224298251</ele>
        <time>2016-02-11T07:41:48Z</time>
      </trkpt>
      <trkpt lat="45.35684" lon="5.91459">
        <ele>1150.224298251</ele>
        <time>2016-02-11T07:41:52Z</time>
      </trkpt>
      <trkpt lat="45.35683" lon="5.91436">
        <ele>1152.143695258</ele>
        <time>2016-02-11T07:42:07Z</time>
      </trkpt>
      <trkpt lat="45.35684" lon="5.91435">
        <ele>1152.143695258</ele>
        <time>2016-02-11T07:42:12Z</time>
      </trkpt>
      <trkpt lat="45.35689" lon="5.91428">
        <ele>1152.143695258</ele>
        <time>2016-02-11T07:42:22Z</time>
      </trkpt>
      <trkpt lat="45.35693" lon="5.91423">
        <ele>1153.84719104</ele>
        <time>2016-02-11T07:42:26Z</time>
      </trkpt>
      <trkpt lat="45.35695" lon="5.91416">
        <ele>1153.84719104</ele>
        <time>2016-02-11T07:42:36Z</time>
      </trkpt>
      <trkpt lat="45.35697" lon="5.91413">
        <ele>1153.84719104</ele>
        <time>2016-02-11T07:42:38Z</time>
      </trkpt>
      <trkpt lat="45.35703" lon="5.91411">
        <ele>1155.906894173</ele>
        <time>2016-02-11T07:42:41Z</time>
      </trkpt>
      <trkpt lat="45.3571" lon="5.91393">
        <ele>1158.441245157</ele>
        <time>2016-02-11T07:42:58Z</time>
      </trkpt>
      <trkpt lat="45.35711" lon="5.91392">
        <ele>1158.441245157</ele>
        <time>2016-02-11T07:42:59Z</time>
      </trkpt>
      <trkpt lat="45.35711" lon="5.9139">
        <ele>1158.441245157</ele>
        <time>2016-02-11T07:43:01Z</time>
      </trkpt>
      <trkpt lat="45.35715" lon="5.91381">
        <ele>1161.704028356</ele>
        <time>2016-02-11T07:43:10Z</time>
      </trkpt>
      <trkpt lat="45.35716" lon="5.9138">
        <ele>1161.704028356</ele>
        <time>2016-02-11T07:43:12Z</time>
      </trkpt>
      <trkpt lat="45.35715" lon="5.91377">
        <ele>1161.704028356</ele>
        <time>2016-02-11T07:43:17Z</time>
      </trkpt>
      <trkpt lat="45.35722" lon="5.9136">
        <ele>1164.801266895</ele>
        <time>2016-02-11T07:43:32Z</time>
      </trkpt>
      <trkpt lat="45.35724" lon="5.91358">
        <ele>1164.801266895</ele>
        <time>2016-02-11T07:43:36Z</time>
      </trkpt>
      <trkpt lat="45.35725" lon="5.91349">
        <ele>1164.801266895</ele>
        <time>2016-02-11T07:43:48Z</time>
      </trkpt>
      <trkpt lat="45.35725" lon="5.91349">
        <ele>1164.801266895</ele>
        <time>2016-02-11T07:43:53Z</time>
      </trkpt>
      <trkpt lat="45.35732" lon="5.91337">
        <ele>1167.028001655</ele>
        <time>2016-02-11T07:44:03Z</time>
      </trkpt>
      <trkpt lat="45.35734" lon="5.91333">
        <ele>1167.028001655</ele>
        <time>2016-02-11T07:44:07Z</time>
      </trkpt>
      <trkpt lat="45.35739" lon="5.91328">
        <ele>1169.297841633</ele>
        <time>2016-02-11T07:44:16Z</time>
      </trkpt>
      <trkpt lat="45.35742" lon="5.91327">
        <ele>1169.297841633</ele>
        <time>2016-02-11T07:44:21Z</time>
      </trkpt>
      <trkpt lat="45.3575" lon="5.91329">
        <ele>1171.900407301</ele>
        <time>2016-02-11T07:44:32Z</time>
      </trkpt>
      <trkpt lat="45.35754" lon="5.91326">
        <ele>1171.900407301</ele>
        <time>2016-02-11T07:44:37Z</time>
      </trkpt>
      <trkpt lat="45.35759" lon="5.91323">
        <ele>1174.526911307</ele>
        <time>2016-02-11T07:44:46Z</time>
      </trkpt>
      <trkpt lat="45.35764" lon="5.91318">
        <ele>1174.526911307</ele>
        <time>2016-02-11T07:44:51Z</time>
      </trkpt>
      <trkpt lat="45.35812" lon="5.91303">
        <ele>1178.350604059</ele>
        <time>2016-02-11T07:45:37Z</time>
      </trkpt>
      <trkpt lat="45.35815" lon="5.91301">
        <ele>1178.350604059</ele>
        <time>2016-02-11T07:45:41Z</time>
      </trkpt>
      <trkpt lat="45.35818" lon="5.91291">
        <ele>1182.116639025</ele>
        <time>2016-02-11T07:45:52Z</time>
      </trkpt>
      <trkpt lat="45.35819" lon="5.91291">
        <ele>1182.116639025</ele>
        <time>2016-02-11T07:45:57Z</time>
      </trkpt>
      <trkpt lat="45.35822" lon="5.91287">
        <ele>1182.116639025</ele>
        <time>2016-02-11T07:46:07Z</time>
      </trkpt>
      <trkpt lat="45.35823" lon="5.91286">
        <ele>1182.116639025</ele>
        <time>2016-02-11T07:46:13Z</time>
      </trkpt>
      <trkpt lat="45.3583" lon="5.91274">
        <ele>1186.121588019</ele>
        <time>2016-02-11T07:46:27Z</time>
      </trkpt>
      <trkpt lat="45.35832" lon="5.91272">
        <ele>1186.121588019</ele>
        <time>2016-02-11T07:46:32Z</time>
      </trkpt>
      <trkpt lat="45.35839" lon="5.91262">
        <ele>1189.600901483</ele>
        <time>2016-02-11T07:46:43Z</time>
      </trkpt>
      <trkpt lat="45.35841" lon="5.91259">
        <ele>1189.600901483</ele>
        <time>2016-02-11T07:46:48Z</time>
      </trkpt>
      <trkpt lat="45.35841" lon="5.91261">
        <ele>1189.600901483</ele>
        <time>2016-02-11T07:46:52Z</time>
      </trkpt>
      <trkpt lat="45.35843" lon="5.9126">
        <ele>1189.600901483</ele>
        <time>2016-02-11T07:47:07Z</time>
      </trkpt>
      <trkpt lat="45.35859" lon="5.91261">
        <ele>1193.783328319</ele>
        <time>2016-02-11T07:47:08Z</time>
      </trkpt>
      <trkpt lat="45.35867" lon="5.91245">
        <ele>1197.115981699</ele>
        <time>2016-02-11T07:47:22Z</time>
      </trkpt>
      <trkpt lat="45.35873" lon="5.91236">
        <ele>1197.115981699</ele>
        <time>2016-02-11T07:47:32Z</time>
      </trkpt>
      <trkpt lat="45.35877" lon="5.91232">
        <ele>1199.95736793</ele>
        <time>2016-02-11T07:47:37Z</time>
      </trkpt>
      <trkpt lat="45.35889" lon="5.91237">
        <ele>1203.097195482</ele>
        <time>2016-02-11T07:47:51Z</time>
      </trkpt>
      <trkpt lat="45.35889" lon="5.91236">
        <ele>1203.097195482</ele>
        <time>2016-02-11T07:47:51Z</time>
      </trkpt>
      <trkpt lat="45.3589" lon="5.91232">
        <ele>1203.097195482</ele>
        <time>2016-02-11T07:47:56Z</time>
      </trkpt>
      <trkpt lat="45.35897" lon="5.91226">
        <ele>1206.966328408</ele>
        <time>2016-02-11T07:48:07Z</time>
      </trkpt>
      <trkpt lat="45.35901" lon="5.91225">
        <ele>1206.966328408</ele>
        <time>2016-02-11T07:48:12Z</time>
      </trkpt>
      <trkpt lat="45.35909" lon="5.91218">
        <ele>1209.846628988</ele>
        <time>2016-02-11T07:48:23Z</time>
      </trkpt>
      <trkpt lat="45.35914" lon="5.91217">
        <ele>1209.846628988</ele>
        <time>2016-02-11T07:48:27Z</time>
      </trkpt>
      <trkpt lat="45.35913" lon="5.91215">
        <ele>1209.846628988</ele>
        <time>2016-02-11T07:48:38Z</time>
      </trkpt>
      <trkpt lat="45.35912" lon="5.91215">
        <ele>1209.846628988</ele>
        <time>2016-02-11T07:48:43Z</time>
      </trkpt>
      <trkpt lat="45.35913" lon="5.91214">
        <ele>1209.846628988</ele>
        <time>2016-02-11T07:48:53Z</time>
      </trkpt>
      <trkpt lat="45.35912" lon="5.91213">
        <ele>1213.173046165</ele>
        <time>2016-02-11T07:48:58Z</time>
      </trkpt>
      <trkpt lat="45.35911" lon="5.91212">
        <ele>1213.173046165</ele>
        <time>2016-02-11T07:49:07Z</time>
      </trkpt>
      <trkpt lat="45.35911" lon="5.91212">
        <ele>1213.173046165</ele>
        <time>2016-02-11T07:49:14Z</time>
      </trkpt>
      <trkpt lat="45.35909" lon="5.91213">
        <ele>1213.173046165</ele>
        <time>2016-02-11T07:49:23Z</time>
      </trkpt>
      <trkpt lat="45.35907" lon="5.91211">
        <ele>1213.173046165</ele>
        <time>2016-02-11T07:49:27Z</time>
      </trkpt>
      <trkpt lat="45.35912" lon="5.91212">
        <ele>1217.061232996</ele>
        <time>2016-02-11T07:49:41Z</time>
      </trkpt>
      <trkpt lat="45.35913" lon="5.91212">
        <ele>1217.061232996</ele>
        <time>2016-02-11T07:49:46Z</time>
      </trkpt>
      <trkpt lat="45.35913" lon="5.91212">
        <ele>1217.061232996</ele>
        <time>2016-02-11T07:49:53Z</time>
      </trkpt>
      <trkpt lat="45.35913" lon="5.91212">
        <ele>1217.061232996</ele>
        <time>2016-02-11T07:49:57Z</time>
      </trkpt>
      <trkpt lat="45.35913" lon="5.91212">
        <ele>1217.061232996</ele>
        <time>2016-02-11T07:50:12Z</time>
      </trkpt>
      <trkpt lat="45.35913" lon="5.91212">
        <ele>1217.061232996</ele>
        <time>2016-02-11T07:50:17Z</time>
      </trkpt>
      <trkpt lat="45.35913" lon="5.91212">
        <ele>1217.061232996</ele>
        <time>2016-02-11T07:50:27Z</time>
      </trkpt>
      <trkpt lat="45.35913" lon="5.91212">
        <ele>1217.061232996</ele>
        <time>2016-02-11T07:50:31Z</time>
      </trkpt>
      <trkpt lat="45.35913" lon="5.91212">
        <ele>1217.061232996</ele>
        <time>2016-02-11T07:50:42Z</time>
      </trkpt>
      <trkpt lat="45.35913" lon="5.91212">
        <ele>1217.061232996</ele>
        <time>2016-02-11T07:50:48Z</time>
      </trkpt>
      <trkpt lat="45.35913" lon="5.91212">
        <ele>1217.061232996</ele>
        <time>2016-02-11T07:50:56Z</time>
      </trkpt>
      <trkpt lat="45.35913" lon="5.91212">
        <ele>1217.061232996</ele>
        <time>2016-02-11T07:51:01Z</time>
      </trkpt>
      <trkpt lat="45.35913" lon="5.91212">
        <ele>1217.061232996</ele>
        <time>2016-02-11T07:51:11Z</time>
      </trkpt>
      <trkpt lat="45.35913" lon="5.91212">
        <ele>1217.061232996</ele>
        <time>2016-02-11T07:51:16Z</time>
      </trkpt>
      <trkpt lat="45.35913" lon="5.91212">
        <ele>1217.061232996</ele>
        <time>2016-02-11T07:51:26Z</time>
      </trkpt>
      <trkpt lat="45.35913" lon="5.91212">
        <ele>1217.061232996</ele>
        <time>2016-02-11T07:51:31Z</time>
      </trkpt>
      <trkpt lat="45.35913" lon="5.91212">
        <ele>1217.061232996</ele>
        <time>2016-02-11T07:51:41Z</time>
      </trkpt>
      <trkpt lat="45.35913" lon="5.91212">
        <ele>1217.061232996</ele>
        <time>2016-02-11T07:51:46Z</time>
      </trkpt>
      <trkpt lat="45.35913" lon="5.91212">
        <ele>1217.061232996</ele>
        <time>2016-02-11T07:51:57Z</time>
      </trkpt>
      <trkpt lat="45.35913" lon="5.91212">
        <ele>1217.061232996</ele>
        <time>2016-02-11T07:52:02Z</time>
      </trkpt>
      <trkpt lat="45.35913" lon="5.91212">
        <ele>1217.061232996</ele>
        <time>2016-02-11T07:52:13Z</time>
      </trkpt>
      <trkpt lat="45.35913" lon="5.91212">
        <ele>1217.061232996</ele>
        <time>2016-02-11T07:52:17Z</time>
      </trkpt>
      <trkpt lat="45.35913" lon="5.91212">
        <ele>1217.061232996</ele>
        <time>2016-02-11T07:52:32Z</time>
      </trkpt>
      <trkpt lat="45.35913" lon="5.91212">
        <ele>1217.061232996</ele>
        <time>2016-02-11T07:52:36Z</time>
      </trkpt>
      <trkpt lat="45.35913" lon="5.91212">
        <ele>1217.061232996</ele>
        <time>2016-02-11T07:52:46Z</time>
      </trkpt>
      <trkpt lat="45.35913" lon="5.91212">
        <ele>1217.061232996</ele>
        <time>2016-02-11T07:52:53Z</time>
      </trkpt>
      <trkpt lat="45.35913" lon="5.91212">
        <ele>1217.061232996</ele>
        <time>2016-02-11T07:53:02Z</time>
      </trkpt>
      <trkpt lat="45.35913" lon="5.91212">
        <ele>1217.061232996</ele>
        <time>2016-02-11T07:53:08Z</time>
      </trkpt>
      <trkpt lat="45.35913" lon="5.91212">
        <ele>1217.061232996</ele>
        <time>2016-02-11T07:53:17Z</time>
      </trkpt>
      <trkpt lat="45.35913" lon="5.91212">
        <ele>1217.061232996</ele>
        <time>2016-02-11T07:53:22Z</time>
      </trkpt>
      <trkpt lat="45.35913" lon="5.9121">
        <ele>1217.061232996</ele>
        <time>2016-02-11T07:53:34Z</time>
      </trkpt>
      <trkpt lat="45.35913" lon="5.91207">
        <ele>1217.061232996</ele>
        <time>2016-02-11T07:53:37Z</time>
      </trkpt>
      <trkpt lat="45.35919" lon="5.91202">
        <ele>1219.956952373</ele>
        <time>2016-02-11T07:53:47Z</time>
      </trkpt>
      <trkpt lat="45.35921" lon="5.91195">
        <ele>1219.956952373</ele>
        <time>2016-02-11T07:53:52Z</time>
      </trkpt>
      <trkpt lat="45.3593" lon="5.91187">
        <ele>1221.789573179</ele>
        <time>2016-02-11T07:54:02Z</time>
      </trkpt>
      <trkpt lat="45.35936" lon="5.91189">
        <ele>1221.789573179</ele>
        <time>2016-02-11T07:54:07Z</time>
      </trkpt>
      <trkpt lat="45.35943" lon="5.91185">
        <ele>1224.001524143</ele>
        <time>2016-02-11T07:54:21Z</time>
      </trkpt>
      <trkpt lat="45.35942" lon="5.91181">
        <ele>1224.001524143</ele>
        <time>2016-02-11T07:54:26Z</time>
      </trkpt>
      <trkpt lat="45.35949" lon="5.91178">
        <ele>1226.865156408</ele>
        <time>2016-02-11T07:54:38Z</time>
      </trkpt>
      <trkpt lat="45.35954" lon="5.91171">
        <ele>1226.865156408</ele>
        <time>2016-02-11T07:54:54Z</time>
      </trkpt>
      <trkpt lat="45.35955" lon="5.91169">
        <ele>1226.865156408</ele>
        <time>2016-02-11T07:54:55Z</time>
      </trkpt>
      <trkpt lat="45.35957" lon="5.91169">
        <ele>1230.028980635</ele>
        <time>2016-02-11T07:54:56Z</time>
      </trkpt>
      <trkpt lat="45.3597" lon="5.91161">
        <ele>1232.87114818</ele>
        <time>2016-02-11T07:55:10Z</time>
      </trkpt>
      <trkpt lat="45.35981" lon="5.91158">
        <ele>1235.269889823</ele>
        <time>2016-02-11T07:55:28Z</time>
      </trkpt>
      <trkpt lat="45.35983" lon="5.91157">
        <ele>1235.269889823</ele>
        <time>2016-02-11T07:55:33Z</time>
      </trkpt>
      <trkpt lat="45.35984" lon="5.91156">
        <ele>1235.269889823</ele>
        <time>2016-02-11T07:55:42Z</time>
      </trkpt>
      <trkpt lat="45.35987" lon="5.9115">
        <ele>1235.269889823</ele>
        <time>2016-02-11T07:55:48Z</time>
      </trkpt>
      <trkpt lat="45.35998" lon="5.9114">
        <ele>1237.857869548</ele>
        <time>2016-02-11T07:55:57Z</time>
      </trkpt>
      <trkpt lat="45.36004" lon="5.91137">
        <ele>1237.857869548</ele>
        <time>2016-02-11T07:56:02Z</time>
      </trkpt>
      <trkpt lat="45.36013" lon="5.91135">
        <ele>1239.583712694</ele>
        <time>2016-02-11T07:56:13Z</time>
      </trkpt>
      <trkpt lat="45.36018" lon="5.91134">
        <ele>1239.583712694</ele>
        <time>2016-02-11T07:56:18Z</time>
      </trkpt>
      <trkpt lat="45.36024" lon="5.91132">
        <ele>1241.556361688</ele>
        <time>2016-02-11T07:56:27Z</time>
      </trkpt>
      <trkpt lat="45.36029" lon="5.91131">
        <ele>1241.556361688</ele>
        <time>2016-02-11T07:56:31Z</time>
      </trkpt>
      <trkpt lat="45.36034" lon="5.91129">
        <ele>1243.021398616</ele>
        <time>2016-02-11T07:56:43Z</time>
      </trkpt>
      <trkpt lat="45.36034" lon="5.9113">
        <ele>1243.021398616</ele>
        <time>2016-02-11T07:56:48Z</time>
      </trkpt>
      <trkpt lat="45.36035" lon="5.9113">
        <ele>1243.021398616</ele>
        <time>2016-02-11T07:57:05Z</time>
      </trkpt>
      <trkpt lat="45.36036" lon="5.91131">
        <ele>1243.021398616</ele>
        <time>2016-02-11T07:57:05Z</time>
      </trkpt>
      <trkpt lat="45.36066" lon="5.91137">
        <ele>1245.7896359</ele>
        <time>2016-02-11T07:57:33Z</time>
      </trkpt>
      <trkpt lat="45.36067" lon="5.91135">
        <ele>1245.7896359</ele>
        <time>2016-02-11T07:57:37Z</time>
      </trkpt>
      <trkpt lat="45.36077" lon="5.91136">
        <ele>1248.288884998</ele>
        <time>2016-02-11T07:57:50Z</time>
      </trkpt>
      <trkpt lat="45.36083" lon="5.91136">
        <ele>1248.288884998</ele>
        <time>2016-02-11T07:57:52Z</time>
      </trkpt>
      <trkpt lat="45.36092" lon="5.91139">
        <ele>1250.981618512</ele>
        <time>2016-02-11T07:58:03Z</time>
      </trkpt>
      <trkpt lat="45.36098" lon="5.91138">
        <ele>1250.981618512</ele>
        <time>2016-02-11T07:58:08Z</time>
      </trkpt>
      <trkpt lat="45.36105" lon="5.91136">
        <ele>1253.560990293</ele>
        <time>2016-02-11T07:58:17Z</time>
      </trkpt>
      <trkpt lat="45.3611" lon="5.91135">
        <ele>1253.560990293</ele>
        <time>2016-02-11T07:58:22Z</time>
      </trkpt>
      <trkpt lat="45.36125" lon="5.91139">
        <ele>1255.161769867</ele>
        <time>2016-02-11T07:58:37Z</time>
      </trkpt>
      <trkpt lat="45.36129" lon="5.91136">
        <ele>1255.161769867</ele>
        <time>2016-02-11T07:58:43Z</time>
      </trkpt>
      <trkpt lat="45.36137" lon="5.91134">
        <ele>1254.699466404</ele>
        <time>2016-02-11T07:59:00Z</time>
      </trkpt>
      <trkpt lat="45.36139" lon="5.91133">
        <ele>1254.699466404</ele>
        <time>2016-02-11T07:59:02Z</time>
      </trkpt>
      <trkpt lat="45.3614" lon="5.91132">
        <ele>1254.699466404</ele>
        <time>2016-02-11T07:59:03Z</time>
      </trkpt>
      <trkpt lat="45.3614" lon="5.91127">
        <ele>1254.699466404</ele>
        <time>2016-02-11T07:59:17Z</time>
      </trkpt>
      <trkpt lat="45.36142" lon="5.91127">
        <ele>1254.089438171</ele>
        <time>2016-02-11T07:59:40Z</time>
      </trkpt>
      <trkpt lat="45.36144" lon="5.91127">
        <ele>1254.089438171</ele>
        <time>2016-02-11T07:59:41Z</time>
      </trkpt>
      <trkpt lat="45.36146" lon="5.91126">
        <ele>1254.089438171</ele>
        <time>2016-02-11T07:59:42Z</time>
      </trkpt>
      <trkpt lat="45.36162" lon="5.91127">
        <ele>1256.837432676</ele>
        <time>2016-02-11T07:59:56Z</time>
      </trkpt>
      <trkpt lat="45.36169" lon="5.91128">
        <ele>1256.837432676</ele>
        <time>2016-02-11T08:00:01Z</time>
      </trkpt>
      <trkpt lat="45.36182" lon="5.91128">
        <ele>1260.50873496</ele>
        <time>2016-02-11T08:00:11Z</time>
      </trkpt>
      <trkpt lat="45.36187" lon="5.91126">
        <ele>1260.50873496</ele>
        <time>2016-02-11T08:00:16Z</time>
      </trkpt>
      <trkpt lat="45.36197" lon="5.91126">
        <ele>1264.016475829</ele>
        <time>2016-02-11T08:00:26Z</time>
      </trkpt>
      <trkpt lat="45.36202" lon="5.91128">
        <ele>1264.016475829</ele>
        <time>2016-02-11T08:00:34Z</time>
      </trkpt>
      <trkpt lat="45.36214" lon="5.91128">
        <ele>1267.805938931</ele>
        <time>2016-02-11T08:00:41Z</time>
      </trkpt>
      <trkpt lat="45.36217" lon="5.91129">
        <ele>1267.805938931</ele>
        <time>2016-02-11T08:00:48Z</time>
      </trkpt>
      <trkpt lat="45.36232" lon="5.91124">
        <ele>1272.142688247</ele>
        <time>2016-02-11T08:01:01Z</time>
      </trkpt>
      <trkpt lat="45.36234" lon="5.91123">
        <ele>1272.142688247</ele>
        <time>2016-02-11T08:01:03Z</time>
      </trkpt>
      <trkpt lat="45.36246" lon="5.9112">
        <ele>1276.692559116</ele>
        <time>2016-02-11T08:01:15Z</time>
      </trkpt>
      <trkpt lat="45.36246" lon="5.9112">
        <ele>1276.692559116</ele>
        <time>2016-02-11T08:01:16Z</time>
      </trkpt>
      <trkpt lat="45.36263" lon="5.91111">
        <ele>1280.279710461</ele>
        <time>2016-02-11T08:01:34Z</time>
      </trkpt>
      <trkpt lat="45.36269" lon="5.91113">
        <ele>1280.279710461</ele>
        <time>2016-02-11T08:01:34Z</time>
      </trkpt>
      <trkpt lat="45.36272" lon="5.91112">
        <ele>1280.279710461</ele>
        <time>2016-02-11T08:01:36Z</time>
      </trkpt>
      <trkpt lat="45.36281" lon="5.91116">
        <ele>1283.407441116</ele>
        <time>2016-02-11T08:01:49Z</time>
      </trkpt>
      <trkpt lat="45.36283" lon="5.91116">
        <ele>1283.407441116</ele>
        <time>2016-02-11T08:01:52Z</time>
      </trkpt>
      <trkpt lat="45.36295" lon="5.91109">
        <ele>1266.917143461</ele>
        <time>2016-02-11T08:02:03Z</time>
      </trkpt>
      <trkpt lat="45.36296" lon="5.91106">
        <ele>1266.917143461</ele>
        <time>2016-02-11T08:02:07Z</time>
      </trkpt>
      <trkpt lat="45.36304" lon="5.9111">
        <ele>1268.817530452</ele>
        <time>2016-02-11T08:02:18Z</time>
      </trkpt>
      <trkpt lat="45.36304" lon="5.91111">
        <ele>1268.817530452</ele>
        <time>2016-02-11T08:02:19Z</time>
      </trkpt>
      <trkpt lat="45.36307" lon="5.91111">
        <ele>1268.817530452</ele>
        <time>2016-02-11T08:02:23Z</time>
      </trkpt>
      <trkpt lat="45.36313" lon="5.91106">
        <ele>1272.169663474</ele>
        <time>2016-02-11T08:02:35Z</time>
      </trkpt>
      <trkpt lat="45.36312" lon="5.91105">
        <ele>1272.169663474</ele>
        <time>2016-02-11T08:02:36Z</time>
      </trkpt>
      <trkpt lat="45.36316" lon="5.91105">
        <ele>1272.169663474</ele>
        <time>2016-02-11T08:02:41Z</time>
      </trkpt>
      <trkpt lat="45.36328" lon="5.91099">
        <ele>1275.99921663</ele>
        <time>2016-02-11T08:02:51Z</time>
      </trkpt>
      <trkpt lat="45.36331" lon="5.91099">
        <ele>1275.99921663</ele>
        <time>2016-02-11T08:02:56Z</time>
      </trkpt>
      <trkpt lat="45.36342" lon="5.91098">
        <ele>1279.691051793</ele>
        <time>2016-02-11T08:03:06Z</time>
      </trkpt>
      <trkpt lat="45.36345" lon="5.91098">
        <ele>1279.691051793</ele>
        <time>2016-02-11T08:03:11Z</time>
      </trkpt>
      <trkpt lat="45.36352" lon="5.91092">
        <ele>1283.684931645</ele>
        <time>2016-02-11T08:03:21Z</time>
      </trkpt>
      <trkpt lat="45.36358" lon="5.9109">
        <ele>1283.684931645</ele>
        <time>2016-02-11T08:03:26Z</time>
      </trkpt>
      <trkpt lat="45.36372" lon="5.9109">
        <ele>1287.810539614</ele>
        <time>2016-02-11T08:03:41Z</time>
      </trkpt>
      <trkpt lat="45.36373" lon="5.9109">
        <ele>1287.810539614</ele>
        <time>2016-02-11T08:03:41Z</time>
      </trkpt>
      <trkpt lat="45.36383" lon="5.91089">
        <ele>1292.197968839</ele>
        <time>2016-02-11T08:03:53Z</time>
      </trkpt>
      <trkpt lat="45.36389" lon="5.91084">
        <ele>1292.197968839</ele>
        <time>2016-02-11T08:03:57Z</time>
      </trkpt>
      <trkpt lat="45.36396" lon="5.91085">
        <ele>1295.957674196</ele>
        <time>2016-02-11T08:04:08Z</time>
      </trkpt>
      <trkpt lat="45.36396" lon="5.91085">
        <ele>1295.957674196</ele>
        <time>2016-02-11T08:04:12Z</time>
      </trkpt>
      <trkpt lat="45.36395" lon="5.91084">
        <ele>1295.957674196</ele>
        <time>2016-02-11T08:04:23Z</time>
      </trkpt>
      <trkpt lat="45.36394" lon="5.91084">
        <ele>1295.957674196</ele>
        <time>2016-02-11T08:04:26Z</time>
      </trkpt>
      <trkpt lat="45.36394" lon="5.91084">
        <ele>1295.957674196</ele>
        <time>2016-02-11T08:04:31Z</time>
      </trkpt>
      <trkpt lat="45.36394" lon="5.91084">
        <ele>1295.957674196</ele>
        <time>2016-02-11T08:04:41Z</time>
      </trkpt>
      <trkpt lat="45.36394" lon="5.91084">
        <ele>1295.957674196</ele>
        <time>2016-02-11T08:04:46Z</time>
      </trkpt>
      <trkpt lat="45.36395" lon="5.91084">
        <ele>1295.957674196</ele>
        <time>2016-02-11T08:04:56Z</time>
      </trkpt>
      <trkpt lat="45.36395" lon="5.91084">
        <ele>1295.957674196</ele>
        <time>2016-02-11T08:05:02Z</time>
      </trkpt>
      <trkpt lat="45.36395" lon="5.91084">
        <ele>1295.957674196</ele>
        <time>2016-02-11T08:05:13Z</time>
      </trkpt>
      <trkpt lat="45.36397" lon="5.91078">
        <ele>1295.957674196</ele>
        <time>2016-02-11T08:05:18Z</time>
      </trkpt>
      <trkpt lat="45.36408" lon="5.9107">
        <ele>1299.564742061</ele>
        <time>2016-02-11T08:05:29Z</time>
      </trkpt>
      <trkpt lat="45.36407" lon="5.91067">
        <ele>1299.564742061</ele>
        <time>2016-02-11T08:05:32Z</time>
      </trkpt>
      <trkpt lat="45.3641" lon="5.91067">
        <ele>1299.564742061</ele>
        <time>2016-02-11T08:05:43Z</time>
      </trkpt>
      <trkpt lat="45.36414" lon="5.91064">
        <ele>1302.450412257</ele>
        <time>2016-02-11T08:05:47Z</time>
      </trkpt>
      <trkpt lat="45.36416" lon="5.91058">
        <ele>1302.450412257</ele>
        <time>2016-02-11T08:05:58Z</time>
      </trkpt>
      <trkpt lat="45.36416" lon="5.91058">
        <ele>1302.450412257</ele>
        <time>2016-02-11T08:06:02Z</time>
      </trkpt>
      <trkpt lat="45.36416" lon="5.91058">
        <ele>1302.450412257</ele>
        <time>2016-02-11T08:06:13Z</time>
      </trkpt>
      <trkpt lat="45.36416" lon="5.91058">
        <ele>1302.450412257</ele>
        <time>2016-02-11T08:06:18Z</time>
      </trkpt>
      <trkpt lat="45.36416" lon="5.91058">
        <ele>1302.450412257</ele>
        <time>2016-02-11T08:06:28Z</time>
      </trkpt>
      <trkpt lat="45.36416" lon="5.91058">
        <ele>1302.450412257</ele>
        <time>2016-02-11T08:06:32Z</time>
      </trkpt>
      <trkpt lat="45.36416" lon="5.91058">
        <ele>1302.450412257</ele>
        <time>2016-02-11T08:06:47Z</time>
      </trkpt>
      <trkpt lat="45.36416" lon="5.91058">
        <ele>1302.450412257</ele>
        <time>2016-02-11T08:06:58Z</time>
      </trkpt>
      <trkpt lat="45.36416" lon="5.91058">
        <ele>1302.450412257</ele>
        <time>2016-02-11T08:07:04Z</time>
      </trkpt>
      <trkpt lat="45.36416" lon="5.91058">
        <ele>1302.450412257</ele>
        <time>2016-02-11T08:07:13Z</time>
      </trkpt>
      <trkpt lat="45.36416" lon="5.91057">
        <ele>1302.450412257</ele>
        <time>2016-02-11T08:07:18Z</time>
      </trkpt>
      <trkpt lat="45.36416" lon="5.91057">
        <ele>1302.450412257</ele>
        <time>2016-02-11T08:07:23Z</time>
      </trkpt>
      <trkpt lat="45.36416" lon="5.91057">
        <ele>1302.450412257</ele>
        <time>2016-02-11T08:07:33Z</time>
      </trkpt>
      <trkpt lat="45.36416" lon="5.91057">
        <ele>1302.450412257</ele>
        <time>2016-02-11T08:07:37Z</time>
      </trkpt>
      <trkpt lat="45.36416" lon="5.91057">
        <ele>1302.450412257</ele>
        <time>2016-02-11T08:07:47Z</time>
      </trkpt>
      <trkpt lat="45.36416" lon="5.91057">
        <ele>1302.450412257</ele>
        <time>2016-02-11T08:07:52Z</time>
      </trkpt>
      <trkpt lat="45.36426" lon="5.91046">
        <ele>1305.387431491</ele>
        <time>2016-02-11T08:08:01Z</time>
      </trkpt>
      <trkpt lat="45.36427" lon="5.9104">
        <ele>1305.387431491</ele>
        <time>2016-02-11T08:08:06Z</time>
      </trkpt>
      <trkpt lat="45.36431" lon="5.91038">
        <ele>1305.387431491</ele>
        <time>2016-02-11T08:08:19Z</time>
      </trkpt>
      <trkpt lat="45.36442" lon="5.91029">
        <ele>1308.803307115</ele>
        <time>2016-02-11T08:08:23Z</time>
      </trkpt>
      <trkpt lat="45.36448" lon="5.91023">
        <ele>1308.803307115</ele>
        <time>2016-02-11T08:08:32Z</time>
      </trkpt>
      <trkpt lat="45.3645" lon="5.91022">
        <ele>1308.803307115</ele>
        <time>2016-02-11T08:08:37Z</time>
      </trkpt>
      <trkpt lat="45.36459" lon="5.91007">
        <ele>1311.07377885</ele>
        <time>2016-02-11T08:08:46Z</time>
      </trkpt>
      <trkpt lat="45.36469" lon="5.91001">
        <ele>1313.58144093</ele>
        <time>2016-02-11T08:08:53Z</time>
      </trkpt>
      <trkpt lat="45.36478" lon="5.90998">
        <ele>1316.308719612</ele>
        <time>2016-02-11T08:09:02Z</time>
      </trkpt>
      <trkpt lat="45.36484" lon="5.90997">
        <ele>1316.308719612</ele>
        <time>2016-02-11T08:09:08Z</time>
      </trkpt>
      <trkpt lat="45.36493" lon="5.91">
        <ele>1319.094468299</ele>
        <time>2016-02-11T08:09:18Z</time>
      </trkpt>
      <trkpt lat="45.36496" lon="5.91002">
        <ele>1319.094468299</ele>
        <time>2016-02-11T08:09:22Z</time>
      </trkpt>
      <trkpt lat="45.36505" lon="5.91005">
        <ele>1321.50072137</ele>
        <time>2016-02-11T08:09:33Z</time>
      </trkpt>
      <trkpt lat="45.36507" lon="5.91009">
        <ele>1321.50072137</ele>
        <time>2016-02-11T08:09:37Z</time>
      </trkpt>
      <trkpt lat="45.3651" lon="5.91013">
        <ele>1321.50072137</ele>
        <time>2016-02-11T08:09:42Z</time>
      </trkpt>
      <trkpt lat="45.36516" lon="5.91021">
        <ele>1323.843974937</ele>
        <time>2016-02-11T08:09:51Z</time>
      </trkpt>
      <trkpt lat="45.36516" lon="5.91022">
        <ele>1323.843974937</ele>
        <time>2016-02-11T08:09:57Z</time>
      </trkpt>
      <trkpt lat="45.36521" lon="5.91025">
        <ele>1323.843974937</ele>
        <time>2016-02-11T08:10:08Z</time>
      </trkpt>
      <trkpt lat="45.36524" lon="5.9103">
        <ele>1325.984924191</ele>
        <time>2016-02-11T08:10:12Z</time>
      </trkpt>
      <trkpt lat="45.36536" lon="5.91034">
        <ele>1327.795080619</ele>
        <time>2016-02-11T08:10:22Z</time>
      </trkpt>
      <trkpt lat="45.36543" lon="5.91034">
        <ele>1327.795080619</ele>
        <time>2016-02-11T08:10:28Z</time>
      </trkpt>
      <trkpt lat="45.36552" lon="5.91035">
        <ele>1329.733309366</ele>
        <time>2016-02-11T08:10:38Z</time>
      </trkpt>
      <trkpt lat="45.36554" lon="5.91034">
        <ele>1329.733309366</ele>
        <time>2016-02-11T08:10:41Z</time>
      </trkpt>
      <trkpt lat="45.36567" lon="5.91037">
        <ele>1331.647394686</ele>
        <time>2016-02-11T08:10:53Z</time>
      </trkpt>
      <trkpt lat="45.36573" lon="5.91038">
        <ele>1331.647394686</ele>
        <time>2016-02-11T08:10:56Z</time>
      </trkpt>
      <trkpt lat="45.36574" lon="5.91038">
        <ele>1331.647394686</ele>
        <time>2016-02-11T08:11:01Z</time>
      </trkpt>
      <trkpt lat="45.36574" lon="5.9104">
        <ele>1331.647394686</ele>
        <time>2016-02-11T08:11:06Z</time>
      </trkpt>
      <trkpt lat="45.36576" lon="5.9104">
        <ele>1334.550256142</ele>
        <time>2016-02-11T08:11:11Z</time>
      </trkpt>
      <trkpt lat="45.36584" lon="5.91043">
        <ele>1334.550256142</ele>
        <time>2016-02-11T08:11:18Z</time>
      </trkpt>
      <trkpt lat="45.36603" lon="5.91045">
        <ele>1337.213993943</ele>
        <time>2016-02-11T08:11:33Z</time>
      </trkpt>
      <trkpt lat="45.36606" lon="5.91045">
        <ele>1337.213993943</ele>
        <time>2016-02-11T08:11:37Z</time>
      </trkpt>
      <trkpt lat="45.36619" lon="5.91045">
        <ele>1338.934462014</ele>
        <time>2016-02-11T08:11:46Z</time>
      </trkpt>
      <trkpt lat="45.36627" lon="5.91047">
        <ele>1338.934462014</ele>
        <time>2016-02-11T08:11:53Z</time>
      </trkpt>
      <trkpt lat="45.3664" lon="5.91046">
        <ele>1339.927331615</ele>
        <time>2016-02-11T08:12:03Z</time>
      </trkpt>
      <trkpt lat="45.36644" lon="5.91044">
        <ele>1339.927331615</ele>
        <time>2016-02-11T08:12:07Z</time>
      </trkpt>
      <trkpt lat="45.36657" lon="5.91047">
        <ele>1341.115472894</ele>
        <time>2016-02-11T08:12:17Z</time>
      </trkpt>
      <trkpt lat="45.36664" lon="5.91043">
        <ele>1341.115472894</ele>
        <time>2016-02-11T08:12:22Z</time>
      </trkpt>
      <trkpt lat="45.36662" lon="5.91043">
        <ele>1341.115472894</ele>
        <time>2016-02-11T08:12:33Z</time>
      </trkpt>
      <trkpt lat="45.36662" lon="5.91043">
        <ele>1341.115472894</ele>
        <time>2016-02-11T08:12:38Z</time>
      </trkpt>
      <trkpt lat="45.36662" lon="5.91037">
        <ele>1341.334348592</ele>
        <time>2016-02-11T08:12:48Z</time>
      </trkpt>
      <trkpt lat="45.36662" lon="5.91036">
        <ele>1341.334348592</ele>
        <time>2016-02-11T08:12:53Z</time>
      </trkpt>
      <trkpt lat="45.36661" lon="5.91037">
        <ele>1341.334348592</ele>
        <time>2016-02-11T08:13:07Z</time>
      </trkpt>
      <trkpt lat="45.36661" lon="5.91037">
        <ele>1341.334348592</ele>
        <time>2016-02-11T08:13:12Z</time>
      </trkpt>
      <trkpt lat="45.36661" lon="5.91037">
        <ele>1341.334348592</ele>
        <time>2016-02-11T08:13:22Z</time>
      </trkpt>
      <trkpt lat="45.36661" lon="5.91037">
        <ele>1341.334348592</ele>
        <time>2016-02-11T08:13:26Z</time>
      </trkpt>
      <trkpt lat="45.36661" lon="5.91038">
        <ele>1341.334348592</ele>
        <time>2016-02-11T08:13:37Z</time>
      </trkpt>
      <trkpt lat="45.36668" lon="5.91033">
        <ele>1341.238252727</ele>
        <time>2016-02-11T08:13:42Z</time>
      </trkpt>
      <trkpt lat="45.36676" lon="5.91031">
        <ele>1341.238252727</ele>
        <time>2016-02-11T08:13:52Z</time>
      </trkpt>
      <trkpt lat="45.3668" lon="5.91032">
        <ele>1341.145727117</ele>
        <time>2016-02-11T08:13:56Z</time>
      </trkpt>
      <trkpt lat="45.36684" lon="5.91035">
        <ele>1341.145727117</ele>
        <time>2016-02-11T08:14:09Z</time>
      </trkpt>
      <trkpt lat="45.36685" lon="5.91035">
        <ele>1341.145727117</ele>
        <time>2016-02-11T08:14:12Z</time>
      </trkpt>
      <trkpt lat="45.36685" lon="5.91035">
        <ele>1341.145727117</ele>
        <time>2016-02-11T08:14:18Z</time>
      </trkpt>
      <trkpt lat="45.36687" lon="5.91033">
        <ele>1341.145727117</ele>
        <time>2016-02-11T08:14:27Z</time>
      </trkpt>
      <trkpt lat="45.36688" lon="5.91034">
        <ele>1341.145727117</ele>
        <time>2016-02-11T08:14:31Z</time>
      </trkpt>
      <trkpt lat="45.36688" lon="5.91033">
        <ele>1341.145727117</ele>
        <time>2016-02-11T08:14:41Z</time>
      </trkpt>
      <trkpt lat="45.36695" lon="5.9103">
        <ele>1341.64012897</ele>
        <time>2016-02-11T08:14:47Z</time>
      </trkpt>
      <trkpt lat="45.36707" lon="5.91032">
        <ele>1342.539248802</ele>
        <time>2016-02-11T08:14:56Z</time>
      </trkpt>
      <trkpt lat="45.36713" lon="5.9103">
        <ele>1342.539248802</ele>
        <time>2016-02-11T08:15:01Z</time>
      </trkpt>
      <trkpt lat="45.36722" lon="5.91033">
        <ele>1343.528912604</ele>
        <time>2016-02-11T08:15:11Z</time>
      </trkpt>
      <trkpt lat="45.36725" lon="5.91034">
        <ele>1343.528912604</ele>
        <time>2016-02-11T08:15:16Z</time>
      </trkpt>
      <trkpt lat="45.36729" lon="5.91034">
        <ele>1343.528912604</ele>
        <time>2016-02-11T08:15:27Z</time>
      </trkpt>
      <trkpt lat="45.36729" lon="5.91033">
        <ele>1343.528912604</ele>
        <time>2016-02-11T08:15:32Z</time>
      </trkpt>
      <trkpt lat="45.36729" lon="5.91033">
        <ele>1343.528912604</ele>
        <time>2016-02-11T08:15:42Z</time>
      </trkpt>
      <trkpt lat="45.36729" lon="5.91033">
        <ele>1343.528912604</ele>
        <time>2016-02-11T08:15:48Z</time>
      </trkpt>
      <trkpt lat="45.36729" lon="5.91033">
        <ele>1343.528912604</ele>
        <time>2016-02-11T08:15:51Z</time>
      </trkpt>
      <trkpt lat="45.3674" lon="5.91027">
        <ele>1344.606059179</ele>
        <time>2016-02-11T08:16:02Z</time>
      </trkpt>
      <trkpt lat="45.36757" lon="5.91022">
        <ele>1346.199971897</ele>
        <time>2016-02-11T08:16:18Z</time>
      </trkpt>
      <trkpt lat="45.36763" lon="5.91019">
        <ele>1346.199971897</ele>
        <time>2016-02-11T08:16:22Z</time>
      </trkpt>
      <trkpt lat="45.36772" lon="5.91019">
        <ele>1347.986045227</ele>
        <time>2016-02-11T08:16:33Z</time>
      </trkpt>
      <trkpt lat="45.36775" lon="5.91016">
        <ele>1347.986045227</ele>
        <time>2016-02-11T08:16:37Z</time>
      </trkpt>
      <trkpt lat="45.36785" lon="5.91012">
        <ele>1350.095365673</ele>
        <time>2016-02-11T08:16:47Z</time>
      </trkpt>
      <trkpt lat="45.36791" lon="5.91013">
        <ele>1350.095365673</ele>
        <time>2016-02-11T08:16:53Z</time>
      </trkpt>
      <trkpt lat="45.36802" lon="5.91013">
        <ele>1351.495274334</ele>
        <time>2016-02-11T08:17:02Z</time>
      </trkpt>
      <trkpt lat="45.3681" lon="5.91012">
        <ele>1351.495274334</ele>
        <time>2016-02-11T08:17:09Z</time>
      </trkpt>
      <trkpt lat="45.36815" lon="5.9101">
        <ele>1352.095793837</ele>
        <time>2016-02-11T08:17:12Z</time>
      </trkpt>
      <trkpt lat="45.36818" lon="5.91015">
        <ele>1352.095793837</ele>
        <time>2016-02-11T08:17:18Z</time>
      </trkpt>
      <trkpt lat="45.36821" lon="5.91012">
        <ele>1352.095793837</ele>
        <time>2016-02-11T08:17:22Z</time>
      </trkpt>
      <trkpt lat="45.36824" lon="5.91015">
        <ele>1344.465093667</ele>
        <time>2016-02-11T08:17:27Z</time>
      </trkpt>
      <trkpt lat="45.36831" lon="5.91011">
        <ele>1344.465093667</ele>
        <time>2016-02-11T08:17:40Z</time>
      </trkpt>
      <trkpt lat="45.36835" lon="5.91015">
        <ele>1345.521694166</ele>
        <time>2016-02-11T08:17:43Z</time>
      </trkpt>
      <trkpt lat="45.36848" lon="5.91015">
        <ele>1347.999809608</ele>
        <time>2016-02-11T08:17:55Z</time>
      </trkpt>
      <trkpt lat="45.36848" lon="5.91015">
        <ele>1347.999809608</ele>
        <time>2016-02-11T08:17:57Z</time>
      </trkpt>
      <trkpt lat="45.36857" lon="5.91013">
        <ele>1350.496318651</ele>
        <time>2016-02-11T08:18:06Z</time>
      </trkpt>
      <trkpt lat="45.36864" lon="5.91011">
        <ele>1350.496318651</ele>
        <time>2016-02-11T08:18:12Z</time>
      </trkpt>
      <trkpt lat="45.3687" lon="5.9101">
        <ele>1353.152254962</ele>
        <time>2016-02-11T08:18:23Z</time>
      </trkpt>
      <trkpt lat="45.36873" lon="5.91013">
        <ele>1353.152254962</ele>
        <time>2016-02-11T08:18:27Z</time>
      </trkpt>
      <trkpt lat="45.3688" lon="5.91013">
        <ele>1356.241825869</ele>
        <time>2016-02-11T08:18:38Z</time>
      </trkpt>
      <trkpt lat="45.36886" lon="5.91012">
        <ele>1356.241825869</ele>
        <time>2016-02-11T08:18:41Z</time>
      </trkpt>
      <trkpt lat="45.369" lon="5.91003">
        <ele>1358.576603709</ele>
        <time>2016-02-11T08:18:52Z</time>
      </trkpt>
      <trkpt lat="45.36904" lon="5.91003">
        <ele>1358.576603709</ele>
        <time>2016-02-11T08:18:56Z</time>
      </trkpt>
      <trkpt lat="45.3691" lon="5.91003">
        <ele>1361.219233558</ele>
        <time>2016-02-11T08:19:01Z</time>
      </trkpt>
      <trkpt lat="45.36918" lon="5.91">
        <ele>1361.219233558</ele>
        <time>2016-02-11T08:19:11Z</time>
      </trkpt>
      <trkpt lat="45.3692" lon="5.90996">
        <ele>1364.144531205</ele>
        <time>2016-02-11T08:19:17Z</time>
      </trkpt>
      <trkpt lat="45.36924" lon="5.90996">
        <ele>1364.144531205</ele>
        <time>2016-02-11T08:19:26Z</time>
      </trkpt>
      <trkpt lat="45.36931" lon="5.90995">
        <ele>1367.184192526</ele>
        <time>2016-02-11T08:19:32Z</time>
      </trkpt>
      <trkpt lat="45.36933" lon="5.91">
        <ele>1367.184192526</ele>
        <time>2016-02-11T08:19:43Z</time>
      </trkpt>
      <trkpt lat="45.36934" lon="5.91001">
        <ele>1367.184192526</ele>
        <time>2016-02-11T08:19:47Z</time>
      </trkpt>
      <trkpt lat="45.36939" lon="5.91004">
        <ele>1370.758358887</ele>
        <time>2016-02-11T08:19:56Z</time>
      </trkpt>
      <trkpt lat="45.36945" lon="5.91001">
        <ele>1370.758358887</ele>
        <time>2016-02-11T08:20:01Z</time>
      </trkpt>
      <trkpt lat="45.36949" lon="5.90998">
        <ele>1374.390097081</ele>
        <time>2016-02-11T08:20:11Z</time>
      </trkpt>
      <trkpt lat="45.36948" lon="5.90997">
        <ele>1374.390097081</ele>
        <time>2016-02-11T08:20:16Z</time>
      </trkpt>
      <trkpt lat="45.36949" lon="5.90996">
        <ele>1374.390097081</ele>
        <time>2016-02-11T08:20:21Z</time>
      </trkpt>
      <trkpt lat="45.36949" lon="5.90997">
        <ele>1374.390097081</ele>
        <time>2016-02-11T08:20:26Z</time>
      </trkpt>
      <trkpt lat="45.36949" lon="5.90997">
        <ele>1374.390097081</ele>
        <time>2016-02-11T08:20:31Z</time>
      </trkpt>
      <trkpt lat="45.3695" lon="5.90997">
        <ele>1374.390097081</ele>
        <time>2016-02-11T08:20:36Z</time>
      </trkpt>
      <trkpt lat="45.36951" lon="5.90998">
        <ele>1374.390097081</ele>
        <time>2016-02-11T08:20:42Z</time>
      </trkpt>
      <trkpt lat="45.36949" lon="5.90987">
        <ele>1377.493219076</ele>
        <time>2016-02-11T08:20:53Z</time>
      </trkpt>
      <trkpt lat="45.36946" lon="5.90983">
        <ele>1377.493219076</ele>
        <time>2016-02-11T08:20:57Z</time>
      </trkpt>
      <trkpt lat="45.36936" lon="5.90978">
        <ele>1380.534865048</ele>
        <time>2016-02-11T08:21:06Z</time>
      </trkpt>
      <trkpt lat="45.36935" lon="5.90975">
        <ele>1380.534865048</ele>
        <time>2016-02-11T08:21:12Z</time>
      </trkpt>
      <trkpt lat="45.36931" lon="5.9097">
        <ele>1380.534865048</ele>
        <time>2016-02-11T08:21:21Z</time>
      </trkpt>
      <trkpt lat="45.3693" lon="5.90969">
        <ele>1380.534865048</ele>
        <time>2016-02-11T08:21:26Z</time>
      </trkpt>
      <trkpt lat="45.3693" lon="5.90968">
        <ele>1384.380382114</ele>
        <time>2016-02-11T08:21:41Z</time>
      </trkpt>
      <trkpt lat="45.36928" lon="5.90964">
        <ele>1384.380382114</ele>
        <time>2016-02-11T08:21:46Z</time>
      </trkpt>
      <trkpt lat="45.36919" lon="5.90954">
        <ele>1387.955855174</ele>
        <time>2016-02-11T08:21:57Z</time>
      </trkpt>
      <trkpt lat="45.36905" lon="5.90945">
        <ele>1392.140523016</ele>
        <time>2016-02-11T08:22:13Z</time>
      </trkpt>
      <trkpt lat="45.36903" lon="5.90944">
        <ele>1392.140523016</ele>
        <time>2016-02-11T08:22:17Z</time>
      </trkpt>
      <trkpt lat="45.36901" lon="5.90941">
        <ele>1392.140523016</ele>
        <time>2016-02-11T08:22:26Z</time>
      </trkpt>
      <trkpt lat="45.36893" lon="5.90931">
        <ele>1396.018023775</ele>
        <time>2016-02-11T08:22:42Z</time>
      </trkpt>
      <trkpt lat="45.36893" lon="5.9093">
        <ele>1396.018023775</ele>
        <time>2016-02-11T08:22:46Z</time>
      </trkpt>
      <trkpt lat="45.36885" lon="5.90923">
        <ele>1400.18137422</ele>
        <time>2016-02-11T08:22:58Z</time>
      </trkpt>
      <trkpt lat="45.36882" lon="5.90921">
        <ele>1400.18137422</ele>
        <time>2016-02-11T08:23:02Z</time>
      </trkpt>
      <trkpt lat="45.36876" lon="5.90919">
        <ele>1404.602856751</ele>
        <time>2016-02-11T08:23:13Z</time>
      </trkpt>
      <trkpt lat="45.36874" lon="5.90918">
        <ele>1404.602856751</ele>
        <time>2016-02-11T08:23:17Z</time>
      </trkpt>
      <trkpt lat="45.36868" lon="5.90912">
        <ele>1404.602856751</ele>
        <time>2016-02-11T08:23:28Z</time>
      </trkpt>
      <trkpt lat="45.36866" lon="5.90911">
        <ele>1408.967934526</ele>
        <time>2016-02-11T08:23:32Z</time>
      </trkpt>
      <trkpt lat="45.36858" lon="5.90902">
        <ele>1412.84132912</ele>
        <time>2016-02-11T08:23:46Z</time>
      </trkpt>
      <trkpt lat="45.36855" lon="5.90896">
        <ele>1412.84132912</ele>
        <time>2016-02-11T08:23:51Z</time>
      </trkpt>
      <trkpt lat="45.36847" lon="5.90894">
        <ele>1416.253580347</ele>
        <time>2016-02-11T08:24:01Z</time>
      </trkpt>
      <trkpt lat="45.36842" lon="5.9089">
        <ele>1416.253580347</ele>
        <time>2016-02-11T08:24:07Z</time>
      </trkpt>
      <trkpt lat="45.36841" lon="5.9089">
        <ele>1416.253580347</ele>
        <time>2016-02-11T08:24:11Z</time>
      </trkpt>
      <trkpt lat="45.3684" lon="5.9089">
        <ele>1416.253580347</ele>
        <time>2016-02-11T08:24:16Z</time>
      </trkpt>
      <trkpt lat="45.3684" lon="5.9089">
        <ele>1416.253580347</ele>
        <time>2016-02-11T08:24:26Z</time>
      </trkpt>
      <trkpt lat="45.3684" lon="5.9089">
        <ele>1416.253580347</ele>
        <time>2016-02-11T08:24:31Z</time>
      </trkpt>
      <trkpt lat="45.3684" lon="5.9089">
        <ele>1416.253580347</ele>
        <time>2016-02-11T08:24:41Z</time>
      </trkpt>
      <trkpt lat="45.3684" lon="5.9089">
        <ele>1416.253580347</ele>
        <time>2016-02-11T08:24:46Z</time>
      </trkpt>
      <trkpt lat="45.3684" lon="5.9089">
        <ele>1416.253580347</ele>
        <time>2016-02-11T08:24:56Z</time>
      </trkpt>
      <trkpt lat="45.3684" lon="5.9089">
        <ele>1416.253580347</ele>
        <time>2016-02-11T08:25:01Z</time>
      </trkpt>
      <trkpt lat="45.3684" lon="5.90889">
        <ele>1416.253580347</ele>
        <time>2016-02-11T08:25:11Z</time>
      </trkpt>
      <trkpt lat="45.3684" lon="5.90889">
        <ele>1416.253580347</ele>
        <time>2016-02-11T08:25:16Z</time>
      </trkpt>
      <trkpt lat="45.3684" lon="5.9089">
        <ele>1416.253580347</ele>
        <time>2016-02-11T08:25:26Z</time>
      </trkpt>
      <trkpt lat="45.3684" lon="5.9089">
        <ele>1416.253580347</ele>
        <time>2016-02-11T08:25:31Z</time>
      </trkpt>
      <trkpt lat="45.3684" lon="5.9089">
        <ele>1416.253580347</ele>
        <time>2016-02-11T08:25:46Z</time>
      </trkpt>
      <trkpt lat="45.3684" lon="5.9089">
        <ele>1416.253580347</ele>
        <time>2016-02-11T08:25:51Z</time>
      </trkpt>
      <trkpt lat="45.3684" lon="5.9089">
        <ele>1416.253580347</ele>
        <time>2016-02-11T08:26:01Z</time>
      </trkpt>
      <trkpt lat="45.3684" lon="5.9089">
        <ele>1416.253580347</ele>
        <time>2016-02-11T08:26:06Z</time>
      </trkpt>
      <trkpt lat="45.3684" lon="5.9089">
        <ele>1416.253580347</ele>
        <time>2016-02-11T08:26:16Z</time>
      </trkpt>
      <trkpt lat="45.3684" lon="5.9089">
        <ele>1416.253580347</ele>
        <time>2016-02-11T08:26:26Z</time>
      </trkpt>
      <trkpt lat="45.3684" lon="5.9089">
        <ele>1416.253580347</ele>
        <time>2016-02-11T08:26:31Z</time>
      </trkpt>
      <trkpt lat="45.3684" lon="5.9089">
        <ele>1416.253580347</ele>
        <time>2016-02-11T08:26:36Z</time>
      </trkpt>
      <trkpt lat="45.3684" lon="5.9089">
        <ele>1416.253580347</ele>
        <time>2016-02-11T08:26:41Z</time>
      </trkpt>
      <trkpt lat="45.3684" lon="5.9089">
        <ele>1416.253580347</ele>
        <time>2016-02-11T08:26:47Z</time>
      </trkpt>
      <trkpt lat="45.3684" lon="5.9089">
        <ele>1416.253580347</ele>
        <time>2016-02-11T08:26:51Z</time>
      </trkpt>
      <trkpt lat="45.3684" lon="5.9089">
        <ele>1416.253580347</ele>
        <time>2016-02-11T08:26:57Z</time>
      </trkpt>
      <trkpt lat="45.3684" lon="5.9089">
        <ele>1416.253580347</ele>
        <time>2016-02-11T08:27:01Z</time>
      </trkpt>
      <trkpt lat="45.36835" lon="5.90887">
        <ele>1418.513832165</ele>
        <time>2016-02-11T08:27:13Z</time>
      </trkpt>
      <trkpt lat="45.36831" lon="5.90883">
        <ele>1418.513832165</ele>
        <time>2016-02-11T08:27:17Z</time>
      </trkpt>
      <trkpt lat="45.36825" lon="5.90877">
        <ele>1421.147061492</ele>
        <time>2016-02-11T08:27:26Z</time>
      </trkpt>
      <trkpt lat="45.36822" lon="5.90868">
        <ele>1421.147061492</ele>
        <time>2016-02-11T08:27:33Z</time>
      </trkpt>
      <trkpt lat="45.3682" lon="5.90868">
        <ele>1421.147061492</ele>
        <time>2016-02-11T08:27:43Z</time>
      </trkpt>
      <trkpt lat="45.36815" lon="5.90865">
        <ele>1425.565305435</ele>
        <time>2016-02-11T08:27:57Z</time>
      </trkpt>
      <trkpt lat="45.36813" lon="5.90863">
        <ele>1425.565305435</ele>
        <time>2016-02-11T08:28:02Z</time>
      </trkpt>
      <trkpt lat="45.36813" lon="5.90863">
        <ele>1425.565305435</ele>
        <time>2016-02-11T08:28:06Z</time>
      </trkpt>
      <trkpt lat="45.36809" lon="5.90855">
        <ele>1425.565305435</ele>
        <time>2016-02-11T08:28:12Z</time>
      </trkpt>
      <trkpt lat="45.36802" lon="5.90849">
        <ele>1429.469122456</ele>
        <time>2016-02-11T08:28:18Z</time>
      </trkpt>
      <trkpt lat="45.36797" lon="5.90845">
        <ele>1429.469122456</ele>
        <time>2016-02-11T08:28:23Z</time>
      </trkpt>
      <trkpt lat="45.36796" lon="5.90845">
        <ele>1429.469122456</ele>
        <time>2016-02-11T08:28:28Z</time>
      </trkpt>
      <trkpt lat="45.36794" lon="5.90844">
        <ele>1429.469122456</ele>
        <time>2016-02-11T08:28:36Z</time>
      </trkpt>
      <trkpt lat="45.36787" lon="5.90845">
        <ele>1432.891287563</ele>
        <time>2016-02-11T08:28:41Z</time>
      </trkpt>
      <trkpt lat="45.36773" lon="5.90845">
        <ele>1436.007768569</ele>
        <time>2016-02-11T08:28:52Z</time>
      </trkpt>
      <trkpt lat="45.36768" lon="5.90847">
        <ele>1436.007768569</ele>
        <time>2016-02-11T08:28:57Z</time>
      </trkpt>
      <trkpt lat="45.36763" lon="5.9085">
        <ele>1438.838484766</ele>
        <time>2016-02-11T08:29:07Z</time>
      </trkpt>
      <trkpt lat="45.36763" lon="5.9085">
        <ele>1438.838484766</ele>
        <time>2016-02-11T08:29:12Z</time>
      </trkpt>
      <trkpt lat="45.36763" lon="5.90852">
        <ele>1438.838484766</ele>
        <time>2016-02-11T08:29:23Z</time>
      </trkpt>
      <trkpt lat="45.36763" lon="5.90852">
        <ele>1438.838484766</ele>
        <time>2016-02-11T08:29:27Z</time>
      </trkpt>
      <trkpt lat="45.36763" lon="5.90852">
        <ele>1438.838484766</ele>
        <time>2016-02-11T08:29:37Z</time>
      </trkpt>
      <trkpt lat="45.36763" lon="5.9085">
        <ele>1438.838484766</ele>
        <time>2016-02-11T08:29:42Z</time>
      </trkpt>
      <trkpt lat="45.36763" lon="5.90849">
        <ele>1438.838484766</ele>
        <time>2016-02-11T08:29:53Z</time>
      </trkpt>
      <trkpt lat="45.36763" lon="5.90849">
        <ele>1438.838484766</ele>
        <time>2016-02-11T08:29:58Z</time>
      </trkpt>
      <trkpt lat="45.36763" lon="5.90849">
        <ele>1438.838484766</ele>
        <time>2016-02-11T08:30:01Z</time>
      </trkpt>
      <trkpt lat="45.36763" lon="5.90849">
        <ele>1438.838484766</ele>
        <time>2016-02-11T08:30:11Z</time>
      </trkpt>
      <trkpt lat="45.36761" lon="5.90853">
        <ele>1438.838484766</ele>
        <time>2016-02-11T08:30:17Z</time>
      </trkpt>
      <trkpt lat="45.36754" lon="5.90856">
        <ele>1441.979286062</ele>
        <time>2016-02-11T08:30:26Z</time>
      </trkpt>
      <trkpt lat="45.3675" lon="5.90855">
        <ele>1441.979286062</ele>
        <time>2016-02-11T08:30:32Z</time>
      </trkpt>
      <trkpt lat="45.36743" lon="5.90849">
        <ele>1444.828594217</ele>
        <time>2016-02-11T08:30:42Z</time>
      </trkpt>
      <trkpt lat="45.36742" lon="5.90846">
        <ele>1444.828594217</ele>
        <time>2016-02-11T08:30:46Z</time>
      </trkpt>
      <trkpt lat="45.36731" lon="5.90844">
        <ele>1447.406425835</ele>
        <time>2016-02-11T08:30:56Z</time>
      </trkpt>
      <trkpt lat="45.36725" lon="5.90847">
        <ele>1447.406425835</ele>
        <time>2016-02-11T08:31:01Z</time>
      </trkpt>
      <trkpt lat="45.3672" lon="5.90844">
        <ele>1449.73220815</ele>
        <time>2016-02-11T08:31:06Z</time>
      </trkpt>
      <trkpt lat="45.36711" lon="5.90837">
        <ele>1451.824760327</ele>
        <time>2016-02-11T08:31:17Z</time>
      </trkpt>
      <trkpt lat="45.36707" lon="5.90837">
        <ele>1451.824760327</ele>
        <time>2016-02-11T08:31:21Z</time>
      </trkpt>
      <trkpt lat="45.36696" lon="5.90826">
        <ele>1452.98170662</ele>
        <time>2016-02-11T08:31:36Z</time>
      </trkpt>
      <trkpt lat="45.36696" lon="5.90824">
        <ele>1452.98170662</ele>
        <time>2016-02-11T08:31:41Z</time>
      </trkpt>
      <trkpt lat="45.3669" lon="5.90812">
        <ele>1454.140232572</ele>
        <time>2016-02-11T08:31:53Z</time>
      </trkpt>
      <trkpt lat="45.36686" lon="5.90804">
        <ele>1454.140232572</ele>
        <time>2016-02-11T08:32:02Z</time>
      </trkpt>
      <trkpt lat="45.36681" lon="5.90803">
        <ele>1455.159949813</ele>
        <time>2016-02-11T08:32:06Z</time>
      </trkpt>
      <trkpt lat="45.3668" lon="5.90801">
        <ele>1455.159949813</ele>
        <time>2016-02-11T08:32:13Z</time>
      </trkpt>
      <trkpt lat="45.36672" lon="5.9079">
        <ele>1456.199456373</ele>
        <time>2016-02-11T08:32:22Z</time>
      </trkpt>
      <trkpt lat="45.36668" lon="5.90789">
        <ele>1456.199456373</ele>
        <time>2016-02-11T08:32:28Z</time>
      </trkpt>
      <trkpt lat="45.36658" lon="5.9078">
        <ele>1457.549797203</ele>
        <time>2016-02-11T08:32:43Z</time>
      </trkpt>
      <trkpt lat="45.36653" lon="5.90775">
        <ele>1457.549797203</ele>
        <time>2016-02-11T08:32:56Z</time>
      </trkpt>
      <trkpt lat="45.36651" lon="5.90771">
        <ele>1459.335677974</ele>
        <time>2016-02-11T08:33:01Z</time>
      </trkpt>
      <trkpt lat="45.3665" lon="5.90768">
        <ele>1459.335677974</ele>
        <time>2016-02-11T08:33:07Z</time>
      </trkpt>
      <trkpt lat="45.36644" lon="5.90762">
        <ele>1460.80676074</ele>
        <time>2016-02-11T08:33:14Z</time>
      </trkpt>
      <trkpt lat="45.36644" lon="5.90761">
        <ele>1460.80676074</ele>
        <time>2016-02-11T08:33:17Z</time>
      </trkpt>
      <trkpt lat="45.36634" lon="5.90757">
        <ele>1463.286290773</ele>
        <time>2016-02-11T08:33:33Z</time>
      </trkpt>
      <trkpt lat="45.3663" lon="5.90752">
        <ele>1463.286290773</ele>
        <time>2016-02-11T08:33:37Z</time>
      </trkpt>
      <trkpt lat="45.36624" lon="5.90748">
        <ele>1465.691678833</ele>
        <time>2016-02-11T08:33:49Z</time>
      </trkpt>
      <trkpt lat="45.36622" lon="5.90746">
        <ele>1465.691678833</ele>
        <time>2016-02-11T08:33:52Z</time>
      </trkpt>
      <trkpt lat="45.3662" lon="5.90743">
        <ele>1465.691678833</ele>
        <time>2016-02-11T08:33:56Z</time>
      </trkpt>
      <trkpt lat="45.3662" lon="5.90742">
        <ele>1465.691678833</ele>
        <time>2016-02-11T08:34:07Z</time>
      </trkpt>
      <trkpt lat="45.36621" lon="5.90742">
        <ele>1465.691678833</ele>
        <time>2016-02-11T08:34:14Z</time>
      </trkpt>
      <trkpt lat="45.36624" lon="5.90741">
        <ele>1468.028853322</ele>
        <time>2016-02-11T08:34:22Z</time>
      </trkpt>
      <trkpt lat="45.36625" lon="5.90739">
        <ele>1468.028853322</ele>
        <time>2016-02-11T08:34:27Z</time>
      </trkpt>
      <trkpt lat="45.36628" lon="5.90739">
        <ele>1468.028853322</ele>
        <time>2016-02-11T08:34:38Z</time>
      </trkpt>
      <trkpt lat="45.36632" lon="5.90738">
        <ele>1468.028853322</ele>
        <time>2016-02-11T08:34:43Z</time>
      </trkpt>
      <trkpt lat="45.36635" lon="5.90737">
        <ele>1470.159378715</ele>
        <time>2016-02-11T08:34:53Z</time>
      </trkpt>
      <trkpt lat="45.36635" lon="5.90736">
        <ele>1470.159378715</ele>
        <time>2016-02-11T08:34:56Z</time>
      </trkpt>
      <trkpt lat="45.36635" lon="5.90736">
        <ele>1470.159378715</ele>
        <time>2016-02-11T08:35:07Z</time>
      </trkpt>
      <trkpt lat="45.36635" lon="5.90736">
        <ele>1470.159378715</ele>
        <time>2016-02-11T08:35:12Z</time>
      </trkpt>
      <trkpt lat="45.36635" lon="5.90736">
        <ele>1470.159378715</ele>
        <time>2016-02-11T08:35:22Z</time>
      </trkpt>
      <trkpt lat="45.36638" lon="5.90733">
        <ele>1470.159378715</ele>
        <time>2016-02-11T08:35:26Z</time>
      </trkpt>
      <trkpt lat="45.36654" lon="5.9073">
        <ele>1473.108454677</ele>
        <time>2016-02-11T08:35:43Z</time>
      </trkpt>
      <trkpt lat="45.36657" lon="5.90727">
        <ele>1473.108454677</ele>
        <time>2016-02-11T08:35:47Z</time>
      </trkpt>
      <trkpt lat="45.36659" lon="5.90726">
        <ele>1473.108454677</ele>
        <time>2016-02-11T08:35:56Z</time>
      </trkpt>
      <trkpt lat="45.3666" lon="5.90726">
        <ele>1473.108454677</ele>
        <time>2016-02-11T08:36:01Z</time>
      </trkpt>
      <trkpt lat="45.36662" lon="5.90726">
        <ele>1475.373764238</ele>
        <time>2016-02-11T08:36:13Z</time>
      </trkpt>
      <trkpt lat="45.36664" lon="5.90725">
        <ele>1475.373764238</ele>
        <time>2016-02-11T08:36:17Z</time>
      </trkpt>
      <trkpt lat="45.36665" lon="5.90726">
        <ele>1475.373764238</ele>
        <time>2016-02-11T08:36:27Z</time>
      </trkpt>
      <trkpt lat="45.36668" lon="5.90724">
        <ele>1475.373764238</ele>
        <time>2016-02-11T08:36:33Z</time>
      </trkpt>
      <trkpt lat="45.36673" lon="5.90718">
        <ele>1478.447494238</ele>
        <time>2016-02-11T08:36:41Z</time>
      </trkpt>
      <trkpt lat="45.36674" lon="5.90716">
        <ele>1478.447494238</ele>
        <time>2016-02-11T08:36:46Z</time>
      </trkpt>
      <trkpt lat="45.36679" lon="5.90714">
        <ele>1478.447494238</ele>
        <time>2016-02-11T08:37:03Z</time>
      </trkpt>
      <trkpt lat="45.36683" lon="5.90712">
        <ele>1481.692378328</ele>
        <time>2016-02-11T08:37:07Z</time>
      </trkpt>
      <trkpt lat="45.36686" lon="5.90711">
        <ele>1481.692378328</ele>
        <time>2016-02-11T08:37:18Z</time>
      </trkpt>
      <trkpt lat="45.36687" lon="5.90711">
        <ele>1481.692378328</ele>
        <time>2016-02-11T08:37:22Z</time>
      </trkpt>
      <trkpt lat="45.36687" lon="5.90711">
        <ele>1481.692378328</ele>
        <time>2016-02-11T08:37:32Z</time>
      </trkpt>
      <trkpt lat="45.36687" lon="5.90711">
        <ele>1481.692378328</ele>
        <time>2016-02-11T08:37:37Z</time>
      </trkpt>
      <trkpt lat="45.36687" lon="5.90711">
        <ele>1481.692378328</ele>
        <time>2016-02-11T08:37:51Z</time>
      </trkpt>
      <trkpt lat="45.36694" lon="5.90708">
        <ele>1485.52626267</ele>
        <time>2016-02-11T08:37:52Z</time>
      </trkpt>
      <trkpt lat="45.36705" lon="5.90709">
        <ele>1489.902317037</ele>
        <time>2016-02-11T08:38:02Z</time>
      </trkpt>
      <trkpt lat="45.36706" lon="5.9071">
        <ele>1489.902317037</ele>
        <time>2016-02-11T08:38:07Z</time>
      </trkpt>
      <trkpt lat="45.36707" lon="5.90711">
        <ele>1489.902317037</ele>
        <time>2016-02-11T08:38:19Z</time>
      </trkpt>
      <trkpt lat="45.36713" lon="5.9071">
        <ele>1493.910977188</ele>
        <time>2016-02-11T08:38:22Z</time>
      </trkpt>
      <trkpt lat="45.36719" lon="5.90708">
        <ele>1493.910977188</ele>
        <time>2016-02-11T08:38:33Z</time>
      </trkpt>
      <trkpt lat="45.3672" lon="5.90708">
        <ele>1493.910977188</ele>
        <time>2016-02-11T08:38:36Z</time>
      </trkpt>
      <trkpt lat="45.36726" lon="5.90709">
        <ele>1498.151664605</ele>
        <time>2016-02-11T08:38:52Z</time>
      </trkpt>
      <trkpt lat="45.36727" lon="5.90707">
        <ele>1498.151664605</ele>
        <time>2016-02-11T08:38:56Z</time>
      </trkpt>
      <trkpt lat="45.36728" lon="5.90706">
        <ele>1498.151664605</ele>
        <time>2016-02-11T08:39:06Z</time>
      </trkpt>
      <trkpt lat="45.36729" lon="5.90685">
        <ele>1502.02626233</ele>
        <time>2016-02-11T08:39:21Z</time>
      </trkpt>
      <trkpt lat="45.36733" lon="5.9068">
        <ele>1502.02626233</ele>
        <time>2016-02-11T08:39:27Z</time>
      </trkpt>
      <trkpt lat="45.36734" lon="5.90681">
        <ele>1502.02626233</ele>
        <time>2016-02-11T08:39:40Z</time>
      </trkpt>
      <trkpt lat="45.36734" lon="5.90681">
        <ele>1502.02626233</ele>
        <time>2016-02-11T08:39:42Z</time>
      </trkpt>
      <trkpt lat="45.36735" lon="5.90677">
        <ele>1505.990442765</ele>
        <time>2016-02-11T08:39:53Z</time>
      </trkpt>
      <trkpt lat="45.36735" lon="5.90677">
        <ele>1505.990442765</ele>
        <time>2016-02-11T08:39:56Z</time>
      </trkpt>
      <trkpt lat="45.36738" lon="5.90669">
        <ele>1505.990442765</ele>
        <time>2016-02-11T08:40:02Z</time>
      </trkpt>
      <trkpt lat="45.3674" lon="5.90665">
        <ele>1509.88976291</ele>
        <time>2016-02-11T08:40:07Z</time>
      </trkpt>
      <trkpt lat="45.36742" lon="5.90661">
        <ele>1509.88976291</ele>
        <time>2016-02-11T08:40:18Z</time>
      </trkpt>
      <trkpt lat="45.36745" lon="5.90655">
        <ele>1509.88976291</ele>
        <time>2016-02-11T08:40:23Z</time>
      </trkpt>
      <trkpt lat="45.36748" lon="5.90652">
        <ele>1513.725479778</ele>
        <time>2016-02-11T08:40:31Z</time>
      </trkpt>
      <trkpt lat="45.36748" lon="5.90649">
        <ele>1513.725479778</ele>
        <time>2016-02-11T08:40:38Z</time>
      </trkpt>
      <trkpt lat="45.3675" lon="5.90649">
        <ele>1513.725479778</ele>
        <time>2016-02-11T08:40:47Z</time>
      </trkpt>
      <trkpt lat="45.36751" lon="5.90649">
        <ele>1513.725479778</ele>
        <time>2016-02-11T08:40:53Z</time>
      </trkpt>
      <trkpt lat="45.36751" lon="5.90648">
        <ele>1513.725479778</ele>
        <time>2016-02-11T08:41:01Z</time>
      </trkpt>
      <trkpt lat="45.36753" lon="5.90642">
        <ele>1517.499003687</ele>
        <time>2016-02-11T08:41:08Z</time>
      </trkpt>
      <trkpt lat="45.36754" lon="5.90634">
        <ele>1517.499003687</ele>
        <time>2016-02-11T08:41:17Z</time>
      </trkpt>
      <trkpt lat="45.36754" lon="5.90634">
        <ele>1517.499003687</ele>
        <time>2016-02-11T08:41:22Z</time>
      </trkpt>
      <trkpt lat="45.36754" lon="5.90633">
        <ele>1517.499003687</ele>
        <time>2016-02-11T08:41:33Z</time>
      </trkpt>
      <trkpt lat="45.36754" lon="5.90633">
        <ele>1517.499003687</ele>
        <time>2016-02-11T08:41:37Z</time>
      </trkpt>
      <trkpt lat="45.3675" lon="5.90623">
        <ele>1521.500110707</ele>
        <time>2016-02-11T08:41:48Z</time>
      </trkpt>
      <trkpt lat="45.36748" lon="5.90616">
        <ele>1521.500110707</ele>
        <time>2016-02-11T08:41:52Z</time>
      </trkpt>
      <trkpt lat="45.36745" lon="5.90614">
        <ele>1525.564395264</ele>
        <time>2016-02-11T08:42:02Z</time>
      </trkpt>
      <trkpt lat="45.36744" lon="5.90613">
        <ele>1525.564395264</ele>
        <time>2016-02-11T08:42:06Z</time>
      </trkpt>
      <trkpt lat="45.36744" lon="5.90613">
        <ele>1525.564395264</ele>
        <time>2016-02-11T08:42:11Z</time>
      </trkpt>
      <trkpt lat="45.36744" lon="5.90613">
        <ele>1525.564395264</ele>
        <time>2016-02-11T08:42:21Z</time>
      </trkpt>
      <trkpt lat="45.36744" lon="5.90613">
        <ele>1525.564395264</ele>
        <time>2016-02-11T08:42:27Z</time>
      </trkpt>
      <trkpt lat="45.36744" lon="5.90613">
        <ele>1525.564395264</ele>
        <time>2016-02-11T08:42:37Z</time>
      </trkpt>
      <trkpt lat="45.36744" lon="5.90613">
        <ele>1525.564395264</ele>
        <time>2016-02-11T08:42:42Z</time>
      </trkpt>
      <trkpt lat="45.36745" lon="5.9061">
        <ele>1525.564395264</ele>
        <time>2016-02-11T08:42:53Z</time>
      </trkpt>
      <trkpt lat="45.36744" lon="5.90607">
        <ele>1525.564395264</ele>
        <time>2016-02-11T08:42:57Z</time>
      </trkpt>
      <trkpt lat="45.36745" lon="5.90605">
        <ele>1525.564395264</ele>
        <time>2016-02-11T08:43:01Z</time>
      </trkpt>
      <trkpt lat="45.36749" lon="5.90605">
        <ele>1529.683544633</ele>
        <time>2016-02-11T08:43:08Z</time>
      </trkpt>
      <trkpt lat="45.3675" lon="5.90598">
        <ele>1529.683544633</ele>
        <time>2016-02-11T08:43:13Z</time>
      </trkpt>
      <trkpt lat="45.36759" lon="5.90594">
        <ele>1533.273343301</ele>
        <time>2016-02-11T08:43:28Z</time>
      </trkpt>
      <trkpt lat="45.36758" lon="5.90596">
        <ele>1533.273343301</ele>
        <time>2016-02-11T08:43:32Z</time>
      </trkpt>
      <trkpt lat="45.36759" lon="5.90596">
        <ele>1533.273343301</ele>
        <time>2016-02-11T08:43:43Z</time>
      </trkpt>
      <trkpt lat="45.36759" lon="5.90596">
        <ele>1533.273343301</ele>
        <time>2016-02-11T08:43:47Z</time>
      </trkpt>
      <trkpt lat="45.36759" lon="5.90595">
        <ele>1533.273343301</ele>
        <time>2016-02-11T08:43:57Z</time>
      </trkpt>
      <trkpt lat="45.36759" lon="5.90595">
        <ele>1533.273343301</ele>
        <time>2016-02-11T08:44:03Z</time>
      </trkpt>
      <trkpt lat="45.36759" lon="5.90595">
        <ele>1533.273343301</ele>
        <time>2016-02-11T08:44:17Z</time>
      </trkpt>
      <trkpt lat="45.36759" lon="5.90595">
        <ele>1533.273343301</ele>
        <time>2016-02-11T08:44:28Z</time>
      </trkpt>
      <trkpt lat="45.36758" lon="5.90593">
        <ele>1533.273343301</ele>
        <time>2016-02-11T08:44:34Z</time>
      </trkpt>
      <trkpt lat="45.36759" lon="5.90583">
        <ele>1537.811623833</ele>
        <time>2016-02-11T08:44:37Z</time>
      </trkpt>
      <trkpt lat="45.36756" lon="5.90572">
        <ele>1537.811623833</ele>
        <time>2016-02-11T08:44:47Z</time>
      </trkpt>
      <trkpt lat="45.36756" lon="5.90568">
        <ele>1542.359312045</ele>
        <time>2016-02-11T08:45:01Z</time>
      </trkpt>
      <trkpt lat="45.36756" lon="5.90567">
        <ele>1542.359312045</ele>
        <time>2016-02-11T08:45:08Z</time>
      </trkpt>
      <trkpt lat="45.36757" lon="5.90565">
        <ele>1542.359312045</ele>
        <time>2016-02-11T08:45:18Z</time>
      </trkpt>
      <trkpt lat="45.3676" lon="5.90562">
        <ele>1542.359312045</ele>
        <time>2016-02-11T08:45:23Z</time>
      </trkpt>
      <trkpt lat="45.36761" lon="5.90561">
        <ele>1542.359312045</ele>
        <time>2016-02-11T08:45:33Z</time>
      </trkpt>
      <trkpt lat="45.36764" lon="5.90561">
        <ele>1547.919837872</ele>
        <time>2016-02-11T08:45:37Z</time>
      </trkpt>
      <trkpt lat="45.36764" lon="5.90563">
        <ele>1547.919837872</ele>
        <time>2016-02-11T08:45:47Z</time>
      </trkpt>
      <trkpt lat="45.36764" lon="5.90563">
        <ele>1547.919837872</ele>
        <time>2016-02-11T08:45:51Z</time>
      </trkpt>
      <trkpt lat="45.36766" lon="5.9056">
        <ele>1547.919837872</ele>
        <time>2016-02-11T08:46:02Z</time>
      </trkpt>
      <trkpt lat="45.36772" lon="5.90551">
        <ele>1552.82618407</ele>
        <time>2016-02-11T08:46:06Z</time>
      </trkpt>
      <trkpt lat="45.36777" lon="5.90549">
        <ele>1552.82618407</ele>
        <time>2016-02-11T08:46:18Z</time>
      </trkpt>
      <trkpt lat="45.36777" lon="5.90549">
        <ele>1552.82618407</ele>
        <time>2016-02-11T08:46:22Z</time>
      </trkpt>
      <trkpt lat="45.36778" lon="5.9055">
        <ele>1552.82618407</ele>
        <time>2016-02-11T08:46:26Z</time>
      </trkpt>
      <trkpt lat="45.36778" lon="5.9055">
        <ele>1552.82618407</ele>
        <time>2016-02-11T08:46:31Z</time>
      </trkpt>
      <trkpt lat="45.36781" lon="5.90546">
        <ele>1528.875111704</ele>
        <time>2016-02-11T08:46:36Z</time>
      </trkpt>
      <trkpt lat="45.36782" lon="5.90547">
        <ele>1528.875111704</ele>
        <time>2016-02-11T08:46:46Z</time>
      </trkpt>
      <trkpt lat="45.36782" lon="5.90547">
        <ele>1528.875111704</ele>
        <time>2016-02-11T08:46:51Z</time>
      </trkpt>
      <trkpt lat="45.36782" lon="5.90547">
        <ele>1528.875111704</ele>
        <time>2016-02-11T08:47:01Z</time>
      </trkpt>
      <trkpt lat="45.36782" lon="5.90547">
        <ele>1528.875111704</ele>
        <time>2016-02-11T08:47:06Z</time>
      </trkpt>
      <trkpt lat="45.36782" lon="5.90547">
        <ele>1528.875111704</ele>
        <time>2016-02-11T08:47:17Z</time>
      </trkpt>
      <trkpt lat="45.36783" lon="5.90547">
        <ele>1528.875111704</ele>
        <time>2016-02-11T08:47:22Z</time>
      </trkpt>
      <trkpt lat="45.36783" lon="5.90547">
        <ele>1528.875111704</ele>
        <time>2016-02-11T08:47:33Z</time>
      </trkpt>
      <trkpt lat="45.36783" lon="5.90547">
        <ele>1528.875111704</ele>
        <time>2016-02-11T08:47:38Z</time>
      </trkpt>
      <trkpt lat="45.36786" lon="5.90543">
        <ele>1528.875111704</ele>
        <time>2016-02-11T08:47:52Z</time>
      </trkpt>
      <trkpt lat="45.36787" lon="5.90543">
        <ele>1528.875111704</ele>
        <time>2016-02-11T08:47:58Z</time>
      </trkpt>
      <trkpt lat="45.36787" lon="5.90543">
        <ele>1528.875111704</ele>
        <time>2016-02-11T08:48:08Z</time>
      </trkpt>
      <trkpt lat="45.36787" lon="5.90543">
        <ele>1528.875111704</ele>
        <time>2016-02-11T08:48:12Z</time>
      </trkpt>
      <trkpt lat="45.36787" lon="5.90543">
        <ele>1528.875111704</ele>
        <time>2016-02-11T08:48:22Z</time>
      </trkpt>
      <trkpt lat="45.36787" lon="5.90543">
        <ele>1528.875111704</ele>
        <time>2016-02-11T08:48:27Z</time>
      </trkpt>
      <trkpt lat="45.36787" lon="5.90543">
        <ele>1528.875111704</ele>
        <time>2016-02-11T08:48:37Z</time>
      </trkpt>
      <trkpt lat="45.36787" lon="5.9054">
        <ele>1534.609474541</ele>
        <time>2016-02-11T08:48:42Z</time>
      </trkpt>
      <trkpt lat="45.3679" lon="5.90537">
        <ele>1534.609474541</ele>
        <time>2016-02-11T08:48:53Z</time>
      </trkpt>
      <trkpt lat="45.36791" lon="5.90536">
        <ele>1534.609474541</ele>
        <time>2016-02-11T08:48:57Z</time>
      </trkpt>
      <trkpt lat="45.36791" lon="5.90536">
        <ele>1534.609474541</ele>
        <time>2016-02-11T08:49:06Z</time>
      </trkpt>
      <trkpt lat="45.36791" lon="5.90536">
        <ele>1534.609474541</ele>
        <time>2016-02-11T08:49:12Z</time>
      </trkpt>
      <trkpt lat="45.36791" lon="5.90536">
        <ele>1534.609474541</ele>
        <time>2016-02-11T08:49:23Z</time>
      </trkpt>
      <trkpt lat="45.36791" lon="5.90536">
        <ele>1534.609474541</ele>
        <time>2016-02-11T08:49:27Z</time>
      </trkpt>
      <trkpt lat="45.36791" lon="5.90536">
        <ele>1534.609474541</ele>
        <time>2016-02-11T08:49:38Z</time>
      </trkpt>
      <trkpt lat="45.36791" lon="5.90536">
        <ele>1534.609474541</ele>
        <time>2016-02-11T08:49:42Z</time>
      </trkpt>
      <trkpt lat="45.36791" lon="5.90536">
        <ele>1534.609474541</ele>
        <time>2016-02-11T08:49:56Z</time>
      </trkpt>
      <trkpt lat="45.36791" lon="5.90536">
        <ele>1534.609474541</ele>
        <time>2016-02-11T08:50:02Z</time>
      </trkpt>
      <trkpt lat="45.36791" lon="5.90537">
        <ele>1534.609474541</ele>
        <time>2016-02-11T08:50:12Z</time>
      </trkpt>
      <trkpt lat="45.36791" lon="5.90537">
        <ele>1534.609474541</ele>
        <time>2016-02-11T08:50:16Z</time>
      </trkpt>
      <trkpt lat="45.36791" lon="5.90537">
        <ele>1534.609474541</ele>
        <time>2016-02-11T08:50:28Z</time>
      </trkpt>
      <trkpt lat="45.36791" lon="5.90537">
        <ele>1534.609474541</ele>
        <time>2016-02-11T08:50:32Z</time>
      </trkpt>
      <trkpt lat="45.36791" lon="5.90537">
        <ele>1534.609474541</ele>
        <time>2016-02-11T08:50:42Z</time>
      </trkpt>
      <trkpt lat="45.36791" lon="5.90537">
        <ele>1534.609474541</ele>
        <time>2016-02-11T08:50:46Z</time>
      </trkpt>
      <trkpt lat="45.36791" lon="5.90537">
        <ele>1534.609474541</ele>
        <time>2016-02-11T08:50:57Z</time>
      </trkpt>
      <trkpt lat="45.36791" lon="5.90537">
        <ele>1534.609474541</ele>
        <time>2016-02-11T08:51:02Z</time>
      </trkpt>
      <trkpt lat="45.36791" lon="5.90537">
        <ele>1534.609474541</ele>
        <time>2016-02-11T08:51:12Z</time>
      </trkpt>
      <trkpt lat="45.36791" lon="5.90537">
        <ele>1534.609474541</ele>
        <time>2016-02-11T08:51:17Z</time>
      </trkpt>
      <trkpt lat="45.36791" lon="5.90537">
        <ele>1534.609474541</ele>
        <time>2016-02-11T08:51:27Z</time>
      </trkpt>
      <trkpt lat="45.36791" lon="5.90537">
        <ele>1534.609474541</ele>
        <time>2016-02-11T08:51:32Z</time>
      </trkpt>
      <trkpt lat="45.36791" lon="5.90537">
        <ele>1534.609474541</ele>
        <time>2016-02-11T08:51:42Z</time>
      </trkpt>
      <trkpt lat="45.36791" lon="5.90537">
        <ele>1534.609474541</ele>
        <time>2016-02-11T08:51:48Z</time>
      </trkpt>
      <trkpt lat="45.36791" lon="5.90537">
        <ele>1534.609474541</ele>
        <time>2016-02-11T08:52:03Z</time>
      </trkpt>
      <trkpt lat="45.36791" lon="5.90537">
        <ele>1534.609474541</ele>
        <time>2016-02-11T08:52:17Z</time>
      </trkpt>
      <trkpt lat="45.36791" lon="5.90537">
        <ele>1534.609474541</ele>
        <time>2016-02-11T08:52:22Z</time>
      </trkpt>
      <trkpt lat="45.36791" lon="5.90537">
        <ele>1534.609474541</ele>
        <time>2016-02-11T08:52:32Z</time>
      </trkpt>
      <trkpt lat="45.36791" lon="5.90537">
        <ele>1534.609474541</ele>
        <time>2016-02-11T08:52:37Z</time>
      </trkpt>
      <trkpt lat="45.36791" lon="5.90537">
        <ele>1534.609474541</ele>
        <time>2016-02-11T08:52:48Z</time>
      </trkpt>
      <trkpt lat="45.36791" lon="5.90537">
        <ele>1534.609474541</ele>
        <time>2016-02-11T08:52:52Z</time>
      </trkpt>
      <trkpt lat="45.36791" lon="5.90537">
        <ele>1534.609474541</ele>
        <time>2016-02-11T08:53:03Z</time>
      </trkpt>
      <trkpt lat="45.36791" lon="5.90537">
        <ele>1534.609474541</ele>
        <time>2016-02-11T08:53:07Z</time>
      </trkpt>
      <trkpt lat="45.36791" lon="5.90537">
        <ele>1534.609474541</ele>
        <time>2016-02-11T08:53:16Z</time>
      </trkpt>
      <trkpt lat="45.36791" lon="5.90537">
        <ele>1534.609474541</ele>
        <time>2016-02-11T08:53:22Z</time>
      </trkpt>
      <trkpt lat="45.36791" lon="5.90537">
        <ele>1534.609474541</ele>
        <time>2016-02-11T08:53:32Z</time>
      </trkpt>
      <trkpt lat="45.36791" lon="5.90537">
        <ele>1534.609474541</ele>
        <time>2016-02-11T08:53:37Z</time>
      </trkpt>
      <trkpt lat="45.36792" lon="5.90537">
        <ele>1534.609474541</ele>
        <time>2016-02-11T08:54:10Z</time>
      </trkpt>
      <trkpt lat="45.36792" lon="5.90537">
        <ele>1534.609474541</ele>
        <time>2016-02-11T08:54:11Z</time>
      </trkpt>
      <trkpt lat="45.36793" lon="5.90538">
        <ele>1534.609474541</ele>
        <time>2016-02-11T08:54:58Z</time>
      </trkpt>
      <trkpt lat="45.36793" lon="5.90538">
        <ele>1534.609474541</ele>
        <time>2016-02-11T08:55:02Z</time>
      </trkpt>
      <trkpt lat="45.36793" lon="5.90538">
        <ele>1534.609474541</ele>
        <time>2016-02-11T08:55:12Z</time>
      </trkpt>
      <trkpt lat="45.36793" lon="5.90538">
        <ele>1534.609474541</ele>
        <time>2016-02-11T08:55:17Z</time>
      </trkpt>
      <trkpt lat="45.36793" lon="5.90538">
        <ele>1534.609474541</ele>
        <time>2016-02-11T08:55:28Z</time>
      </trkpt>
      <trkpt lat="45.36793" lon="5.90538">
        <ele>1534.609474541</ele>
        <time>2016-02-11T08:55:33Z</time>
      </trkpt>
      <trkpt lat="45.36793" lon="5.90538">
        <ele>1534.609474541</ele>
        <time>2016-02-11T08:55:41Z</time>
      </trkpt>
      <trkpt lat="45.36793" lon="5.90538">
        <ele>1534.609474541</ele>
        <time>2016-02-11T08:55:46Z</time>
      </trkpt>
      <trkpt lat="45.36798" lon="5.90534">
        <ele>1542.477248963</ele>
        <time>2016-02-11T08:55:57Z</time>
      </trkpt>
      <trkpt lat="45.368" lon="5.90532">
        <ele>1542.477248963</ele>
        <time>2016-02-11T08:56:02Z</time>
      </trkpt>
      <trkpt lat="45.36804" lon="5.90529">
        <ele>1542.477248963</ele>
        <time>2016-02-11T08:56:13Z</time>
      </trkpt>
      <trkpt lat="45.36804" lon="5.90529">
        <ele>1542.477248963</ele>
        <time>2016-02-11T08:56:17Z</time>
      </trkpt>
      <trkpt lat="45.36804" lon="5.90531">
        <ele>1542.477248963</ele>
        <time>2016-02-11T08:56:27Z</time>
      </trkpt>
      <trkpt lat="45.36803" lon="5.90527">
        <ele>1551.155045823</ele>
        <time>2016-02-11T08:56:32Z</time>
      </trkpt>
      <trkpt lat="45.36808" lon="5.90523">
        <ele>1551.155045823</ele>
        <time>2016-02-11T08:56:47Z</time>
      </trkpt>
      <trkpt lat="45.36808" lon="5.90523">
        <ele>1551.155045823</ele>
        <time>2016-02-11T08:56:52Z</time>
      </trkpt>
      <trkpt lat="45.3681" lon="5.90523">
        <ele>1551.155045823</ele>
        <time>2016-02-11T08:57:02Z</time>
      </trkpt>
      <trkpt lat="45.3681" lon="5.90522">
        <ele>1551.155045823</ele>
        <time>2016-02-11T08:57:07Z</time>
      </trkpt>
      <trkpt lat="45.3681" lon="5.90522">
        <ele>1551.155045823</ele>
        <time>2016-02-11T08:57:16Z</time>
      </trkpt>
      <trkpt lat="45.36811" lon="5.9052">
        <ele>1559.99083655</ele>
        <time>2016-02-11T08:57:21Z</time>
      </trkpt>
      <trkpt lat="45.36812" lon="5.90517">
        <ele>1559.99083655</ele>
        <time>2016-02-11T08:57:32Z</time>
      </trkpt>
      <trkpt lat="45.36813" lon="5.90516">
        <ele>1559.99083655</ele>
        <time>2016-02-11T08:57:37Z</time>
      </trkpt>
      <trkpt lat="45.36815" lon="5.90511">
        <ele>1559.99083655</ele>
        <time>2016-02-11T08:57:52Z</time>
      </trkpt>
      <trkpt lat="45.36814" lon="5.9051">
        <ele>1559.99083655</ele>
        <time>2016-02-11T08:58:02Z</time>
      </trkpt>
      <trkpt lat="45.36814" lon="5.9051">
        <ele>1559.99083655</ele>
        <time>2016-02-11T08:58:07Z</time>
      </trkpt>
      <trkpt lat="45.36814" lon="5.9051">
        <ele>1559.99083655</ele>
        <time>2016-02-11T08:58:18Z</time>
      </trkpt>
      <trkpt lat="45.36814" lon="5.9051">
        <ele>1559.99083655</ele>
        <time>2016-02-11T08:58:23Z</time>
      </trkpt>
      <trkpt lat="45.36814" lon="5.90508">
        <ele>1567.51539531</ele>
        <time>2016-02-11T08:58:27Z</time>
      </trkpt>
      <trkpt lat="45.3682" lon="5.90498">
        <ele>1574.821053287</ele>
        <time>2016-02-11T08:58:37Z</time>
      </trkpt>
      <trkpt lat="45.36821" lon="5.90491">
        <ele>1574.821053287</ele>
        <time>2016-02-11T08:58:43Z</time>
      </trkpt>
      <trkpt lat="45.36823" lon="5.9049">
        <ele>1574.821053287</ele>
        <time>2016-02-11T08:58:52Z</time>
      </trkpt>
      <trkpt lat="45.36823" lon="5.90489">
        <ele>1574.821053287</ele>
        <time>2016-02-11T08:58:56Z</time>
      </trkpt>
      <trkpt lat="45.36822" lon="5.90489">
        <ele>1574.821053287</ele>
        <time>2016-02-11T08:59:06Z</time>
      </trkpt>
      <trkpt lat="45.36822" lon="5.90489">
        <ele>1574.821053287</ele>
        <time>2016-02-11T08:59:11Z</time>
      </trkpt>
      <trkpt lat="45.36822" lon="5.90489">
        <ele>1574.821053287</ele>
        <time>2016-02-11T08:59:22Z</time>
      </trkpt>
      <trkpt lat="45.36822" lon="5.90489">
        <ele>1574.821053287</ele>
        <time>2016-02-11T08:59:26Z</time>
      </trkpt>
      <trkpt lat="45.36826" lon="5.90477">
        <ele>1584.794061029</ele>
        <time>2016-02-11T08:59:59Z</time>
      </trkpt>
      <trkpt lat="45.36826" lon="5.90477">
        <ele>1584.794061029</ele>
        <time>2016-02-11T08:59:59Z</time>
      </trkpt>
      <trkpt lat="45.36826" lon="5.90477">
        <ele>1584.794061029</ele>
        <time>2016-02-11T09:00:01Z</time>
      </trkpt>
      <trkpt lat="45.36826" lon="5.90477">
        <ele>1584.794061029</ele>
        <time>2016-02-11T09:00:25Z</time>
      </trkpt>
      <trkpt lat="45.36826" lon="5.90477">
        <ele>1584.794061029</ele>
        <time>2016-02-11T09:00:27Z</time>
      </trkpt>
      <trkpt lat="45.36829" lon="5.90469">
        <ele>1584.794061029</ele>
        <time>2016-02-11T09:00:32Z</time>
      </trkpt>
      <trkpt lat="45.36834" lon="5.90456">
        <ele>1581.078594092</ele>
        <time>2016-02-11T09:00:41Z</time>
      </trkpt>
      <trkpt lat="45.36833" lon="5.90457">
        <ele>1581.078594092</ele>
        <time>2016-02-11T09:00:47Z</time>
      </trkpt>
      <trkpt lat="45.36835" lon="5.90456">
        <ele>1581.078594092</ele>
        <time>2016-02-11T09:00:56Z</time>
      </trkpt>
      <trkpt lat="45.36835" lon="5.90456">
        <ele>1581.078594092</ele>
        <time>2016-02-11T09:01:02Z</time>
      </trkpt>
      <trkpt lat="45.36835" lon="5.90456">
        <ele>1581.078594092</ele>
        <time>2016-02-11T09:01:12Z</time>
      </trkpt>
      <trkpt lat="45.36835" lon="5.90456">
        <ele>1581.078594092</ele>
        <time>2016-02-11T09:01:16Z</time>
      </trkpt>
      <trkpt lat="45.36836" lon="5.90456">
        <ele>1581.078594092</ele>
        <time>2016-02-11T09:01:27Z</time>
      </trkpt>
      <trkpt lat="45.36836" lon="5.90456">
        <ele>1581.078594092</ele>
        <time>2016-02-11T09:01:32Z</time>
      </trkpt>
      <trkpt lat="45.36836" lon="5.90456">
        <ele>1581.078594092</ele>
        <time>2016-02-11T09:02:05Z</time>
      </trkpt>
      <trkpt lat="45.36836" lon="5.90456">
        <ele>1581.078594092</ele>
        <time>2016-02-11T09:02:06Z</time>
      </trkpt>
      <trkpt lat="45.36836" lon="5.90456">
        <ele>1581.078594092</ele>
        <time>2016-02-11T09:02:40Z</time>
      </trkpt>
      <trkpt lat="45.36836" lon="5.90456">
        <ele>1581.078594092</ele>
        <time>2016-02-11T09:02:50Z</time>
      </trkpt>
      <trkpt lat="45.36836" lon="5.90456">
        <ele>1581.078594092</ele>
        <time>2016-02-11T09:02:51Z</time>
      </trkpt>
      <trkpt lat="45.36836" lon="5.90456">
        <ele>1581.078594092</ele>
        <time>2016-02-11T09:02:56Z</time>
      </trkpt>
      <trkpt lat="45.36843" lon="5.90441">
        <ele>1590.207010816</ele>
        <time>2016-02-11T09:03:06Z</time>
      </trkpt>
      <trkpt lat="45.36845" lon="5.90431">
        <ele>1590.207010816</ele>
        <time>2016-02-11T09:03:11Z</time>
      </trkpt>
      <trkpt lat="45.36838" lon="5.9041">
        <ele>1597.960805759</ele>
        <time>2016-02-11T09:03:21Z</time>
      </trkpt>
      <trkpt lat="45.36838" lon="5.90406">
        <ele>1597.960805759</ele>
        <time>2016-02-11T09:03:26Z</time>
      </trkpt>
      <trkpt lat="45.36841" lon="5.90403">
        <ele>1597.960805759</ele>
        <time>2016-02-11T09:03:36Z</time>
      </trkpt>
      <trkpt lat="45.36841" lon="5.90403">
        <ele>1597.960805759</ele>
        <time>2016-02-11T09:03:41Z</time>
      </trkpt>
      <trkpt lat="45.36842" lon="5.90403">
        <ele>1597.960805759</ele>
        <time>2016-02-11T09:03:51Z</time>
      </trkpt>
      <trkpt lat="45.36842" lon="5.90403">
        <ele>1597.960805759</ele>
        <time>2016-02-11T09:03:56Z</time>
      </trkpt>
      <trkpt lat="45.36843" lon="5.90403">
        <ele>1604.572318566</ele>
        <time>2016-02-11T09:04:07Z</time>
      </trkpt>
      <trkpt lat="45.36843" lon="5.90403">
        <ele>1604.572318566</ele>
        <time>2016-02-11T09:04:12Z</time>
      </trkpt>
      <trkpt lat="45.36844" lon="5.90395">
        <ele>1604.572318566</ele>
        <time>2016-02-11T09:04:23Z</time>
      </trkpt>
      <trkpt lat="45.36844" lon="5.90389">
        <ele>1611.701307098</ele>
        <time>2016-02-11T09:04:28Z</time>
      </trkpt>
      <trkpt lat="45.36842" lon="5.90387">
        <ele>1611.701307098</ele>
        <time>2016-02-11T09:04:36Z</time>
      </trkpt>
      <trkpt lat="45.36844" lon="5.90388">
        <ele>1611.701307098</ele>
        <time>2016-02-11T09:04:42Z</time>
      </trkpt>
      <trkpt lat="45.36844" lon="5.90389">
        <ele>1611.701307098</ele>
        <time>2016-02-11T09:04:52Z</time>
      </trkpt>
      <trkpt lat="45.36845" lon="5.90391">
        <ele>1611.701307098</ele>
        <time>2016-02-11T09:04:57Z</time>
      </trkpt>
      <trkpt lat="45.36845" lon="5.90391">
        <ele>1611.701307098</ele>
        <time>2016-02-11T09:05:07Z</time>
      </trkpt>
      <trkpt lat="45.36845" lon="5.90391">
        <ele>1611.701307098</ele>
        <time>2016-02-11T09:05:12Z</time>
      </trkpt>
      <trkpt lat="45.36845" lon="5.90392">
        <ele>1611.701307098</ele>
        <time>2016-02-11T09:05:23Z</time>
      </trkpt>
      <trkpt lat="45.36845" lon="5.90392">
        <ele>1611.701307098</ele>
        <time>2016-02-11T09:05:27Z</time>
      </trkpt>
      <trkpt lat="45.36845" lon="5.90392">
        <ele>1611.701307098</ele>
        <time>2016-02-11T09:05:31Z</time>
      </trkpt>
      <trkpt lat="45.36843" lon="5.90393">
        <ele>1620.452013217</ele>
        <time>2016-02-11T09:05:44Z</time>
      </trkpt>
      <trkpt lat="45.36844" lon="5.90393">
        <ele>1620.452013217</ele>
        <time>2016-02-11T09:05:47Z</time>
      </trkpt>
      <trkpt lat="45.36845" lon="5.90392">
        <ele>1620.452013217</ele>
        <time>2016-02-11T09:05:58Z</time>
      </trkpt>
      <trkpt lat="45.36844" lon="5.90392">
        <ele>1620.452013217</ele>
        <time>2016-02-11T09:06:02Z</time>
      </trkpt>
      <trkpt lat="45.36841" lon="5.90395">
        <ele>1620.452013217</ele>
        <time>2016-02-11T09:06:12Z</time>
      </trkpt>
      <trkpt lat="45.36838" lon="5.90396">
        <ele>1629.969784176</ele>
        <time>2016-02-11T09:06:18Z</time>
      </trkpt>
      <trkpt lat="45.36835" lon="5.90398">
        <ele>1629.969784176</ele>
        <time>2016-02-11T09:06:28Z</time>
      </trkpt>
      <trkpt lat="45.36835" lon="5.90398">
        <ele>1629.969784176</ele>
        <time>2016-02-11T09:06:32Z</time>
      </trkpt>
      <trkpt lat="45.36835" lon="5.90398">
        <ele>1629.969784176</ele>
        <time>2016-02-11T09:06:42Z</time>
      </trkpt>
      <trkpt lat="45.36835" lon="5.90398">
        <ele>1629.969784176</ele>
        <time>2016-02-11T09:06:47Z</time>
      </trkpt>
      <trkpt lat="45.36837" lon="5.90403">
        <ele>1629.969784176</ele>
        <time>2016-02-11T09:06:58Z</time>
      </trkpt>
      <trkpt lat="45.3684" lon="5.90408">
        <ele>1640.325509513</ele>
        <time>2016-02-11T09:07:02Z</time>
      </trkpt>
      <trkpt lat="45.36828" lon="5.90409">
        <ele>1650.71812783</ele>
        <time>2016-02-11T09:07:18Z</time>
      </trkpt>
      <trkpt lat="45.36826" lon="5.90406">
        <ele>1650.71812783</ele>
        <time>2016-02-11T09:07:23Z</time>
      </trkpt>
      <trkpt lat="45.36825" lon="5.90405">
        <ele>1650.71812783</ele>
        <time>2016-02-11T09:07:31Z</time>
      </trkpt>
      <trkpt lat="45.36825" lon="5.90405">
        <ele>1650.71812783</ele>
        <time>2016-02-11T09:07:36Z</time>
      </trkpt>
      <trkpt lat="45.36825" lon="5.90406">
        <ele>1650.71812783</ele>
        <time>2016-02-11T09:07:48Z</time>
      </trkpt>
      <trkpt lat="45.36825" lon="5.90406">
        <ele>1650.71812783</ele>
        <time>2016-02-11T09:07:52Z</time>
      </trkpt>
      <trkpt lat="45.36825" lon="5.90406">
        <ele>1650.71812783</ele>
        <time>2016-02-11T09:08:02Z</time>
      </trkpt>
      <trkpt lat="45.36825" lon="5.90406">
        <ele>1650.71812783</ele>
        <time>2016-02-11T09:08:08Z</time>
      </trkpt>
      <trkpt lat="45.36827" lon="5.90421">
        <ele>1661.414406218</ele>
        <time>2016-02-11T09:08:17Z</time>
      </trkpt>
      <trkpt lat="45.3683" lon="5.90422">
        <ele>1661.414406218</ele>
        <time>2016-02-11T09:08:23Z</time>
      </trkpt>
      <trkpt lat="45.36833" lon="5.90432">
        <ele>1671.364001854</ele>
        <time>2016-02-11T09:08:33Z</time>
      </trkpt>
      <trkpt lat="45.36835" lon="5.90432">
        <ele>1671.364001854</ele>
        <time>2016-02-11T09:08:38Z</time>
      </trkpt>
      <trkpt lat="45.36835" lon="5.90431">
        <ele>1671.364001854</ele>
        <time>2016-02-11T09:08:48Z</time>
      </trkpt>
      <trkpt lat="45.36835" lon="5.90431">
        <ele>1671.364001854</ele>
        <time>2016-02-11T09:08:53Z</time>
      </trkpt>
      <trkpt lat="45.36834" lon="5.90432">
        <ele>1671.364001854</ele>
        <time>2016-02-11T09:09:02Z</time>
      </trkpt>
      <trkpt lat="45.36834" lon="5.9043">
        <ele>1671.364001854</ele>
        <time>2016-02-11T09:09:06Z</time>
      </trkpt>
      <trkpt lat="45.36835" lon="5.90432">
        <ele>1671.364001854</ele>
        <time>2016-02-11T09:09:11Z</time>
      </trkpt>
      <trkpt lat="45.36836" lon="5.90431">
        <ele>1671.364001854</ele>
        <time>2016-02-11T09:09:21Z</time>
      </trkpt>
      <trkpt lat="45.36836" lon="5.90431">
        <ele>1671.364001854</ele>
        <time>2016-02-11T09:09:26Z</time>
      </trkpt>
      <trkpt lat="45.36837" lon="5.90431">
        <ele>1671.364001854</ele>
        <time>2016-02-11T09:09:36Z</time>
      </trkpt>
      <trkpt lat="45.36837" lon="5.90431">
        <ele>1671.364001854</ele>
        <time>2016-02-11T09:09:41Z</time>
      </trkpt>
      <trkpt lat="45.36837" lon="5.90431">
        <ele>1671.364001854</ele>
        <time>2016-02-11T09:09:51Z</time>
      </trkpt>
      <trkpt lat="45.36837" lon="5.90431">
        <ele>1671.364001854</ele>
        <time>2016-02-11T09:09:56Z</time>
      </trkpt>
      <trkpt lat="45.36837" lon="5.90431">
        <ele>1671.364001854</ele>
        <time>2016-02-11T09:10:06Z</time>
      </trkpt>
      <trkpt lat="45.36837" lon="5.90431">
        <ele>1671.364001854</ele>
        <time>2016-02-11T09:10:11Z</time>
      </trkpt>
      <trkpt lat="45.36837" lon="5.90432">
        <ele>1671.364001854</ele>
        <time>2016-02-11T09:10:21Z</time>
      </trkpt>
      <trkpt lat="45.36837" lon="5.90432">
        <ele>1655.817799114</ele>
        <time>2016-02-11T09:10:27Z</time>
      </trkpt>
      <trkpt lat="45.36838" lon="5.90432">
        <ele>1655.817799114</ele>
        <time>2016-02-11T09:10:37Z</time>
      </trkpt>
      <trkpt lat="45.36838" lon="5.90433">
        <ele>1655.817799114</ele>
        <time>2016-02-11T09:10:42Z</time>
      </trkpt>
      <trkpt lat="45.3684" lon="5.90434">
        <ele>1655.817799114</ele>
        <time>2016-02-11T09:10:53Z</time>
      </trkpt>
      <trkpt lat="45.3684" lon="5.90434">
        <ele>1655.817799114</ele>
        <time>2016-02-11T09:10:57Z</time>
      </trkpt>
      <trkpt lat="45.3684" lon="5.90433">
        <ele>1655.817799114</ele>
        <time>2016-02-11T09:11:01Z</time>
      </trkpt>
      <trkpt lat="45.3684" lon="5.90434">
        <ele>1655.817799114</ele>
        <time>2016-02-11T09:11:13Z</time>
      </trkpt>
      <trkpt lat="45.3684" lon="5.90434">
        <ele>1655.817799114</ele>
        <time>2016-02-11T09:11:28Z</time>
      </trkpt>
      <trkpt lat="45.3684" lon="5.90434">
        <ele>1655.817799114</ele>
        <time>2016-02-11T09:11:32Z</time>
      </trkpt>
      <trkpt lat="45.3684" lon="5.90434">
        <ele>1655.817799114</ele>
        <time>2016-02-11T09:11:42Z</time>
      </trkpt>
      <trkpt lat="45.3684" lon="5.90434">
        <ele>1655.817799114</ele>
        <time>2016-02-11T09:11:48Z</time>
      </trkpt>
      <trkpt lat="45.3684" lon="5.90434">
        <ele>1655.817799114</ele>
        <time>2016-02-11T09:11:58Z</time>
      </trkpt>
      <trkpt lat="45.3684" lon="5.90434">
        <ele>1655.817799114</ele>
        <time>2016-02-11T09:12:02Z</time>
      </trkpt>
      <trkpt lat="45.3684" lon="5.90434">
        <ele>1655.817799114</ele>
        <time>2016-02-11T09:12:12Z</time>
      </trkpt>
      <trkpt lat="45.36841" lon="5.90434">
        <ele>1655.817799114</ele>
        <time>2016-02-11T09:12:18Z</time>
      </trkpt>
      <trkpt lat="45.36841" lon="5.90434">
        <ele>1655.817799114</ele>
        <time>2016-02-11T09:12:27Z</time>
      </trkpt>
      <trkpt lat="45.36841" lon="5.90434">
        <ele>1655.817799114</ele>
        <time>2016-02-11T09:12:33Z</time>
      </trkpt>
      <trkpt lat="45.36841" lon="5.90434">
        <ele>1655.817799114</ele>
        <time>2016-02-11T09:12:43Z</time>
      </trkpt>
      <trkpt lat="45.36841" lon="5.90434">
        <ele>1655.817799114</ele>
        <time>2016-02-11T09:12:48Z</time>
      </trkpt>
      <trkpt lat="45.36841" lon="5.90434">
        <ele>1655.817799114</ele>
        <time>2016-02-11T09:12:57Z</time>
      </trkpt>
      <trkpt lat="45.36841" lon="5.90434">
        <ele>1655.817799114</ele>
        <time>2016-02-11T09:13:02Z</time>
      </trkpt>
      <trkpt lat="45.36841" lon="5.90434">
        <ele>1655.817799114</ele>
        <time>2016-02-11T09:13:12Z</time>
      </trkpt>
      <trkpt lat="45.36841" lon="5.90434">
        <ele>1655.817799114</ele>
        <time>2016-02-11T09:13:16Z</time>
      </trkpt>
      <trkpt lat="45.36841" lon="5.90434">
        <ele>1655.817799114</ele>
        <time>2016-02-11T09:13:22Z</time>
      </trkpt>
      <trkpt lat="45.36841" lon="5.90434">
        <ele>1655.817799114</ele>
        <time>2016-02-11T09:13:27Z</time>
      </trkpt>
      <trkpt lat="45.36841" lon="5.90434">
        <ele>1655.817799114</ele>
        <time>2016-02-11T09:13:33Z</time>
      </trkpt>
      <trkpt lat="45.36841" lon="5.90434">
        <ele>1655.817799114</ele>
        <time>2016-02-11T09:13:47Z</time>
      </trkpt>
      <trkpt lat="45.36841" lon="5.90434">
        <ele>1655.817799114</ele>
        <time>2016-02-11T09:13:51Z</time>
      </trkpt>
      <trkpt lat="45.36841" lon="5.90434">
        <ele>1655.817799114</ele>
        <time>2016-02-11T09:14:02Z</time>
      </trkpt>
      <trkpt lat="45.36841" lon="5.90434">
        <ele>1655.817799114</ele>
        <time>2016-02-11T09:14:07Z</time>
      </trkpt>
      <trkpt lat="45.36841" lon="5.90434">
        <ele>1655.817799114</ele>
        <time>2016-02-11T09:14:18Z</time>
      </trkpt>
      <trkpt lat="45.36841" lon="5.90434">
        <ele>1655.817799114</ele>
        <time>2016-02-11T09:14:22Z</time>
      </trkpt>
      <trkpt lat="45.36841" lon="5.90434">
        <ele>1655.817799114</ele>
        <time>2016-02-11T09:14:32Z</time>
      </trkpt>
      <trkpt lat="45.36841" lon="5.90434">
        <ele>1655.817799114</ele>
        <time>2016-02-11T09:14:37Z</time>
      </trkpt>
      <trkpt lat="45.3684" lon="5.90433">
        <ele>1655.817799114</ele>
        <time>2016-02-11T09:14:48Z</time>
      </trkpt>
      <trkpt lat="45.36839" lon="5.90432">
        <ele>1655.817799114</ele>
        <time>2016-02-11T09:14:52Z</time>
      </trkpt>
      <trkpt lat="45.36839" lon="5.90432">
        <ele>1655.817799114</ele>
        <time>2016-02-11T09:15:03Z</time>
      </trkpt>
      <trkpt lat="45.36839" lon="5.90432">
        <ele>1655.817799114</ele>
        <time>2016-02-11T09:15:07Z</time>
      </trkpt>
      <trkpt lat="45.36848" lon="5.90431">
        <ele>1663.972181232</ele>
        <time>2016-02-11T09:15:17Z</time>
      </trkpt>
      <trkpt lat="45.36851" lon="5.90431">
        <ele>1663.972181232</ele>
        <time>2016-02-11T09:15:22Z</time>
      </trkpt>
      <trkpt lat="45.36852" lon="5.90433">
        <ele>1663.972181232</ele>
        <time>2016-02-11T09:15:32Z</time>
      </trkpt>
      <trkpt lat="45.36852" lon="5.90433">
        <ele>1663.972181232</ele>
        <time>2016-02-11T09:15:37Z</time>
      </trkpt>
      <trkpt lat="45.36858" lon="5.90431">
        <ele>1672.025897854</ele>
        <time>2016-02-11T09:15:47Z</time>
      </trkpt>
      <trkpt lat="45.36862" lon="5.9043">
        <ele>1672.025897854</ele>
        <time>2016-02-11T09:15:51Z</time>
      </trkpt>
      <trkpt lat="45.36863" lon="5.90431">
        <ele>1672.025897854</ele>
        <time>2016-02-11T09:16:03Z</time>
      </trkpt>
      <trkpt lat="45.36863" lon="5.90432">
        <ele>1672.025897854</ele>
        <time>2016-02-11T09:16:08Z</time>
      </trkpt>
      <trkpt lat="45.36862" lon="5.90433">
        <ele>1672.025897854</ele>
        <time>2016-02-11T09:16:17Z</time>
      </trkpt>
      <trkpt lat="45.36864" lon="5.90437">
        <ele>1679.399227805</ele>
        <time>2016-02-11T09:16:23Z</time>
      </trkpt>
      <trkpt lat="45.36863" lon="5.90441">
        <ele>1679.399227805</ele>
        <time>2016-02-11T09:16:32Z</time>
      </trkpt>
      <trkpt lat="45.36863" lon="5.90441">
        <ele>1679.399227805</ele>
        <time>2016-02-11T09:16:38Z</time>
      </trkpt>
      <trkpt lat="45.36863" lon="5.90442">
        <ele>1679.399227805</ele>
        <time>2016-02-11T09:16:48Z</time>
      </trkpt>
      <trkpt lat="45.36863" lon="5.90442">
        <ele>1679.399227805</ele>
        <time>2016-02-11T09:16:52Z</time>
      </trkpt>
      <trkpt lat="45.36862" lon="5.90444">
        <ele>1679.399227805</ele>
        <time>2016-02-11T09:17:06Z</time>
      </trkpt>
      <trkpt lat="45.36862" lon="5.90444">
        <ele>1679.399227805</ele>
        <time>2016-02-11T09:17:11Z</time>
      </trkpt>
      <trkpt lat="45.36862" lon="5.90444">
        <ele>1679.399227805</ele>
        <time>2016-02-11T09:17:21Z</time>
      </trkpt>
      <trkpt lat="45.36862" lon="5.90443">
        <ele>1679.399227805</ele>
        <time>2016-02-11T09:17:27Z</time>
      </trkpt>
      <trkpt lat="45.36862" lon="5.90444">
        <ele>1679.399227805</ele>
        <time>2016-02-11T09:17:38Z</time>
      </trkpt>
      <trkpt lat="45.36862" lon="5.90444">
        <ele>1679.399227805</ele>
        <time>2016-02-11T09:17:41Z</time>
      </trkpt>
      <trkpt lat="45.36862" lon="5.90444">
        <ele>1679.399227805</ele>
        <time>2016-02-11T09:17:52Z</time>
      </trkpt>
      <trkpt lat="45.36862" lon="5.90444">
        <ele>1679.399227805</ele>
        <time>2016-02-11T09:17:57Z</time>
      </trkpt>
      <trkpt lat="45.36862" lon="5.90443">
        <ele>1679.399227805</ele>
        <time>2016-02-11T09:18:07Z</time>
      </trkpt>
      <trkpt lat="45.36862" lon="5.90443">
        <ele>1679.399227805</ele>
        <time>2016-02-11T09:18:11Z</time>
      </trkpt>
      <trkpt lat="45.36862" lon="5.90443">
        <ele>1679.399227805</ele>
        <time>2016-02-11T09:18:21Z</time>
      </trkpt>
      <trkpt lat="45.36862" lon="5.90443">
        <ele>1679.399227805</ele>
        <time>2016-02-11T09:18:27Z</time>
      </trkpt>
      <trkpt lat="45.36862" lon="5.90442">
        <ele>1679.399227805</ele>
        <time>2016-02-11T09:18:37Z</time>
      </trkpt>
      <trkpt lat="45.36862" lon="5.90442">
        <ele>1679.399227805</ele>
        <time>2016-02-11T09:18:41Z</time>
      </trkpt>
      <trkpt lat="45.36863" lon="5.90443">
        <ele>1679.399227805</ele>
        <time>2016-02-11T09:18:51Z</time>
      </trkpt>
      <trkpt lat="45.36866" lon="5.90441">
        <ele>1687.430620467</ele>
        <time>2016-02-11T09:18:57Z</time>
      </trkpt>
      <trkpt lat="45.36866" lon="5.9044">
        <ele>1687.430620467</ele>
        <time>2016-02-11T09:19:07Z</time>
      </trkpt>
      <trkpt lat="45.36866" lon="5.9044">
        <ele>1687.430620467</ele>
        <time>2016-02-11T09:19:13Z</time>
      </trkpt>
      <trkpt lat="45.36866" lon="5.9044">
        <ele>1687.430620467</ele>
        <time>2016-02-11T09:19:28Z</time>
      </trkpt>
      <trkpt lat="45.36877" lon="5.90432">
        <ele>1695.629266422</ele>
        <time>2016-02-11T09:19:43Z</time>
      </trkpt>
      <trkpt lat="45.36878" lon="5.90434">
        <ele>1695.629266422</ele>
        <time>2016-02-11T09:19:48Z</time>
      </trkpt>
      <trkpt lat="45.36879" lon="5.90432">
        <ele>1695.629266422</ele>
        <time>2016-02-11T09:19:58Z</time>
      </trkpt>
      <trkpt lat="45.36879" lon="5.90432">
        <ele>1695.629266422</ele>
        <time>2016-02-11T09:20:02Z</time>
      </trkpt>
      <trkpt lat="45.3688" lon="5.90431">
        <ele>1695.629266422</ele>
        <time>2016-02-11T09:20:13Z</time>
      </trkpt>
      <trkpt lat="45.36882" lon="5.90426">
        <ele>1703.540195875</ele>
        <time>2016-02-11T09:20:17Z</time>
      </trkpt>
      <trkpt lat="45.36883" lon="5.90423">
        <ele>1703.540195875</ele>
        <time>2016-02-11T09:20:27Z</time>
      </trkpt>
      <trkpt lat="45.36882" lon="5.90424">
        <ele>1703.540195875</ele>
        <time>2016-02-11T09:20:32Z</time>
      </trkpt>
      <trkpt lat="45.36882" lon="5.90424">
        <ele>1703.540195875</ele>
        <time>2016-02-11T09:20:42Z</time>
      </trkpt>
      <trkpt lat="45.36882" lon="5.90424">
        <ele>1703.540195875</ele>
        <time>2016-02-11T09:20:46Z</time>
      </trkpt>
      <trkpt lat="45.36882" lon="5.90424">
        <ele>1703.540195875</ele>
        <time>2016-02-11T09:20:58Z</time>
      </trkpt>
      <trkpt lat="45.36882" lon="5.90424">
        <ele>1703.540195875</ele>
        <time>2016-02-11T09:21:02Z</time>
      </trkpt>
      <trkpt lat="45.36882" lon="5.90424">
        <ele>1703.540195875</ele>
        <time>2016-02-11T09:21:13Z</time>
      </trkpt>
      <trkpt lat="45.36882" lon="5.90424">
        <ele>1703.540195875</ele>
        <time>2016-02-11T09:21:17Z</time>
      </trkpt>
      <trkpt lat="45.36882" lon="5.90424">
        <ele>1703.540195875</ele>
        <time>2016-02-11T09:21:26Z</time>
      </trkpt>
      <trkpt lat="45.36882" lon="5.90424">
        <ele>1703.540195875</ele>
        <time>2016-02-11T09:21:31Z</time>
      </trkpt>
      <trkpt lat="45.36882" lon="5.90424">
        <ele>1703.540195875</ele>
        <time>2016-02-11T09:21:41Z</time>
      </trkpt>
      <trkpt lat="45.36882" lon="5.90424">
        <ele>1703.540195875</ele>
        <time>2016-02-11T09:21:47Z</time>
      </trkpt>
      <trkpt lat="45.36882" lon="5.90424">
        <ele>1703.540195875</ele>
        <time>2016-02-11T09:21:58Z</time>
      </trkpt>
      <trkpt lat="45.36882" lon="5.90424">
        <ele>1703.540195875</ele>
        <time>2016-02-11T09:22:02Z</time>
      </trkpt>
      <trkpt lat="45.36883" lon="5.90419">
        <ele>1703.540195875</ele>
        <time>2016-02-11T09:22:12Z</time>
      </trkpt>
      <trkpt lat="45.36887" lon="5.90418">
        <ele>1711.607599153</ele>
        <time>2016-02-11T09:22:18Z</time>
      </trkpt>
      <trkpt lat="45.36892" lon="5.90414">
        <ele>1711.607599153</ele>
        <time>2016-02-11T09:22:31Z</time>
      </trkpt>
      <trkpt lat="45.36891" lon="5.90413">
        <ele>1711.607599153</ele>
        <time>2016-02-11T09:22:37Z</time>
      </trkpt>
      <trkpt lat="45.36892" lon="5.90411">
        <ele>1711.607599153</ele>
        <time>2016-02-11T09:22:46Z</time>
      </trkpt>
      <trkpt lat="45.36892" lon="5.90412">
        <ele>1711.607599153</ele>
        <time>2016-02-11T09:22:53Z</time>
      </trkpt>
      <trkpt lat="45.36891" lon="5.90412">
        <ele>1711.607599153</ele>
        <time>2016-02-11T09:23:02Z</time>
      </trkpt>
      <trkpt lat="45.36891" lon="5.90412">
        <ele>1721.395763276</ele>
        <time>2016-02-11T09:23:07Z</time>
      </trkpt>
      <trkpt lat="45.36891" lon="5.90413">
        <ele>1721.395763276</ele>
        <time>2016-02-11T09:23:17Z</time>
      </trkpt>
      <trkpt lat="45.36891" lon="5.90413">
        <ele>1721.395763276</ele>
        <time>2016-02-11T09:23:21Z</time>
      </trkpt>
      <trkpt lat="45.36891" lon="5.90413">
        <ele>1721.395763276</ele>
        <time>2016-02-11T09:23:31Z</time>
      </trkpt>
      <trkpt lat="45.36891" lon="5.90413">
        <ele>1721.395763276</ele>
        <time>2016-02-11T09:23:37Z</time>
      </trkpt>
      <trkpt lat="45.36891" lon="5.90413">
        <ele>1721.395763276</ele>
        <time>2016-02-11T09:23:47Z</time>
      </trkpt>
      <trkpt lat="45.3689" lon="5.90413">
        <ele>1721.395763276</ele>
        <time>2016-02-11T09:23:52Z</time>
      </trkpt>
      <trkpt lat="45.36894" lon="5.90416">
        <ele>1721.395763276</ele>
        <time>2016-02-11T09:24:02Z</time>
      </trkpt>
      <trkpt lat="45.36893" lon="5.90417">
        <ele>1721.395763276</ele>
        <time>2016-02-11T09:24:08Z</time>
      </trkpt>
      <trkpt lat="45.36893" lon="5.90424">
        <ele>1731.755525051</ele>
        <time>2016-02-11T09:24:17Z</time>
      </trkpt>
      <trkpt lat="45.36894" lon="5.90423">
        <ele>1731.755525051</ele>
        <time>2016-02-11T09:24:23Z</time>
      </trkpt>
      <trkpt lat="45.36895" lon="5.90423">
        <ele>1731.755525051</ele>
        <time>2016-02-11T09:24:26Z</time>
      </trkpt>
      <trkpt lat="45.36895" lon="5.90423">
        <ele>1731.755525051</ele>
        <time>2016-02-11T09:24:37Z</time>
      </trkpt>
      <trkpt lat="45.36895" lon="5.90423">
        <ele>1731.755525051</ele>
        <time>2016-02-11T09:24:42Z</time>
      </trkpt>
      <trkpt lat="45.36899" lon="5.90424">
        <ele>1731.755525051</ele>
        <time>2016-02-11T09:24:52Z</time>
      </trkpt>
      <trkpt lat="45.36901" lon="5.90425">
        <ele>1731.755525051</ele>
        <time>2016-02-11T09:24:57Z</time>
      </trkpt>
      <trkpt lat="45.36902" lon="5.90425">
        <ele>1739.603279771</ele>
        <time>2016-02-11T09:25:07Z</time>
      </trkpt>
      <trkpt lat="45.36902" lon="5.90425">
        <ele>1739.603279771</ele>
        <time>2016-02-11T09:25:12Z</time>
      </trkpt>
      <trkpt lat="45.36902" lon="5.90425">
        <ele>1739.603279771</ele>
        <time>2016-02-11T09:25:23Z</time>
      </trkpt>
      <trkpt lat="45.36902" lon="5.90425">
        <ele>1739.603279771</ele>
        <time>2016-02-11T09:25:27Z</time>
      </trkpt>
      <trkpt lat="45.36902" lon="5.90425">
        <ele>1739.603279771</ele>
        <time>2016-02-11T09:25:37Z</time>
      </trkpt>
      <trkpt lat="45.36902" lon="5.90425">
        <ele>1739.603279771</ele>
        <time>2016-02-11T09:25:42Z</time>
      </trkpt>
      <trkpt lat="45.36903" lon="5.90425">
        <ele>1739.603279771</ele>
        <time>2016-02-11T09:25:51Z</time>
      </trkpt>
      <trkpt lat="45.36903" lon="5.90425">
        <ele>1739.603279771</ele>
        <time>2016-02-11T09:25:56Z</time>
      </trkpt>
      <trkpt lat="45.36903" lon="5.90425">
        <ele>1739.603279771</ele>
        <time>2016-02-11T09:26:07Z</time>
      </trkpt>
      <trkpt lat="45.36903" lon="5.90425">
        <ele>1739.603279771</ele>
        <time>2016-02-11T09:26:12Z</time>
      </trkpt>
      <trkpt lat="45.36903" lon="5.90425">
        <ele>1739.603279771</ele>
        <time>2016-02-11T09:26:22Z</time>
      </trkpt>
      <trkpt lat="45.36903" lon="5.90425">
        <ele>1739.603279771</ele>
        <time>2016-02-11T09:26:27Z</time>
      </trkpt>
      <trkpt lat="45.36903" lon="5.90425">
        <ele>1739.603279771</ele>
        <time>2016-02-11T09:26:41Z</time>
      </trkpt>
      <trkpt lat="45.36903" lon="5.90425">
        <ele>1739.603279771</ele>
        <time>2016-02-11T09:26:46Z</time>
      </trkpt>
      <trkpt lat="45.36914" lon="5.90429">
        <ele>1747.133192806</ele>
        <time>2016-02-11T09:26:57Z</time>
      </trkpt>
      <trkpt lat="45.3696" lon="5.90419">
        <ele>1775.847980241</ele>
        <time>2016-02-11T09:27:43Z</time>
      </trkpt>
      <trkpt lat="45.36962" lon="5.90422">
        <ele>1790.556513647</ele>
        <time>2016-02-11T09:28:12Z</time>
      </trkpt>
      <trkpt lat="45.36959" lon="5.90427">
        <ele>1796.296702772</ele>
        <time>2016-02-11T09:28:27Z</time>
      </trkpt>
      <trkpt lat="45.36958" lon="5.90432">
        <ele>1796.296702772</ele>
        <time>2016-02-11T09:28:31Z</time>
      </trkpt>
      <trkpt lat="45.36958" lon="5.90437">
        <ele>1796.296702772</ele>
        <time>2016-02-11T09:28:43Z</time>
      </trkpt>
      <trkpt lat="45.36958" lon="5.90438">
        <ele>1796.296702772</ele>
        <time>2016-02-11T09:28:47Z</time>
      </trkpt>
      <trkpt lat="45.36958" lon="5.90438">
        <ele>1796.296702772</ele>
        <time>2016-02-11T09:28:51Z</time>
      </trkpt>
      <trkpt lat="45.36957" lon="5.90438">
        <ele>1797.760860834</ele>
        <time>2016-02-11T09:28:58Z</time>
      </trkpt>
      <trkpt lat="45.36956" lon="5.90438">
        <ele>1797.760860834</ele>
        <time>2016-02-11T09:29:02Z</time>
      </trkpt>
      <trkpt lat="45.36956" lon="5.90438">
        <ele>1797.760860834</ele>
        <time>2016-02-11T09:29:18Z</time>
      </trkpt>
      <trkpt lat="45.36955" lon="5.90438">
        <ele>1797.760860834</ele>
        <time>2016-02-11T09:29:22Z</time>
      </trkpt>
      <trkpt lat="45.36926" lon="5.90431">
        <ele>1802.862478543</ele>
        <time>2016-02-11T09:29:33Z</time>
      </trkpt>
      <trkpt lat="45.36923" lon="5.90435">
        <ele>1812.651452789</ele>
        <time>2016-02-11T09:29:47Z</time>
      </trkpt>
      <trkpt lat="45.36925" lon="5.90433">
        <ele>1812.651452789</ele>
        <time>2016-02-11T09:29:51Z</time>
      </trkpt>
      <trkpt lat="45.36926" lon="5.90432">
        <ele>1812.651452789</ele>
        <time>2016-02-11T09:29:56Z</time>
      </trkpt>
      <trkpt lat="45.36926" lon="5.90432">
        <ele>1812.651452789</ele>
        <time>2016-02-11T09:30:01Z</time>
      </trkpt>
      <trkpt lat="45.36926" lon="5.90434">
        <ele>1812.651452789</ele>
        <time>2016-02-11T09:30:11Z</time>
      </trkpt>
      <trkpt lat="45.36926" lon="5.90434">
        <ele>1812.651452789</ele>
        <time>2016-02-11T09:30:16Z</time>
      </trkpt>
      <trkpt lat="45.36926" lon="5.90434">
        <ele>1812.651452789</ele>
        <time>2016-02-11T09:30:26Z</time>
      </trkpt>
      <trkpt lat="45.36926" lon="5.90434">
        <ele>1812.651452789</ele>
        <time>2016-02-11T09:30:31Z</time>
      </trkpt>
      <trkpt lat="45.36926" lon="5.90434">
        <ele>1812.651452789</ele>
        <time>2016-02-11T09:30:41Z</time>
      </trkpt>
      <trkpt lat="45.36926" lon="5.90434">
        <ele>1812.651452789</ele>
        <time>2016-02-11T09:30:46Z</time>
      </trkpt>
      <trkpt lat="45.36926" lon="5.90434">
        <ele>1812.651452789</ele>
        <time>2016-02-11T09:30:58Z</time>
      </trkpt>
      <trkpt lat="45.36926" lon="5.90434">
        <ele>1812.651452789</ele>
        <time>2016-02-11T09:31:01Z</time>
      </trkpt>
      <trkpt lat="45.36926" lon="5.90434">
        <ele>1812.651452789</ele>
        <time>2016-02-11T09:31:17Z</time>
      </trkpt>
      <trkpt lat="45.36926" lon="5.90434">
        <ele>1812.651452789</ele>
        <time>2016-02-11T09:31:22Z</time>
      </trkpt>
      <trkpt lat="45.36926" lon="5.90434">
        <ele>1812.651452789</ele>
        <time>2016-02-11T09:31:34Z</time>
      </trkpt>
      <trkpt lat="45.36926" lon="5.90434">
        <ele>1812.651452789</ele>
        <time>2016-02-11T09:31:38Z</time>
      </trkpt>
      <trkpt lat="45.36926" lon="5.90434">
        <ele>1812.651452789</ele>
        <time>2016-02-11T09:31:46Z</time>
      </trkpt>
      <trkpt lat="45.36926" lon="5.90434">
        <ele>1812.651452789</ele>
        <time>2016-02-11T09:31:52Z</time>
      </trkpt>
      <trkpt lat="45.36925" lon="5.90434">
        <ele>1812.651452789</ele>
        <time>2016-02-11T09:32:07Z</time>
      </trkpt>
      <trkpt lat="45.36925" lon="5.90434">
        <ele>1812.651452789</ele>
        <time>2016-02-11T09:32:25Z</time>
      </trkpt>
      <trkpt lat="45.36925" lon="5.90434">
        <ele>1812.651452789</ele>
        <time>2016-02-11T09:32:27Z</time>
      </trkpt>
      <trkpt lat="45.36925" lon="5.90434">
        <ele>1812.651452789</ele>
        <time>2016-02-11T09:32:37Z</time>
      </trkpt>
      <trkpt lat="45.36925" lon="5.90434">
        <ele>1812.651452789</ele>
        <time>2016-02-11T09:32:43Z</time>
      </trkpt>
      <trkpt lat="45.36925" lon="5.90434">
        <ele>1812.651452789</ele>
        <time>2016-02-11T09:32:52Z</time>
      </trkpt>
      <trkpt lat="45.36925" lon="5.90434">
        <ele>1812.651452789</ele>
        <time>2016-02-11T09:32:57Z</time>
      </trkpt>
      <trkpt lat="45.36925" lon="5.90434">
        <ele>1812.651452789</ele>
        <time>2016-02-11T09:33:07Z</time>
      </trkpt>
      <trkpt lat="45.36925" lon="5.90434">
        <ele>1812.651452789</ele>
        <time>2016-02-11T09:33:12Z</time>
      </trkpt>
      <trkpt lat="45.36918" lon="5.90436">
        <ele>1788.424176876</ele>
        <time>2016-02-11T09:33:23Z</time>
      </trkpt>
      <trkpt lat="45.36916" lon="5.90436">
        <ele>1788.424176876</ele>
        <time>2016-02-11T09:33:27Z</time>
      </trkpt>
      <trkpt lat="45.36916" lon="5.90436">
        <ele>1788.424176876</ele>
        <time>2016-02-11T09:33:37Z</time>
      </trkpt>
      <trkpt lat="45.36916" lon="5.90436">
        <ele>1788.424176876</ele>
        <time>2016-02-11T09:33:41Z</time>
      </trkpt>
      <trkpt lat="45.36915" lon="5.90433">
        <ele>1788.424176876</ele>
        <time>2016-02-11T09:33:53Z</time>
      </trkpt>
      <trkpt lat="45.36915" lon="5.90434">
        <ele>1788.424176876</ele>
        <time>2016-02-11T09:33:57Z</time>
      </trkpt>
      <trkpt lat="45.36914" lon="5.90434">
        <ele>1788.424176876</ele>
        <time>2016-02-11T09:34:01Z</time>
      </trkpt>
      <trkpt lat="45.36908" lon="5.90431">
        <ele>1786.388234309</ele>
        <time>2016-02-11T09:34:12Z</time>
      </trkpt>
      <trkpt lat="45.36908" lon="5.90431">
        <ele>1786.388234309</ele>
        <time>2016-02-11T09:34:18Z</time>
      </trkpt>
      <trkpt lat="45.36907" lon="5.90431">
        <ele>1786.388234309</ele>
        <time>2016-02-11T09:34:31Z</time>
      </trkpt>
      <trkpt lat="45.36907" lon="5.90431">
        <ele>1786.388234309</ele>
        <time>2016-02-11T09:34:43Z</time>
      </trkpt>
      <trkpt lat="45.36908" lon="5.90432">
        <ele>1786.388234309</ele>
        <time>2016-02-11T09:34:46Z</time>
      </trkpt>
      <trkpt lat="45.36913" lon="5.90424">
        <ele>1776.113548785</ele>
        <time>2016-02-11T09:34:51Z</time>
      </trkpt>
      <trkpt lat="45.36911" lon="5.90425">
        <ele>1776.113548785</ele>
        <time>2016-02-11T09:35:01Z</time>
      </trkpt>
      <trkpt lat="45.36911" lon="5.90425">
        <ele>1776.113548785</ele>
        <time>2016-02-11T09:35:06Z</time>
      </trkpt>
      <trkpt lat="45.36911" lon="5.90426">
        <ele>1776.113548785</ele>
        <time>2016-02-11T09:35:16Z</time>
      </trkpt>
      <trkpt lat="45.36911" lon="5.90426">
        <ele>1776.113548785</ele>
        <time>2016-02-11T09:35:21Z</time>
      </trkpt>
      <trkpt lat="45.36911" lon="5.90426">
        <ele>1776.113548785</ele>
        <time>2016-02-11T09:35:31Z</time>
      </trkpt>
      <trkpt lat="45.36911" lon="5.90426">
        <ele>1776.113548785</ele>
        <time>2016-02-11T09:35:36Z</time>
      </trkpt>
      <trkpt lat="45.36911" lon="5.90427">
        <ele>1776.113548785</ele>
        <time>2016-02-11T09:35:46Z</time>
      </trkpt>
      <trkpt lat="45.3691" lon="5.90427">
        <ele>1776.113548785</ele>
        <time>2016-02-11T09:35:51Z</time>
      </trkpt>
      <trkpt lat="45.36911" lon="5.90426">
        <ele>1776.113548785</ele>
        <time>2016-02-11T09:36:01Z</time>
      </trkpt>
      <trkpt lat="45.36911" lon="5.90426">
        <ele>1776.113548785</ele>
        <time>2016-02-11T09:36:06Z</time>
      </trkpt>
      <trkpt lat="45.36911" lon="5.90426">
        <ele>1776.113548785</ele>
        <time>2016-02-11T09:36:16Z</time>
      </trkpt>
      <trkpt lat="45.36911" lon="5.90426">
        <ele>1776.113548785</ele>
        <time>2016-02-11T09:36:21Z</time>
      </trkpt>
      <trkpt lat="45.36911" lon="5.90426">
        <ele>1776.113548785</ele>
        <time>2016-02-11T09:36:36Z</time>
      </trkpt>
      <trkpt lat="45.36911" lon="5.90426">
        <ele>1776.113548785</ele>
        <time>2016-02-11T09:36:41Z</time>
      </trkpt>
      <trkpt lat="45.3691" lon="5.90427">
        <ele>1776.113548785</ele>
        <time>2016-02-11T09:36:51Z</time>
      </trkpt>
      <trkpt lat="45.3691" lon="5.90427">
        <ele>1776.113548785</ele>
        <time>2016-02-11T09:36:56Z</time>
      </trkpt>
      <trkpt lat="45.3691" lon="5.90427">
        <ele>1776.113548785</ele>
        <time>2016-02-11T09:37:06Z</time>
      </trkpt>
      <trkpt lat="45.3691" lon="5.90427">
        <ele>1776.113548785</ele>
        <time>2016-02-11T09:37:11Z</time>
      </trkpt>
      <trkpt lat="45.3691" lon="5.90427">
        <ele>1776.113548785</ele>
        <time>2016-02-11T09:37:21Z</time>
      </trkpt>
      <trkpt lat="45.3691" lon="5.90427">
        <ele>1776.113548785</ele>
        <time>2016-02-11T09:37:26Z</time>
      </trkpt>
      <trkpt lat="45.3691" lon="5.90427">
        <ele>1776.113548785</ele>
        <time>2016-02-11T09:37:36Z</time>
      </trkpt>
      <trkpt lat="45.3691" lon="5.90427">
        <ele>1776.113548785</ele>
        <time>2016-02-11T09:37:41Z</time>
      </trkpt>
      <trkpt lat="45.3691" lon="5.90427">
        <ele>1776.113548785</ele>
        <time>2016-02-11T09:37:51Z</time>
      </trkpt>
      <trkpt lat="45.3691" lon="5.90427">
        <ele>1776.113548785</ele>
        <time>2016-02-11T09:37:56Z</time>
      </trkpt>
      <trkpt lat="45.3691" lon="5.90427">
        <ele>1776.113548785</ele>
        <time>2016-02-11T09:38:06Z</time>
      </trkpt>
      <trkpt lat="45.3691" lon="5.90427">
        <ele>1776.113548785</ele>
        <time>2016-02-11T09:38:11Z</time>
      </trkpt>
      <trkpt lat="45.3691" lon="5.90427">
        <ele>1776.113548785</ele>
        <time>2016-02-11T09:38:21Z</time>
      </trkpt>
      <trkpt lat="45.3691" lon="5.90427">
        <ele>1776.113548785</ele>
        <time>2016-02-11T09:38:26Z</time>
      </trkpt>
      <trkpt lat="45.3691" lon="5.90427">
        <ele>1776.113548785</ele>
        <time>2016-02-11T09:38:36Z</time>
      </trkpt>
      <trkpt lat="45.3691" lon="5.90427">
        <ele>1776.113548785</ele>
        <time>2016-02-11T09:38:41Z</time>
      </trkpt>
      <trkpt lat="45.3691" lon="5.90427">
        <ele>1776.113548785</ele>
        <time>2016-02-11T09:38:56Z</time>
      </trkpt>
      <trkpt lat="45.3691" lon="5.90427">
        <ele>1776.113548785</ele>
        <time>2016-02-11T09:39:01Z</time>
      </trkpt>
      <trkpt lat="45.3691" lon="5.90427">
        <ele>1776.113548785</ele>
        <time>2016-02-11T09:39:11Z</time>
      </trkpt>
      <trkpt lat="45.3691" lon="5.90427">
        <ele>1776.113548785</ele>
        <time>2016-02-11T09:39:16Z</time>
      </trkpt>
      <trkpt lat="45.3691" lon="5.90427">
        <ele>1776.113548785</ele>
        <time>2016-02-11T09:39:26Z</time>
      </trkpt>
      <trkpt lat="45.36909" lon="5.90427">
        <ele>1776.113548785</ele>
        <time>2016-02-11T09:39:32Z</time>
      </trkpt>
      <trkpt lat="45.36909" lon="5.90427">
        <ele>1776.113548785</ele>
        <time>2016-02-11T09:39:43Z</time>
      </trkpt>
      <trkpt lat="45.36909" lon="5.90427">
        <ele>1776.113548785</ele>
        <time>2016-02-11T09:39:47Z</time>
      </trkpt>
      <trkpt lat="45.36909" lon="5.90427">
        <ele>1776.113548785</ele>
        <time>2016-02-11T09:40:04Z</time>
      </trkpt>
      <trkpt lat="45.36909" lon="5.90427">
        <ele>1776.113548785</ele>
        <time>2016-02-11T09:40:16Z</time>
      </trkpt>
      <trkpt lat="45.36908" lon="5.90427">
        <ele>1776.113548785</ele>
        <time>2016-02-11T09:40:34Z</time>
      </trkpt>
      <trkpt lat="45.36908" lon="5.90427">
        <ele>1776.113548785</ele>
        <time>2016-02-11T09:40:35Z</time>
      </trkpt>
      <trkpt lat="45.36908" lon="5.90427">
        <ele>1776.113548785</ele>
        <time>2016-02-11T09:40:39Z</time>
      </trkpt>
      <trkpt lat="45.36906" lon="5.90426">
        <ele>1776.113548785</ele>
        <time>2016-02-11T09:40:46Z</time>
      </trkpt>
      <trkpt lat="45.36905" lon="5.90425">
        <ele>1774.390917458</ele>
        <time>2016-02-11T09:40:53Z</time>
      </trkpt>
      <trkpt lat="45.36903" lon="5.90424">
        <ele>1774.390917458</ele>
        <time>2016-02-11T09:41:03Z</time>
      </trkpt>
      <trkpt lat="45.36903" lon="5.90424">
        <ele>1774.390917458</ele>
        <time>2016-02-11T09:41:07Z</time>
      </trkpt>
      <trkpt lat="45.36895" lon="5.90411">
        <ele>1773.119084671</ele>
        <time>2016-02-11T09:41:17Z</time>
      </trkpt>
      <trkpt lat="45.36895" lon="5.90407">
        <ele>1773.119084671</ele>
        <time>2016-02-11T09:41:22Z</time>
      </trkpt>
      <trkpt lat="45.36893" lon="5.90394">
        <ele>1769.978205149</ele>
        <time>2016-02-11T09:41:37Z</time>
      </trkpt>
      <trkpt lat="45.36894" lon="5.90391">
        <ele>1769.978205149</ele>
        <time>2016-02-11T09:41:52Z</time>
      </trkpt>
      <trkpt lat="45.36894" lon="5.9039">
        <ele>1769.978205149</ele>
        <time>2016-02-11T09:41:58Z</time>
      </trkpt>
      <trkpt lat="45.36895" lon="5.9039">
        <ele>1769.978205149</ele>
        <time>2016-02-11T09:42:07Z</time>
      </trkpt>
      <trkpt lat="45.36895" lon="5.9039">
        <ele>1769.978205149</ele>
        <time>2016-02-11T09:42:13Z</time>
      </trkpt>
      <trkpt lat="45.36895" lon="5.9039">
        <ele>1769.978205149</ele>
        <time>2016-02-11T09:42:23Z</time>
      </trkpt>
      <trkpt lat="45.36895" lon="5.9039">
        <ele>1769.978205149</ele>
        <time>2016-02-11T09:42:28Z</time>
      </trkpt>
      <trkpt lat="45.36895" lon="5.9039">
        <ele>1769.978205149</ele>
        <time>2016-02-11T09:42:38Z</time>
      </trkpt>
      <trkpt lat="45.36895" lon="5.9039">
        <ele>1769.978205149</ele>
        <time>2016-02-11T09:42:43Z</time>
      </trkpt>
      <trkpt lat="45.36895" lon="5.9039">
        <ele>1769.978205149</ele>
        <time>2016-02-11T09:42:53Z</time>
      </trkpt>
      <trkpt lat="45.36895" lon="5.9039">
        <ele>1769.978205149</ele>
        <time>2016-02-11T09:42:58Z</time>
      </trkpt>
      <trkpt lat="45.36895" lon="5.9039">
        <ele>1769.978205149</ele>
        <time>2016-02-11T09:43:08Z</time>
      </trkpt>
      <trkpt lat="45.36896" lon="5.90388">
        <ele>1769.978205149</ele>
        <time>2016-02-11T09:43:12Z</time>
      </trkpt>
      <trkpt lat="45.36902" lon="5.90388">
        <ele>1766.138163502</ele>
        <time>2016-02-11T09:43:23Z</time>
      </trkpt>
      <trkpt lat="45.36903" lon="5.90386">
        <ele>1766.138163502</ele>
        <time>2016-02-11T09:43:27Z</time>
      </trkpt>
      <trkpt lat="45.36904" lon="5.90386">
        <ele>1766.138163502</ele>
        <time>2016-02-11T09:43:38Z</time>
      </trkpt>
      <trkpt lat="45.36903" lon="5.90387">
        <ele>1766.138163502</ele>
        <time>2016-02-11T09:43:42Z</time>
      </trkpt>
      <trkpt lat="45.36903" lon="5.90388">
        <ele>1766.138163502</ele>
        <time>2016-02-11T09:43:58Z</time>
      </trkpt>
      <trkpt lat="45.36903" lon="5.90388">
        <ele>1766.138163502</ele>
        <time>2016-02-11T09:44:01Z</time>
      </trkpt>
      <trkpt lat="45.36903" lon="5.90388">
        <ele>1766.138163502</ele>
        <time>2016-02-11T09:44:12Z</time>
      </trkpt>
      <trkpt lat="45.36903" lon="5.90388">
        <ele>1766.138163502</ele>
        <time>2016-02-11T09:44:17Z</time>
      </trkpt>
      <trkpt lat="45.36903" lon="5.90388">
        <ele>1766.138163502</ele>
        <time>2016-02-11T09:44:26Z</time>
      </trkpt>
      <trkpt lat="45.36903" lon="5.90388">
        <ele>1766.138163502</ele>
        <time>2016-02-11T09:44:32Z</time>
      </trkpt>
      <trkpt lat="45.36903" lon="5.90388">
        <ele>1766.138163502</ele>
        <time>2016-02-11T09:44:41Z</time>
      </trkpt>
      <trkpt lat="45.36903" lon="5.90388">
        <ele>1766.138163502</ele>
        <time>2016-02-11T09:44:47Z</time>
      </trkpt>
      <trkpt lat="45.36903" lon="5.90388">
        <ele>1766.138163502</ele>
        <time>2016-02-11T09:44:58Z</time>
      </trkpt>
      <trkpt lat="45.36903" lon="5.90388">
        <ele>1766.138163502</ele>
        <time>2016-02-11T09:45:02Z</time>
      </trkpt>
      <trkpt lat="45.36903" lon="5.90388">
        <ele>1766.138163502</ele>
        <time>2016-02-11T09:45:13Z</time>
      </trkpt>
      <trkpt lat="45.36903" lon="5.90388">
        <ele>1766.138163502</ele>
        <time>2016-02-11T09:45:17Z</time>
      </trkpt>
      <trkpt lat="45.36908" lon="5.90386">
        <ele>1766.138163502</ele>
        <time>2016-02-11T09:45:27Z</time>
      </trkpt>
      <trkpt lat="45.3691" lon="5.90386">
        <ele>1763.260796723</ele>
        <time>2016-02-11T09:45:33Z</time>
      </trkpt>
      <trkpt lat="45.36916" lon="5.90387">
        <ele>1763.260796723</ele>
        <time>2016-02-11T09:45:43Z</time>
      </trkpt>
      <trkpt lat="45.36918" lon="5.90387">
        <ele>1763.260796723</ele>
        <time>2016-02-11T09:45:47Z</time>
      </trkpt>
      <trkpt lat="45.3692" lon="5.90387">
        <ele>1761.153287009</ele>
        <time>2016-02-11T09:45:58Z</time>
      </trkpt>
      <trkpt lat="45.3692" lon="5.90387">
        <ele>1761.153287009</ele>
        <time>2016-02-11T09:46:02Z</time>
      </trkpt>
      <trkpt lat="45.3692" lon="5.90387">
        <ele>1761.153287009</ele>
        <time>2016-02-11T09:46:18Z</time>
      </trkpt>
      <trkpt lat="45.36922" lon="5.90385">
        <ele>1761.153287009</ele>
        <time>2016-02-11T09:46:22Z</time>
      </trkpt>
      <trkpt lat="45.36929" lon="5.90378">
        <ele>1760.066588692</ele>
        <time>2016-02-11T09:46:33Z</time>
      </trkpt>
      <trkpt lat="45.36929" lon="5.90376">
        <ele>1760.066588692</ele>
        <time>2016-02-11T09:46:37Z</time>
      </trkpt>
      <trkpt lat="45.36933" lon="5.90373">
        <ele>1760.066588692</ele>
        <time>2016-02-11T09:46:48Z</time>
      </trkpt>
      <trkpt lat="45.36931" lon="5.90375">
        <ele>1760.066588692</ele>
        <time>2016-02-11T09:46:52Z</time>
      </trkpt>
      <trkpt lat="45.36931" lon="5.90375">
        <ele>1760.066588692</ele>
        <time>2016-02-11T09:47:01Z</time>
      </trkpt>
      <trkpt lat="45.36931" lon="5.90375">
        <ele>1760.066588692</ele>
        <time>2016-02-11T09:47:07Z</time>
      </trkpt>
      <trkpt lat="45.36931" lon="5.90375">
        <ele>1760.066588692</ele>
        <time>2016-02-11T09:47:16Z</time>
      </trkpt>
      <trkpt lat="45.36931" lon="5.90375">
        <ele>1760.066588692</ele>
        <time>2016-02-11T09:47:21Z</time>
      </trkpt>
      <trkpt lat="45.36931" lon="5.90375">
        <ele>1760.066588692</ele>
        <time>2016-02-11T09:47:32Z</time>
      </trkpt>
      <trkpt lat="45.36931" lon="5.90375">
        <ele>1760.066588692</ele>
        <time>2016-02-11T09:47:38Z</time>
      </trkpt>
      <trkpt lat="45.36931" lon="5.90375">
        <ele>1760.066588692</ele>
        <time>2016-02-11T09:47:48Z</time>
      </trkpt>
      <trkpt lat="45.36931" lon="5.90375">
        <ele>1760.066588692</ele>
        <time>2016-02-11T09:47:52Z</time>
      </trkpt>
      <trkpt lat="45.36931" lon="5.90375">
        <ele>1760.066588692</ele>
        <time>2016-02-11T09:48:08Z</time>
      </trkpt>
      <trkpt lat="45.36931" lon="5.90375">
        <ele>1760.066588692</ele>
        <time>2016-02-11T09:48:12Z</time>
      </trkpt>
      <trkpt lat="45.36931" lon="5.90375">
        <ele>1760.066588692</ele>
        <time>2016-02-11T09:48:23Z</time>
      </trkpt>
      <trkpt lat="45.36931" lon="5.90375">
        <ele>1760.066588692</ele>
        <time>2016-02-11T09:48:28Z</time>
      </trkpt>
      <trkpt lat="45.36931" lon="5.90375">
        <ele>1760.066588692</ele>
        <time>2016-02-11T09:48:37Z</time>
      </trkpt>
      <trkpt lat="45.3693" lon="5.90368">
        <ele>1760.373889144</ele>
        <time>2016-02-11T09:48:43Z</time>
      </trkpt>
      <trkpt lat="45.36928" lon="5.90369">
        <ele>1760.373889144</ele>
        <time>2016-02-11T09:48:53Z</time>
      </trkpt>
      <trkpt lat="45.36928" lon="5.90369">
        <ele>1760.373889144</ele>
        <time>2016-02-11T09:48:57Z</time>
      </trkpt>
      <trkpt lat="45.36928" lon="5.90369">
        <ele>1760.373889144</ele>
        <time>2016-02-11T09:49:08Z</time>
      </trkpt>
      <trkpt lat="45.36928" lon="5.90369">
        <ele>1760.373889144</ele>
        <time>2016-02-11T09:49:12Z</time>
      </trkpt>
      <trkpt lat="45.36928" lon="5.90369">
        <ele>1760.373889144</ele>
        <time>2016-02-11T09:49:23Z</time>
      </trkpt>
      <trkpt lat="45.36928" lon="5.90369">
        <ele>1760.373889144</ele>
        <time>2016-02-11T09:49:27Z</time>
      </trkpt>
      <trkpt lat="45.36928" lon="5.90369">
        <ele>1760.373889144</ele>
        <time>2016-02-11T09:49:31Z</time>
      </trkpt>
      <trkpt lat="45.36929" lon="5.90369">
        <ele>1760.373889144</ele>
        <time>2016-02-11T09:49:43Z</time>
      </trkpt>
      <trkpt lat="45.36929" lon="5.90369">
        <ele>1760.373889144</ele>
        <time>2016-02-11T09:49:47Z</time>
      </trkpt>
      <trkpt lat="45.36929" lon="5.90369">
        <ele>1760.373889144</ele>
        <time>2016-02-11T09:49:57Z</time>
      </trkpt>
      <trkpt lat="45.36929" lon="5.90369">
        <ele>1760.373889144</ele>
        <time>2016-02-11T09:50:02Z</time>
      </trkpt>
      <trkpt lat="45.36929" lon="5.90369">
        <ele>1760.373889144</ele>
        <time>2016-02-11T09:50:13Z</time>
      </trkpt>
      <trkpt lat="45.36929" lon="5.90369">
        <ele>1760.373889144</ele>
        <time>2016-02-11T09:50:17Z</time>
      </trkpt>
      <trkpt lat="45.36929" lon="5.90369">
        <ele>1760.373889144</ele>
        <time>2016-02-11T09:50:26Z</time>
      </trkpt>
      <trkpt lat="45.36929" lon="5.90369">
        <ele>1760.373889144</ele>
        <time>2016-02-11T09:50:32Z</time>
      </trkpt>
      <trkpt lat="45.36929" lon="5.90369">
        <ele>1760.373889144</ele>
        <time>2016-02-11T09:50:43Z</time>
      </trkpt>
      <trkpt lat="45.36929" lon="5.90369">
        <ele>1760.373889144</ele>
        <time>2016-02-11T09:50:47Z</time>
      </trkpt>
      <trkpt lat="45.36929" lon="5.90369">
        <ele>1760.373889144</ele>
        <time>2016-02-11T09:50:58Z</time>
      </trkpt>
      <trkpt lat="45.36929" lon="5.90369">
        <ele>1760.373889144</ele>
        <time>2016-02-11T09:51:02Z</time>
      </trkpt>
      <trkpt lat="45.36929" lon="5.90369">
        <ele>1760.373889144</ele>
        <time>2016-02-11T09:51:13Z</time>
      </trkpt>
      <trkpt lat="45.36929" lon="5.90369">
        <ele>1760.373889144</ele>
        <time>2016-02-11T09:51:17Z</time>
      </trkpt>
      <trkpt lat="45.36929" lon="5.90369">
        <ele>1760.373889144</ele>
        <time>2016-02-11T09:51:32Z</time>
      </trkpt>
      <trkpt lat="45.36929" lon="5.90369">
        <ele>1760.373889144</ele>
        <time>2016-02-11T09:51:37Z</time>
      </trkpt>
      <trkpt lat="45.36929" lon="5.90369">
        <ele>1760.373889144</ele>
        <time>2016-02-11T09:51:46Z</time>
      </trkpt>
      <trkpt lat="45.36929" lon="5.90369">
        <ele>1760.373889144</ele>
        <time>2016-02-11T09:51:51Z</time>
      </trkpt>
      <trkpt lat="45.36929" lon="5.90369">
        <ele>1760.373889144</ele>
        <time>2016-02-11T09:52:01Z</time>
      </trkpt>
      <trkpt lat="45.36929" lon="5.90369">
        <ele>1760.373889144</ele>
        <time>2016-02-11T09:52:06Z</time>
      </trkpt>
      <trkpt lat="45.36929" lon="5.90369">
        <ele>1760.373889144</ele>
        <time>2016-02-11T09:52:16Z</time>
      </trkpt>
      <trkpt lat="45.36929" lon="5.90369">
        <ele>1760.373889144</ele>
        <time>2016-02-11T09:52:23Z</time>
      </trkpt>
      <trkpt lat="45.36929" lon="5.90369">
        <ele>1760.373889144</ele>
        <time>2016-02-11T09:52:32Z</time>
      </trkpt>
      <trkpt lat="45.36929" lon="5.90369">
        <ele>1760.373889144</ele>
        <time>2016-02-11T09:52:37Z</time>
      </trkpt>
      <trkpt lat="45.36929" lon="5.90368">
        <ele>1760.373889144</ele>
        <time>2016-02-11T09:52:47Z</time>
      </trkpt>
      <trkpt lat="45.36924" lon="5.90354">
        <ele>1760.975356427</ele>
        <time>2016-02-11T09:52:51Z</time>
      </trkpt>
      <trkpt lat="45.36912" lon="5.90338">
        <ele>1762.003438528</ele>
        <time>2016-02-11T09:53:03Z</time>
      </trkpt>
      <trkpt lat="45.36903" lon="5.90335">
        <ele>1763.867316022</ele>
        <time>2016-02-11T09:53:33Z</time>
      </trkpt>
      <trkpt lat="45.36903" lon="5.90335">
        <ele>1763.867316022</ele>
        <time>2016-02-11T09:53:36Z</time>
      </trkpt>
      <trkpt lat="45.36894" lon="5.90326">
        <ele>1765.502110108</ele>
        <time>2016-02-11T09:53:51Z</time>
      </trkpt>
      <trkpt lat="45.36891" lon="5.90323">
        <ele>1765.502110108</ele>
        <time>2016-02-11T09:53:52Z</time>
      </trkpt>
      <trkpt lat="45.36886" lon="5.90316">
        <ele>1766.209507287</ele>
        <time>2016-02-11T09:53:58Z</time>
      </trkpt>
      <trkpt lat="45.36886" lon="5.90314">
        <ele>1766.209507287</ele>
        <time>2016-02-11T09:54:12Z</time>
      </trkpt>
      <trkpt lat="45.36886" lon="5.90314">
        <ele>1766.209507287</ele>
        <time>2016-02-11T09:54:12Z</time>
      </trkpt>
      <trkpt lat="45.36887" lon="5.90314">
        <ele>1766.209507287</ele>
        <time>2016-02-11T09:54:30Z</time>
      </trkpt>
      <trkpt lat="45.36887" lon="5.90314">
        <ele>1766.209507287</ele>
        <time>2016-02-11T09:54:31Z</time>
      </trkpt>
      <trkpt lat="45.36887" lon="5.90314">
        <ele>1766.209507287</ele>
        <time>2016-02-11T09:54:47Z</time>
      </trkpt>
      <trkpt lat="45.36887" lon="5.90313">
        <ele>1766.209507287</ele>
        <time>2016-02-11T09:55:03Z</time>
      </trkpt>
      <trkpt lat="45.36887" lon="5.90313">
        <ele>1766.209507287</ele>
        <time>2016-02-11T09:55:03Z</time>
      </trkpt>
      <trkpt lat="45.36887" lon="5.90313">
        <ele>1766.209507287</ele>
        <time>2016-02-11T09:55:06Z</time>
      </trkpt>
      <trkpt lat="45.36884" lon="5.90303">
        <ele>1765.632808865</ele>
        <time>2016-02-11T09:55:16Z</time>
      </trkpt>
      <trkpt lat="45.36885" lon="5.90303">
        <ele>1765.632808865</ele>
        <time>2016-02-11T09:55:21Z</time>
      </trkpt>
      <trkpt lat="45.36884" lon="5.90302">
        <ele>1765.632808865</ele>
        <time>2016-02-11T09:55:31Z</time>
      </trkpt>
      <trkpt lat="45.36884" lon="5.90302">
        <ele>1765.632808865</ele>
        <time>2016-02-11T09:55:36Z</time>
      </trkpt>
      <trkpt lat="45.36884" lon="5.90302">
        <ele>1765.632808865</ele>
        <time>2016-02-11T09:55:41Z</time>
      </trkpt>
      <trkpt lat="45.36884" lon="5.90303">
        <ele>1765.632808865</ele>
        <time>2016-02-11T09:55:46Z</time>
      </trkpt>
      <trkpt lat="45.36884" lon="5.90302">
        <ele>1765.632808865</ele>
        <time>2016-02-11T09:55:51Z</time>
      </trkpt>
      <trkpt lat="45.36884" lon="5.90303">
        <ele>1765.632808865</ele>
        <time>2016-02-11T09:55:56Z</time>
      </trkpt>
      <trkpt lat="45.36884" lon="5.90302">
        <ele>1765.632808865</ele>
        <time>2016-02-11T09:56:01Z</time>
      </trkpt>
      <trkpt lat="45.36884" lon="5.90302">
        <ele>1765.632808865</ele>
        <time>2016-02-11T09:56:11Z</time>
      </trkpt>
      <trkpt lat="45.36884" lon="5.90302">
        <ele>1765.632808865</ele>
        <time>2016-02-11T09:56:17Z</time>
      </trkpt>
      <trkpt lat="45.36884" lon="5.90302">
        <ele>1765.632808865</ele>
        <time>2016-02-11T09:56:26Z</time>
      </trkpt>
      <trkpt lat="45.36884" lon="5.90302">
        <ele>1765.632808865</ele>
        <time>2016-02-11T09:56:33Z</time>
      </trkpt>
      <trkpt lat="45.36884" lon="5.90302">
        <ele>1765.632808865</ele>
        <time>2016-02-11T09:56:36Z</time>
      </trkpt>
      <trkpt lat="45.36884" lon="5.90302">
        <ele>1765.632808865</ele>
        <time>2016-02-11T09:56:42Z</time>
      </trkpt>
      <trkpt lat="45.36884" lon="5.90302">
        <ele>1765.632808865</ele>
        <time>2016-02-11T09:56:51Z</time>
      </trkpt>
      <trkpt lat="45.36886" lon="5.90298">
        <ele>1765.632808865</ele>
        <time>2016-02-11T09:56:56Z</time>
      </trkpt>
      <trkpt lat="45.36886" lon="5.90296">
        <ele>1765.632808865</ele>
        <time>2016-02-11T09:57:01Z</time>
      </trkpt>
      <trkpt lat="45.36887" lon="5.90297">
        <ele>1765.632808865</ele>
        <time>2016-02-11T09:57:06Z</time>
      </trkpt>
      <trkpt lat="45.36887" lon="5.90297">
        <ele>1765.632808865</ele>
        <time>2016-02-11T09:57:19Z</time>
      </trkpt>
      <trkpt lat="45.36887" lon="5.90297">
        <ele>1765.632808865</ele>
        <time>2016-02-11T09:57:21Z</time>
      </trkpt>
      <trkpt lat="45.36887" lon="5.90297">
        <ele>1765.632808865</ele>
        <time>2016-02-11T09:57:32Z</time>
      </trkpt>
      <trkpt lat="45.36887" lon="5.90297">
        <ele>1765.632808865</ele>
        <time>2016-02-11T09:57:37Z</time>
      </trkpt>
      <trkpt lat="45.36887" lon="5.90298">
        <ele>1765.632808865</ele>
        <time>2016-02-11T09:57:47Z</time>
      </trkpt>
      <trkpt lat="45.36887" lon="5.90298">
        <ele>1765.632808865</ele>
        <time>2016-02-11T09:57:53Z</time>
      </trkpt>
      <trkpt lat="45.36887" lon="5.90298">
        <ele>1765.632808865</ele>
        <time>2016-02-11T09:58:02Z</time>
      </trkpt>
      <trkpt lat="45.36887" lon="5.90298">
        <ele>1765.632808865</ele>
        <time>2016-02-11T09:58:07Z</time>
      </trkpt>
      <trkpt lat="45.36887" lon="5.90298">
        <ele>1765.632808865</ele>
        <time>2016-02-11T09:58:24Z</time>
      </trkpt>
      <trkpt lat="45.36887" lon="5.90298">
        <ele>1765.632808865</ele>
        <time>2016-02-11T09:58:37Z</time>
      </trkpt>
      <trkpt lat="45.36887" lon="5.90298">
        <ele>1765.632808865</ele>
        <time>2016-02-11T09:58:42Z</time>
      </trkpt>
      <trkpt lat="45.36887" lon="5.90298">
        <ele>1765.632808865</ele>
        <time>2016-02-11T09:58:49Z</time>
      </trkpt>
      <trkpt lat="45.36887" lon="5.90298">
        <ele>1765.632808865</ele>
        <time>2016-02-11T09:58:55Z</time>
      </trkpt>
      <trkpt lat="45.36887" lon="5.90298">
        <ele>1766.038632561</ele>
        <time>2016-02-11T09:58:57Z</time>
      </trkpt>
      <trkpt lat="45.36886" lon="5.90298">
        <ele>1766.038632561</ele>
        <time>2016-02-11T09:59:08Z</time>
      </trkpt>
      <trkpt lat="45.36886" lon="5.90298">
        <ele>1766.038632561</ele>
        <time>2016-02-11T09:59:12Z</time>
      </trkpt>
      <trkpt lat="45.36885" lon="5.90298">
        <ele>1766.038632561</ele>
        <time>2016-02-11T09:59:23Z</time>
      </trkpt>
      <trkpt lat="45.36885" lon="5.90298">
        <ele>1766.038632561</ele>
        <time>2016-02-11T09:59:27Z</time>
      </trkpt>
      <trkpt lat="45.36885" lon="5.90298">
        <ele>1766.038632561</ele>
        <time>2016-02-11T09:59:39Z</time>
      </trkpt>
      <trkpt lat="45.36885" lon="5.90298">
        <ele>1766.038632561</ele>
        <time>2016-02-11T09:59:42Z</time>
      </trkpt>
      <trkpt lat="45.36885" lon="5.90298">
        <ele>1766.038632561</ele>
        <time>2016-02-11T09:59:57Z</time>
      </trkpt>
      <trkpt lat="45.36885" lon="5.90298">
        <ele>1766.038632561</ele>
        <time>2016-02-11T10:00:01Z</time>
      </trkpt>
      <trkpt lat="45.36885" lon="5.90298">
        <ele>1766.038632561</ele>
        <time>2016-02-11T10:00:13Z</time>
      </trkpt>
      <trkpt lat="45.36885" lon="5.90298">
        <ele>1766.038632561</ele>
        <time>2016-02-11T10:00:16Z</time>
      </trkpt>
      <trkpt lat="45.36884" lon="5.90298">
        <ele>1766.038632561</ele>
        <time>2016-02-11T10:00:28Z</time>
      </trkpt>
      <trkpt lat="45.36884" lon="5.90298">
        <ele>1766.038632561</ele>
        <time>2016-02-11T10:00:33Z</time>
      </trkpt>
      <trkpt lat="45.36884" lon="5.90298">
        <ele>1766.038632561</ele>
        <time>2016-02-11T10:00:41Z</time>
      </trkpt>
      <trkpt lat="45.36874" lon="5.90274">
        <ele>1766.209302178</ele>
        <time>2016-02-11T10:00:46Z</time>
      </trkpt>
      <trkpt lat="45.36852" lon="5.90275">
        <ele>1767.322566623</ele>
        <time>2016-02-11T10:00:57Z</time>
      </trkpt>
      <trkpt lat="45.36849" lon="5.90279">
        <ele>1767.322566623</ele>
        <time>2016-02-11T10:01:03Z</time>
      </trkpt>
      <trkpt lat="45.36846" lon="5.90279">
        <ele>1767.322566623</ele>
        <time>2016-02-11T10:01:07Z</time>
      </trkpt>
      <trkpt lat="45.36845" lon="5.90278">
        <ele>1767.322566623</ele>
        <time>2016-02-11T10:01:13Z</time>
      </trkpt>
      <trkpt lat="45.36837" lon="5.90282">
        <ele>1769.313677656</ele>
        <time>2016-02-11T10:01:16Z</time>
      </trkpt>
      <trkpt lat="45.36837" lon="5.90285">
        <ele>1769.313677656</ele>
        <time>2016-02-11T10:01:21Z</time>
      </trkpt>
      <trkpt lat="45.36837" lon="5.90285">
        <ele>1769.313677656</ele>
        <time>2016-02-11T10:01:27Z</time>
      </trkpt>
      <trkpt lat="45.36837" lon="5.90284">
        <ele>1769.313677656</ele>
        <time>2016-02-11T10:01:37Z</time>
      </trkpt>
      <trkpt lat="45.36837" lon="5.90284">
        <ele>1769.313677656</ele>
        <time>2016-02-11T10:01:42Z</time>
      </trkpt>
      <trkpt lat="45.36837" lon="5.90284">
        <ele>1769.313677656</ele>
        <time>2016-02-11T10:01:51Z</time>
      </trkpt>
      <trkpt lat="45.36837" lon="5.90284">
        <ele>1769.313677656</ele>
        <time>2016-02-11T10:01:57Z</time>
      </trkpt>
      <trkpt lat="45.36837" lon="5.90284">
        <ele>1769.313677656</ele>
        <time>2016-02-11T10:02:08Z</time>
      </trkpt>
      <trkpt lat="45.36837" lon="5.90284">
        <ele>1769.313677656</ele>
        <time>2016-02-11T10:02:12Z</time>
      </trkpt>
      <trkpt lat="45.36837" lon="5.90284">
        <ele>1769.313677656</ele>
        <time>2016-02-11T10:02:23Z</time>
      </trkpt>
      <trkpt lat="45.36837" lon="5.90284">
        <ele>1769.313677656</ele>
        <time>2016-02-11T10:02:27Z</time>
      </trkpt>
      <trkpt lat="45.36837" lon="5.90284">
        <ele>1769.313677656</ele>
        <time>2016-02-11T10:02:41Z</time>
      </trkpt>
      <trkpt lat="45.36837" lon="5.90284">
        <ele>1769.313677656</ele>
        <time>2016-02-11T10:02:46Z</time>
      </trkpt>
      <trkpt lat="45.36837" lon="5.90284">
        <ele>1769.313677656</ele>
        <time>2016-02-11T10:02:56Z</time>
      </trkpt>
      <trkpt lat="45.36837" lon="5.90284">
        <ele>1769.313677656</ele>
        <time>2016-02-11T10:03:01Z</time>
      </trkpt>
      <trkpt lat="45.36837" lon="5.90285">
        <ele>1769.313677656</ele>
        <time>2016-02-11T10:03:11Z</time>
      </trkpt>
      <trkpt lat="45.36837" lon="5.90285">
        <ele>1769.313677656</ele>
        <time>2016-02-11T10:03:16Z</time>
      </trkpt>
      <trkpt lat="45.36837" lon="5.90285">
        <ele>1769.313677656</ele>
        <time>2016-02-11T10:03:26Z</time>
      </trkpt>
      <trkpt lat="45.36837" lon="5.90285">
        <ele>1769.313677656</ele>
        <time>2016-02-11T10:03:32Z</time>
      </trkpt>
      <trkpt lat="45.36837" lon="5.90285">
        <ele>1769.313677656</ele>
        <time>2016-02-11T10:03:43Z</time>
      </trkpt>
      <trkpt lat="45.36837" lon="5.90285">
        <ele>1769.313677656</ele>
        <time>2016-02-11T10:03:47Z</time>
      </trkpt>
      <trkpt lat="45.36837" lon="5.90285">
        <ele>1769.313677656</ele>
        <time>2016-02-11T10:03:57Z</time>
      </trkpt>
      <trkpt lat="45.36837" lon="5.90285">
        <ele>1769.313677656</ele>
        <time>2016-02-11T10:04:02Z</time>
      </trkpt>
      <trkpt lat="45.36837" lon="5.90285">
        <ele>1769.313677656</ele>
        <time>2016-02-11T10:04:12Z</time>
      </trkpt>
      <trkpt lat="45.36837" lon="5.90285">
        <ele>1769.313677656</ele>
        <time>2016-02-11T10:04:17Z</time>
      </trkpt>
      <trkpt lat="45.36837" lon="5.90285">
        <ele>1769.313677656</ele>
        <time>2016-02-11T10:04:27Z</time>
      </trkpt>
      <trkpt lat="45.36837" lon="5.90285">
        <ele>1769.313677656</ele>
        <time>2016-02-11T10:04:31Z</time>
      </trkpt>
      <trkpt lat="45.36837" lon="5.90285">
        <ele>1769.313677656</ele>
        <time>2016-02-11T10:04:48Z</time>
      </trkpt>
      <trkpt lat="45.36837" lon="5.90285">
        <ele>1769.313677656</ele>
        <time>2016-02-11T10:04:51Z</time>
      </trkpt>
      <trkpt lat="45.36837" lon="5.90285">
        <ele>1769.313677656</ele>
        <time>2016-02-11T10:05:01Z</time>
      </trkpt>
      <trkpt lat="45.36837" lon="5.90285">
        <ele>1769.313677656</ele>
        <time>2016-02-11T10:05:07Z</time>
      </trkpt>
      <trkpt lat="45.36837" lon="5.90285">
        <ele>1769.313677656</ele>
        <time>2016-02-11T10:05:16Z</time>
      </trkpt>
      <trkpt lat="45.36837" lon="5.90285">
        <ele>1769.313677656</ele>
        <time>2016-02-11T10:05:22Z</time>
      </trkpt>
      <trkpt lat="45.36837" lon="5.90285">
        <ele>1769.313677656</ele>
        <time>2016-02-11T10:05:31Z</time>
      </trkpt>
      <trkpt lat="45.36837" lon="5.90285">
        <ele>1769.313677656</ele>
        <time>2016-02-11T10:05:37Z</time>
      </trkpt>
      <trkpt lat="45.36837" lon="5.90285">
        <ele>1769.313677656</ele>
        <time>2016-02-11T10:05:48Z</time>
      </trkpt>
      <trkpt lat="45.36837" lon="5.90285">
        <ele>1769.313677656</ele>
        <time>2016-02-11T10:05:51Z</time>
      </trkpt>
      <trkpt lat="45.36837" lon="5.90285">
        <ele>1769.313677656</ele>
        <time>2016-02-11T10:06:03Z</time>
      </trkpt>
      <trkpt lat="45.36837" lon="5.90285">
        <ele>1769.313677656</ele>
        <time>2016-02-11T10:06:07Z</time>
      </trkpt>
      <trkpt lat="45.36837" lon="5.90285">
        <ele>1769.313677656</ele>
        <time>2016-02-11T10:06:24Z</time>
      </trkpt>
      <trkpt lat="45.36837" lon="5.90285">
        <ele>1769.313677656</ele>
        <time>2016-02-11T10:06:27Z</time>
      </trkpt>
      <trkpt lat="45.36837" lon="5.90285">
        <ele>1769.313677656</ele>
        <time>2016-02-11T10:06:48Z</time>
      </trkpt>
      <trkpt lat="45.36837" lon="5.90285">
        <ele>1769.313677656</ele>
        <time>2016-02-11T10:06:48Z</time>
      </trkpt>
      <trkpt lat="45.36837" lon="5.90285">
        <ele>1769.313677656</ele>
        <time>2016-02-11T10:07:00Z</time>
      </trkpt>
      <trkpt lat="45.36837" lon="5.90285">
        <ele>1769.313677656</ele>
        <time>2016-02-11T10:07:01Z</time>
      </trkpt>
      <trkpt lat="45.36837" lon="5.90285">
        <ele>1769.313677656</ele>
        <time>2016-02-11T10:07:20Z</time>
      </trkpt>
      <trkpt lat="45.36836" lon="5.90285">
        <ele>1769.313677656</ele>
        <time>2016-02-11T10:07:31Z</time>
      </trkpt>
      <trkpt lat="45.36836" lon="5.90285">
        <ele>1769.313677656</ele>
        <time>2016-02-11T10:07:46Z</time>
      </trkpt>
      <trkpt lat="45.36836" lon="5.90285">
        <ele>1769.313677656</ele>
        <time>2016-02-11T10:08:03Z</time>
      </trkpt>
      <trkpt lat="45.36836" lon="5.90285">
        <ele>1769.313677656</ele>
        <time>2016-02-11T10:08:06Z</time>
      </trkpt>
      <trkpt lat="45.36836" lon="5.90285">
        <ele>1769.313677656</ele>
        <time>2016-02-11T10:08:22Z</time>
      </trkpt>
      <trkpt lat="45.36836" lon="5.90285">
        <ele>1769.313677656</ele>
        <time>2016-02-11T10:08:22Z</time>
      </trkpt>
      <trkpt lat="45.36836" lon="5.90285">
        <ele>1769.313677656</ele>
        <time>2016-02-11T10:08:26Z</time>
      </trkpt>
      <trkpt lat="45.36836" lon="5.90285">
        <ele>1769.313677656</ele>
        <time>2016-02-11T10:08:38Z</time>
      </trkpt>
      <trkpt lat="45.36836" lon="5.90283">
        <ele>1769.313677656</ele>
        <time>2016-02-11T10:08:43Z</time>
      </trkpt>
      <trkpt lat="45.36831" lon="5.90271">
        <ele>1772.119755729</ele>
        <time>2016-02-11T10:08:52Z</time>
      </trkpt>
      <trkpt lat="45.36828" lon="5.90267">
        <ele>1772.119755729</ele>
        <time>2016-02-11T10:08:58Z</time>
      </trkpt>
      <trkpt lat="45.36829" lon="5.90255">
        <ele>1774.238742088</ele>
        <time>2016-02-11T10:09:07Z</time>
      </trkpt>
      <trkpt lat="45.36829" lon="5.90252">
        <ele>1774.238742088</ele>
        <time>2016-02-11T10:09:12Z</time>
      </trkpt>
      <trkpt lat="45.3683" lon="5.90251">
        <ele>1774.238742088</ele>
        <time>2016-02-11T10:09:27Z</time>
      </trkpt>
      <trkpt lat="45.36829" lon="5.90251">
        <ele>1774.238742088</ele>
        <time>2016-02-11T10:09:42Z</time>
      </trkpt>
      <trkpt lat="45.3683" lon="5.90251">
        <ele>1774.238742088</ele>
        <time>2016-02-11T10:09:47Z</time>
      </trkpt>
      <trkpt lat="45.3683" lon="5.90251">
        <ele>1774.238742088</ele>
        <time>2016-02-11T10:09:56Z</time>
      </trkpt>
      <trkpt lat="45.3683" lon="5.90251">
        <ele>1774.238742088</ele>
        <time>2016-02-11T10:10:01Z</time>
      </trkpt>
      <trkpt lat="45.3683" lon="5.90251">
        <ele>1774.238742088</ele>
        <time>2016-02-11T10:10:11Z</time>
      </trkpt>
      <trkpt lat="45.3683" lon="5.90251">
        <ele>1774.238742088</ele>
        <time>2016-02-11T10:10:17Z</time>
      </trkpt>
      <trkpt lat="45.3683" lon="5.90251">
        <ele>1774.238742088</ele>
        <time>2016-02-11T10:10:27Z</time>
      </trkpt>
      <trkpt lat="45.3683" lon="5.90251">
        <ele>1774.238742088</ele>
        <time>2016-02-11T10:10:32Z</time>
      </trkpt>
      <trkpt lat="45.3683" lon="5.90251">
        <ele>1774.238742088</ele>
        <time>2016-02-11T10:10:42Z</time>
      </trkpt>
      <trkpt lat="45.3683" lon="5.90251">
        <ele>1774.238742088</ele>
        <time>2016-02-11T10:10:46Z</time>
      </trkpt>
      <trkpt lat="45.3683" lon="5.90251">
        <ele>1774.238742088</ele>
        <time>2016-02-11T10:10:57Z</time>
      </trkpt>
      <trkpt lat="45.3683" lon="5.90251">
        <ele>1774.238742088</ele>
        <time>2016-02-11T10:11:02Z</time>
      </trkpt>
      <trkpt lat="45.3683" lon="5.90251">
        <ele>1774.238742088</ele>
        <time>2016-02-11T10:11:12Z</time>
      </trkpt>
      <trkpt lat="45.3683" lon="5.90251">
        <ele>1774.238742088</ele>
        <time>2016-02-11T10:11:16Z</time>
      </trkpt>
      <trkpt lat="45.3683" lon="5.90251">
        <ele>1774.238742088</ele>
        <time>2016-02-11T10:11:27Z</time>
      </trkpt>
      <trkpt lat="45.3683" lon="5.90251">
        <ele>1774.238742088</ele>
        <time>2016-02-11T10:11:32Z</time>
      </trkpt>
      <trkpt lat="45.3683" lon="5.90251">
        <ele>1774.238742088</ele>
        <time>2016-02-11T10:11:43Z</time>
      </trkpt>
      <trkpt lat="45.3683" lon="5.90251">
        <ele>1774.238742088</ele>
        <time>2016-02-11T10:11:47Z</time>
      </trkpt>
      <trkpt lat="45.3683" lon="5.90251">
        <ele>1774.238742088</ele>
        <time>2016-02-11T10:12:03Z</time>
      </trkpt>
      <trkpt lat="45.3683" lon="5.90251">
        <ele>1774.238742088</ele>
        <time>2016-02-11T10:12:08Z</time>
      </trkpt>
      <trkpt lat="45.3683" lon="5.90252">
        <ele>1774.238742088</ele>
        <time>2016-02-11T10:12:17Z</time>
      </trkpt>
      <trkpt lat="45.3683" lon="5.90252">
        <ele>1774.238742088</ele>
        <time>2016-02-11T10:12:22Z</time>
      </trkpt>
      <trkpt lat="45.3683" lon="5.90252">
        <ele>1774.238742088</ele>
        <time>2016-02-11T10:12:32Z</time>
      </trkpt>
      <trkpt lat="45.3683" lon="5.90252">
        <ele>1774.238742088</ele>
        <time>2016-02-11T10:12:37Z</time>
      </trkpt>
      <trkpt lat="45.3683" lon="5.90252">
        <ele>1774.238742088</ele>
        <time>2016-02-11T10:12:47Z</time>
      </trkpt>
      <trkpt lat="45.3683" lon="5.90252">
        <ele>1774.238742088</ele>
        <time>2016-02-11T10:12:53Z</time>
      </trkpt>
      <trkpt lat="45.3683" lon="5.90252">
        <ele>1774.238742088</ele>
        <time>2016-02-11T10:13:02Z</time>
      </trkpt>
      <trkpt lat="45.3683" lon="5.90252">
        <ele>1774.238742088</ele>
        <time>2016-02-11T10:13:08Z</time>
      </trkpt>
      <trkpt lat="45.3683" lon="5.90252">
        <ele>1774.238742088</ele>
        <time>2016-02-11T10:13:22Z</time>
      </trkpt>
      <trkpt lat="45.3683" lon="5.90252">
        <ele>1774.238742088</ele>
        <time>2016-02-11T10:13:33Z</time>
      </trkpt>
      <trkpt lat="45.3683" lon="5.90252">
        <ele>1774.238742088</ele>
        <time>2016-02-11T10:13:37Z</time>
      </trkpt>
      <trkpt lat="45.3683" lon="5.90252">
        <ele>1774.238742088</ele>
        <time>2016-02-11T10:13:42Z</time>
      </trkpt>
      <trkpt lat="45.3683" lon="5.90252">
        <ele>1774.238742088</ele>
        <time>2016-02-11T10:13:52Z</time>
      </trkpt>
      <trkpt lat="45.3683" lon="5.90252">
        <ele>1774.238742088</ele>
        <time>2016-02-11T10:13:56Z</time>
      </trkpt>
      <trkpt lat="45.3683" lon="5.90252">
        <ele>1774.238742088</ele>
        <time>2016-02-11T10:14:09Z</time>
      </trkpt>
      <trkpt lat="45.3683" lon="5.90252">
        <ele>1774.238742088</ele>
        <time>2016-02-11T10:14:11Z</time>
      </trkpt>
      <trkpt lat="45.36827" lon="5.90247">
        <ele>1777.018586507</ele>
        <time>2016-02-11T10:14:57Z</time>
      </trkpt>
      <trkpt lat="45.36818" lon="5.9023">
        <ele>1779.112021674</ele>
        <time>2016-02-11T10:15:13Z</time>
      </trkpt>
      <trkpt lat="45.36818" lon="5.9023">
        <ele>1779.112021674</ele>
        <time>2016-02-11T10:15:27Z</time>
      </trkpt>
      <trkpt lat="45.36818" lon="5.9023">
        <ele>1779.112021674</ele>
        <time>2016-02-11T10:15:31Z</time>
      </trkpt>
      <trkpt lat="45.36818" lon="5.9023">
        <ele>1779.112021674</ele>
        <time>2016-02-11T10:15:45Z</time>
      </trkpt>
      <trkpt lat="45.36818" lon="5.9023">
        <ele>1779.112021674</ele>
        <time>2016-02-11T10:15:47Z</time>
      </trkpt>
      <trkpt lat="45.36818" lon="5.9023">
        <ele>1779.112021674</ele>
        <time>2016-02-11T10:15:57Z</time>
      </trkpt>
      <trkpt lat="45.36818" lon="5.9023">
        <ele>1779.112021674</ele>
        <time>2016-02-11T10:16:03Z</time>
      </trkpt>
      <trkpt lat="45.36818" lon="5.9023">
        <ele>1779.112021674</ele>
        <time>2016-02-11T10:16:12Z</time>
      </trkpt>
      <trkpt lat="45.36818" lon="5.9023">
        <ele>1779.112021674</ele>
        <time>2016-02-11T10:16:18Z</time>
      </trkpt>
      <trkpt lat="45.36818" lon="5.9023">
        <ele>1779.112021674</ele>
        <time>2016-02-11T10:16:28Z</time>
      </trkpt>
      <trkpt lat="45.36818" lon="5.9023">
        <ele>1779.112021674</ele>
        <time>2016-02-11T10:16:32Z</time>
      </trkpt>
      <trkpt lat="45.36818" lon="5.9023">
        <ele>1779.112021674</ele>
        <time>2016-02-11T10:16:42Z</time>
      </trkpt>
      <trkpt lat="45.36818" lon="5.9023">
        <ele>1779.112021674</ele>
        <time>2016-02-11T10:16:48Z</time>
      </trkpt>
      <trkpt lat="45.36818" lon="5.9023">
        <ele>1779.112021674</ele>
        <time>2016-02-11T10:16:58Z</time>
      </trkpt>
      <trkpt lat="45.36818" lon="5.90229">
        <ele>1779.112021674</ele>
        <time>2016-02-11T10:17:02Z</time>
      </trkpt>
      <trkpt lat="45.36817" lon="5.90229">
        <ele>1779.112021674</ele>
        <time>2016-02-11T10:17:16Z</time>
      </trkpt>
      <trkpt lat="45.36814" lon="5.90221">
        <ele>1779.112021674</ele>
        <time>2016-02-11T10:17:22Z</time>
      </trkpt>
      <trkpt lat="45.36815" lon="5.90223">
        <ele>1780.137025833</ele>
        <time>2016-02-11T10:17:31Z</time>
      </trkpt>
      <trkpt lat="45.36811" lon="5.90226">
        <ele>1780.137025833</ele>
        <time>2016-02-11T10:17:36Z</time>
      </trkpt>
      <trkpt lat="45.36796" lon="5.90244">
        <ele>1782.480458133</ele>
        <time>2016-02-11T10:17:47Z</time>
      </trkpt>
      <trkpt lat="45.36796" lon="5.90242">
        <ele>1782.480458133</ele>
        <time>2016-02-11T10:17:53Z</time>
      </trkpt>
      <trkpt lat="45.36794" lon="5.90244">
        <ele>1782.480458133</ele>
        <time>2016-02-11T10:18:03Z</time>
      </trkpt>
      <trkpt lat="45.36794" lon="5.90244">
        <ele>1782.480458133</ele>
        <time>2016-02-11T10:18:07Z</time>
      </trkpt>
      <trkpt lat="45.36786" lon="5.90226">
        <ele>1786.62054233</ele>
        <time>2016-02-11T10:18:18Z</time>
      </trkpt>
      <trkpt lat="45.36783" lon="5.90229">
        <ele>1786.62054233</ele>
        <time>2016-02-11T10:18:22Z</time>
      </trkpt>
      <trkpt lat="45.36784" lon="5.90233">
        <ele>1786.62054233</ele>
        <time>2016-02-11T10:18:31Z</time>
      </trkpt>
      <trkpt lat="45.36782" lon="5.90232">
        <ele>1790.689314636</ele>
        <time>2016-02-11T10:18:37Z</time>
      </trkpt>
      <trkpt lat="45.36781" lon="5.90233">
        <ele>1790.689314636</ele>
        <time>2016-02-11T10:18:52Z</time>
      </trkpt>
      <trkpt lat="45.3677" lon="5.9023">
        <ele>1794.10891063</ele>
        <time>2016-02-11T10:19:07Z</time>
      </trkpt>
      <trkpt lat="45.36764" lon="5.90221">
        <ele>1794.10891063</ele>
        <time>2016-02-11T10:19:34Z</time>
      </trkpt>
      <trkpt lat="45.36764" lon="5.90221">
        <ele>1794.10891063</ele>
        <time>2016-02-11T10:19:40Z</time>
      </trkpt>
      <trkpt lat="45.36764" lon="5.90221">
        <ele>1794.10891063</ele>
        <time>2016-02-11T10:19:55Z</time>
      </trkpt>
      <trkpt lat="45.36764" lon="5.90221">
        <ele>1794.10891063</ele>
        <time>2016-02-11T10:19:56Z</time>
      </trkpt>
      <trkpt lat="45.36764" lon="5.90221">
        <ele>1794.10891063</ele>
        <time>2016-02-11T10:20:07Z</time>
      </trkpt>
      <trkpt lat="45.36764" lon="5.90221">
        <ele>1794.10891063</ele>
        <time>2016-02-11T10:20:15Z</time>
      </trkpt>
      <trkpt lat="45.36746" lon="5.90216">
        <ele>1798.074893944</ele>
        <time>2016-02-11T10:20:28Z</time>
      </trkpt>
      <trkpt lat="45.36743" lon="5.90204">
        <ele>1801.675768997</ele>
        <time>2016-02-11T10:20:37Z</time>
      </trkpt>
      <trkpt lat="45.36745" lon="5.90204">
        <ele>1801.756460017</ele>
        <time>2016-02-11T10:20:42Z</time>
      </trkpt>
      <trkpt lat="45.36725" lon="5.90199">
        <ele>1801.837151036</ele>
        <time>2016-02-11T10:20:47Z</time>
      </trkpt>
      <trkpt lat="45.36721" lon="5.90201">
        <ele>1801.917842056</ele>
        <time>2016-02-11T10:20:57Z</time>
      </trkpt>
      <trkpt lat="45.36715" lon="5.9019">
        <ele>1801.998533075</ele>
        <time>2016-02-11T10:21:02Z</time>
      </trkpt>
      <trkpt lat="45.36706" lon="5.90173">
        <ele>1802.079224095</ele>
        <time>2016-02-11T10:21:13Z</time>
      </trkpt>
      <trkpt lat="45.36698" lon="5.90161">
        <ele>1802.159915114</ele>
        <time>2016-02-11T10:21:17Z</time>
      </trkpt>
      <trkpt lat="45.36695" lon="5.90156">
        <ele>1802.240606134</ele>
        <time>2016-02-11T10:21:27Z</time>
      </trkpt>
      <trkpt lat="45.36704" lon="5.90157">
        <ele>1802.321297153</ele>
        <time>2016-02-11T10:21:32Z</time>
      </trkpt>
      <trkpt lat="45.3672" lon="5.90165">
        <ele>1802.401988173</ele>
        <time>2016-02-11T10:21:58Z</time>
      </trkpt>
      <trkpt lat="45.36713" lon="5.90178">
        <ele>1802.482679192</ele>
        <time>2016-02-11T10:22:02Z</time>
      </trkpt>
      <trkpt lat="45.36711" lon="5.90176">
        <ele>1802.482679192</ele>
        <time>2016-02-11T10:22:13Z</time>
      </trkpt>
      <trkpt lat="45.36712" lon="5.90176">
        <ele>1802.482679192</ele>
        <time>2016-02-11T10:22:17Z</time>
      </trkpt>
      <trkpt lat="45.36711" lon="5.90175">
        <ele>1802.482679192</ele>
        <time>2016-02-11T10:22:28Z</time>
      </trkpt>
      <trkpt lat="45.36711" lon="5.90175">
        <ele>1802.482679192</ele>
        <time>2016-02-11T10:22:32Z</time>
      </trkpt>
      <trkpt lat="45.36711" lon="5.90176">
        <ele>1802.482679192</ele>
        <time>2016-02-11T10:22:46Z</time>
      </trkpt>
      <trkpt lat="45.36711" lon="5.90176">
        <ele>1802.482679192</ele>
        <time>2016-02-11T10:22:49Z</time>
      </trkpt>
      <trkpt lat="45.36711" lon="5.90176">
        <ele>1802.482679192</ele>
        <time>2016-02-11T10:23:01Z</time>
      </trkpt>
      <trkpt lat="45.36711" lon="5.90177">
        <ele>1802.482679192</ele>
        <time>2016-02-11T10:23:20Z</time>
      </trkpt>
      <trkpt lat="45.36711" lon="5.90177">
        <ele>1802.482679192</ele>
        <time>2016-02-11T10:23:21Z</time>
      </trkpt>
      <trkpt lat="45.36677" lon="5.90206">
        <ele>1804.161485775</ele>
        <time>2016-02-11T10:24:01Z</time>
      </trkpt>
      <trkpt lat="45.36662" lon="5.90213">
        <ele>1806.215225228</ele>
        <time>2016-02-11T10:24:07Z</time>
      </trkpt>
      <trkpt lat="45.36672" lon="5.90212">
        <ele>1808.758759371</ele>
        <time>2016-02-11T10:24:18Z</time>
      </trkpt>
      <trkpt lat="45.36675" lon="5.90212">
        <ele>1808.758759371</ele>
        <time>2016-02-11T10:24:22Z</time>
      </trkpt>
      <trkpt lat="45.36675" lon="5.90211">
        <ele>1808.758759371</ele>
        <time>2016-02-11T10:24:33Z</time>
      </trkpt>
      <trkpt lat="45.36675" lon="5.90212">
        <ele>1808.758759371</ele>
        <time>2016-02-11T10:24:38Z</time>
      </trkpt>
      <trkpt lat="45.36675" lon="5.90212">
        <ele>1808.758759371</ele>
        <time>2016-02-11T10:24:47Z</time>
      </trkpt>
      <trkpt lat="45.36675" lon="5.90212">
        <ele>1808.758759371</ele>
        <time>2016-02-11T10:24:51Z</time>
      </trkpt>
      <trkpt lat="45.36676" lon="5.90211">
        <ele>1808.758759371</ele>
        <time>2016-02-11T10:25:03Z</time>
      </trkpt>
      <trkpt lat="45.36676" lon="5.90211">
        <ele>1808.758759371</ele>
        <time>2016-02-11T10:25:07Z</time>
      </trkpt>
      <trkpt lat="45.36676" lon="5.90211">
        <ele>1808.758759371</ele>
        <time>2016-02-11T10:25:18Z</time>
      </trkpt>
      <trkpt lat="45.36676" lon="5.90211">
        <ele>1808.758759371</ele>
        <time>2016-02-11T10:25:22Z</time>
      </trkpt>
      <trkpt lat="45.36676" lon="5.9021">
        <ele>1808.758759371</ele>
        <time>2016-02-11T10:25:32Z</time>
      </trkpt>
      <trkpt lat="45.36676" lon="5.9021">
        <ele>1808.758759371</ele>
        <time>2016-02-11T10:25:36Z</time>
      </trkpt>
      <trkpt lat="45.36677" lon="5.9021">
        <ele>1808.758759371</ele>
        <time>2016-02-11T10:25:51Z</time>
      </trkpt>
      <trkpt lat="45.36677" lon="5.90209">
        <ele>1808.758759371</ele>
        <time>2016-02-11T10:25:56Z</time>
      </trkpt>
      <trkpt lat="45.36677" lon="5.90209">
        <ele>1808.758759371</ele>
        <time>2016-02-11T10:26:06Z</time>
      </trkpt>
      <trkpt lat="45.36677" lon="5.90209">
        <ele>1808.758759371</ele>
        <time>2016-02-11T10:26:22Z</time>
      </trkpt>
      <trkpt lat="45.36677" lon="5.90209">
        <ele>1808.758759371</ele>
        <time>2016-02-11T10:26:28Z</time>
      </trkpt>
      <trkpt lat="45.36678" lon="5.90208">
        <ele>1808.758759371</ele>
        <time>2016-02-11T10:26:37Z</time>
      </trkpt>
      <trkpt lat="45.36678" lon="5.90208">
        <ele>1808.758759371</ele>
        <time>2016-02-11T10:26:41Z</time>
      </trkpt>
      <trkpt lat="45.36678" lon="5.90208">
        <ele>1808.758759371</ele>
        <time>2016-02-11T10:26:53Z</time>
      </trkpt>
      <trkpt lat="45.36678" lon="5.90208">
        <ele>1808.758759371</ele>
        <time>2016-02-11T10:26:58Z</time>
      </trkpt>
      <trkpt lat="45.36678" lon="5.90208">
        <ele>1808.758759371</ele>
        <time>2016-02-11T10:27:07Z</time>
      </trkpt>
      <trkpt lat="45.36678" lon="5.90207">
        <ele>1808.758759371</ele>
        <time>2016-02-11T10:27:13Z</time>
      </trkpt>
      <trkpt lat="45.36678" lon="5.90207">
        <ele>1808.758759371</ele>
        <time>2016-02-11T10:27:23Z</time>
      </trkpt>
      <trkpt lat="45.36678" lon="5.90207">
        <ele>1808.758759371</ele>
        <time>2016-02-11T10:27:26Z</time>
      </trkpt>
      <trkpt lat="45.36678" lon="5.90207">
        <ele>1808.758759371</ele>
        <time>2016-02-11T10:27:37Z</time>
      </trkpt>
      <trkpt lat="45.36678" lon="5.90207">
        <ele>1808.758759371</ele>
        <time>2016-02-11T10:27:42Z</time>
      </trkpt>
      <trkpt lat="45.36679" lon="5.90207">
        <ele>1811.320629399</ele>
        <time>2016-02-11T10:27:52Z</time>
      </trkpt>
      <trkpt lat="45.36679" lon="5.90207">
        <ele>1811.320629399</ele>
        <time>2016-02-11T10:27:58Z</time>
      </trkpt>
      <trkpt lat="45.36679" lon="5.90206">
        <ele>1811.320629399</ele>
        <time>2016-02-11T10:28:13Z</time>
      </trkpt>
      <trkpt lat="45.36679" lon="5.90206">
        <ele>1811.320629399</ele>
        <time>2016-02-11T10:28:17Z</time>
      </trkpt>
      <trkpt lat="45.36679" lon="5.90206">
        <ele>1811.320629399</ele>
        <time>2016-02-11T10:28:28Z</time>
      </trkpt>
      <trkpt lat="45.36679" lon="5.90206">
        <ele>1811.320629399</ele>
        <time>2016-02-11T10:28:31Z</time>
      </trkpt>
      <trkpt lat="45.36679" lon="5.90206">
        <ele>1811.320629399</ele>
        <time>2016-02-11T10:28:41Z</time>
      </trkpt>
      <trkpt lat="45.36679" lon="5.90206">
        <ele>1811.320629399</ele>
        <time>2016-02-11T10:28:46Z</time>
      </trkpt>
      <trkpt lat="45.3668" lon="5.90205">
        <ele>1811.320629399</ele>
        <time>2016-02-11T10:28:56Z</time>
      </trkpt>
      <trkpt lat="45.3668" lon="5.90205">
        <ele>1811.320629399</ele>
        <time>2016-02-11T10:29:01Z</time>
      </trkpt>
      <trkpt lat="45.36683" lon="5.90201">
        <ele>1811.320629399</ele>
        <time>2016-02-11T10:29:11Z</time>
      </trkpt>
      <trkpt lat="45.36682" lon="5.90199">
        <ele>1811.320629399</ele>
        <time>2016-02-11T10:29:16Z</time>
      </trkpt>
      <trkpt lat="45.36681" lon="5.90198">
        <ele>1813.752128328</ele>
        <time>2016-02-11T10:29:27Z</time>
      </trkpt>
      <trkpt lat="45.36681" lon="5.90198">
        <ele>1813.752128328</ele>
        <time>2016-02-11T10:29:32Z</time>
      </trkpt>
      <trkpt lat="45.36681" lon="5.90198">
        <ele>1813.752128328</ele>
        <time>2016-02-11T10:29:48Z</time>
      </trkpt>
      <trkpt lat="45.36681" lon="5.90198">
        <ele>1813.752128328</ele>
        <time>2016-02-11T10:29:52Z</time>
      </trkpt>
      <trkpt lat="45.36681" lon="5.90198">
        <ele>1813.752128328</ele>
        <time>2016-02-11T10:30:03Z</time>
      </trkpt>
      <trkpt lat="45.36681" lon="5.90197">
        <ele>1813.752128328</ele>
        <time>2016-02-11T10:30:07Z</time>
      </trkpt>
      <trkpt lat="45.36681" lon="5.90197">
        <ele>1813.752128328</ele>
        <time>2016-02-11T10:30:18Z</time>
      </trkpt>
      <trkpt lat="45.36681" lon="5.90197">
        <ele>1813.752128328</ele>
        <time>2016-02-11T10:30:23Z</time>
      </trkpt>
      <trkpt lat="45.36681" lon="5.90197">
        <ele>1813.752128328</ele>
        <time>2016-02-11T10:30:33Z</time>
      </trkpt>
      <trkpt lat="45.3668" lon="5.90196">
        <ele>1813.752128328</ele>
        <time>2016-02-11T10:30:37Z</time>
      </trkpt>
      <trkpt lat="45.36682" lon="5.90192">
        <ele>1813.752128328</ele>
        <time>2016-02-11T10:30:48Z</time>
      </trkpt>
      <trkpt lat="45.36681" lon="5.90191">
        <ele>1813.752128328</ele>
        <time>2016-02-11T10:30:52Z</time>
      </trkpt>
      <trkpt lat="45.36681" lon="5.90191">
        <ele>1813.752128328</ele>
        <time>2016-02-11T10:31:02Z</time>
      </trkpt>
      <trkpt lat="45.36681" lon="5.90191">
        <ele>1813.752128328</ele>
        <time>2016-02-11T10:31:07Z</time>
      </trkpt>
      <trkpt lat="45.36681" lon="5.90191">
        <ele>1813.752128328</ele>
        <time>2016-02-11T10:31:11Z</time>
      </trkpt>
      <trkpt lat="45.36681" lon="5.90186">
        <ele>1817.356913057</ele>
        <time>2016-02-11T10:31:22Z</time>
      </trkpt>
      <trkpt lat="45.36682" lon="5.90183">
        <ele>1817.356913057</ele>
        <time>2016-02-11T10:31:26Z</time>
      </trkpt>
      <trkpt lat="45.36685" lon="5.90181">
        <ele>1817.356913057</ele>
        <time>2016-02-11T10:31:37Z</time>
      </trkpt>
      <trkpt lat="45.36685" lon="5.90181">
        <ele>1817.356913057</ele>
        <time>2016-02-11T10:31:42Z</time>
      </trkpt>
      <trkpt lat="45.36685" lon="5.90181">
        <ele>1817.356913057</ele>
        <time>2016-02-11T10:31:51Z</time>
      </trkpt>
      <trkpt lat="45.36685" lon="5.90181">
        <ele>1817.356913057</ele>
        <time>2016-02-11T10:31:58Z</time>
      </trkpt>
      <trkpt lat="45.36685" lon="5.90181">
        <ele>1817.356913057</ele>
        <time>2016-02-11T10:32:07Z</time>
      </trkpt>
      <trkpt lat="45.36685" lon="5.90181">
        <ele>1817.356913057</ele>
        <time>2016-02-11T10:32:13Z</time>
      </trkpt>
      <trkpt lat="45.36685" lon="5.90181">
        <ele>1817.356913057</ele>
        <time>2016-02-11T10:32:22Z</time>
      </trkpt>
      <trkpt lat="45.36686" lon="5.9018">
        <ele>1817.356913057</ele>
        <time>2016-02-11T10:32:28Z</time>
      </trkpt>
      <trkpt lat="45.36685" lon="5.90175">
        <ele>1823.051342783</ele>
        <time>2016-02-11T10:32:38Z</time>
      </trkpt>
      <trkpt lat="45.36684" lon="5.90169">
        <ele>1823.051342783</ele>
        <time>2016-02-11T10:32:42Z</time>
      </trkpt>
      <trkpt lat="45.36682" lon="5.90167">
        <ele>1823.051342783</ele>
        <time>2016-02-11T10:32:57Z</time>
      </trkpt>
      <trkpt lat="45.36682" lon="5.90167">
        <ele>1823.051342783</ele>
        <time>2016-02-11T10:33:02Z</time>
      </trkpt>
      <trkpt lat="45.36682" lon="5.90167">
        <ele>1823.051342783</ele>
        <time>2016-02-11T10:33:08Z</time>
      </trkpt>
      <trkpt lat="45.36682" lon="5.90167">
        <ele>1823.051342783</ele>
        <time>2016-02-11T10:33:13Z</time>
      </trkpt>
      <trkpt lat="45.36682" lon="5.90167">
        <ele>1823.051342783</ele>
        <time>2016-02-11T10:33:17Z</time>
      </trkpt>
      <trkpt lat="45.36682" lon="5.90167">
        <ele>1823.051342783</ele>
        <time>2016-02-11T10:33:28Z</time>
      </trkpt>
      <trkpt lat="45.36682" lon="5.90167">
        <ele>1823.051342783</ele>
        <time>2016-02-11T10:33:33Z</time>
      </trkpt>
      <trkpt lat="45.36683" lon="5.90168">
        <ele>1823.051342783</ele>
        <time>2016-02-11T10:33:41Z</time>
      </trkpt>
      <trkpt lat="45.36682" lon="5.90167">
        <ele>1829.949272342</ele>
        <time>2016-02-11T10:33:46Z</time>
      </trkpt>
      <trkpt lat="45.36683" lon="5.90167">
        <ele>1829.949272342</ele>
        <time>2016-02-11T10:33:56Z</time>
      </trkpt>
      <trkpt lat="45.36683" lon="5.90167">
        <ele>1829.949272342</ele>
        <time>2016-02-11T10:34:01Z</time>
      </trkpt>
      <trkpt lat="45.36683" lon="5.90166">
        <ele>1829.949272342</ele>
        <time>2016-02-11T10:34:11Z</time>
      </trkpt>
      <trkpt lat="45.36687" lon="5.90165">
        <ele>1829.949272342</ele>
        <time>2016-02-11T10:34:16Z</time>
      </trkpt>
      <trkpt lat="45.36687" lon="5.90166">
        <ele>1829.949272342</ele>
        <time>2016-02-11T10:34:26Z</time>
      </trkpt>
      <trkpt lat="45.36687" lon="5.90166">
        <ele>1829.949272342</ele>
        <time>2016-02-11T10:34:31Z</time>
      </trkpt>
      <trkpt lat="45.36687" lon="5.90166">
        <ele>1829.949272342</ele>
        <time>2016-02-11T10:34:36Z</time>
      </trkpt>
      <trkpt lat="45.36687" lon="5.90166">
        <ele>1829.949272342</ele>
        <time>2016-02-11T10:34:46Z</time>
      </trkpt>
      <trkpt lat="45.36687" lon="5.90166">
        <ele>1829.949272342</ele>
        <time>2016-02-11T10:34:51Z</time>
      </trkpt>
      <trkpt lat="45.36687" lon="5.90166">
        <ele>1829.949272342</ele>
        <time>2016-02-11T10:35:02Z</time>
      </trkpt>
      <trkpt lat="45.36687" lon="5.90166">
        <ele>1829.949272342</ele>
        <time>2016-02-11T10:35:06Z</time>
      </trkpt>
      <trkpt lat="45.36687" lon="5.90166">
        <ele>1829.949272342</ele>
        <time>2016-02-11T10:35:11Z</time>
      </trkpt>
      <trkpt lat="45.36684" lon="5.90167">
        <ele>1836.073423498</ele>
        <time>2016-02-11T10:35:16Z</time>
      </trkpt>
      <trkpt lat="45.36684" lon="5.90167">
        <ele>1836.073423498</ele>
        <time>2016-02-11T10:35:21Z</time>
      </trkpt>
      <trkpt lat="45.36684" lon="5.90167">
        <ele>1836.073423498</ele>
        <time>2016-02-11T10:35:26Z</time>
      </trkpt>
      <trkpt lat="45.36684" lon="5.90167">
        <ele>1836.073423498</ele>
        <time>2016-02-11T10:35:31Z</time>
      </trkpt>
      <trkpt lat="45.36685" lon="5.90166">
        <ele>1836.073423498</ele>
        <time>2016-02-11T10:35:37Z</time>
      </trkpt>
      <trkpt lat="45.36682" lon="5.90156">
        <ele>1842.043899301</ele>
        <time>2016-02-11T10:35:53Z</time>
      </trkpt>
      <trkpt lat="45.36682" lon="5.90156">
        <ele>1842.043899301</ele>
        <time>2016-02-11T10:35:57Z</time>
      </trkpt>
      <trkpt lat="45.36672" lon="5.90156">
        <ele>1847.571119769</ele>
        <time>2016-02-11T10:36:07Z</time>
      </trkpt>
      <trkpt lat="45.36666" lon="5.90154">
        <ele>1847.571119769</ele>
        <time>2016-02-11T10:36:12Z</time>
      </trkpt>
      <trkpt lat="45.36665" lon="5.90151">
        <ele>1847.571119769</ele>
        <time>2016-02-11T10:36:21Z</time>
      </trkpt>
      <trkpt lat="45.36665" lon="5.90152">
        <ele>1847.571119769</ele>
        <time>2016-02-11T10:36:27Z</time>
      </trkpt>
      <trkpt lat="45.36665" lon="5.90155">
        <ele>1852.532266656</ele>
        <time>2016-02-11T10:36:37Z</time>
      </trkpt>
      <trkpt lat="45.36662" lon="5.90148">
        <ele>1852.532266656</ele>
        <time>2016-02-11T10:36:41Z</time>
      </trkpt>
      <trkpt lat="45.36655" lon="5.90142">
        <ele>1857.247623455</ele>
        <time>2016-02-11T10:36:52Z</time>
      </trkpt>
      <trkpt lat="45.36649" lon="5.90144">
        <ele>1857.247623455</ele>
        <time>2016-02-11T10:36:57Z</time>
      </trkpt>
      <trkpt lat="45.36647" lon="5.90143">
        <ele>1857.247623455</ele>
        <time>2016-02-11T10:37:01Z</time>
      </trkpt>
      <trkpt lat="45.36643" lon="5.90142">
        <ele>1861.87070059</ele>
        <time>2016-02-11T10:37:07Z</time>
      </trkpt>
      <trkpt lat="45.36638" lon="5.90142">
        <ele>1861.87070059</ele>
        <time>2016-02-11T10:37:12Z</time>
      </trkpt>
      <trkpt lat="45.3663" lon="5.90139">
        <ele>1865.391289801</ele>
        <time>2016-02-11T10:37:26Z</time>
      </trkpt>
      <trkpt lat="45.36629" lon="5.90139">
        <ele>1865.391289801</ele>
        <time>2016-02-11T10:37:32Z</time>
      </trkpt>
      <trkpt lat="45.36629" lon="5.90139">
        <ele>1865.391289801</ele>
        <time>2016-02-11T10:37:42Z</time>
      </trkpt>
      <trkpt lat="45.36629" lon="5.90139">
        <ele>1865.391289801</ele>
        <time>2016-02-11T10:37:57Z</time>
      </trkpt>
      <trkpt lat="45.36626" lon="5.90137">
        <ele>1865.391289801</ele>
        <time>2016-02-11T10:38:03Z</time>
      </trkpt>
      <trkpt lat="45.36621" lon="5.90135">
        <ele>1868.317791836</ele>
        <time>2016-02-11T10:38:13Z</time>
      </trkpt>
      <trkpt lat="45.36618" lon="5.90134">
        <ele>1868.317791836</ele>
        <time>2016-02-11T10:38:17Z</time>
      </trkpt>
      <trkpt lat="45.36609" lon="5.90132">
        <ele>1871.123124232</ele>
        <time>2016-02-11T10:38:27Z</time>
      </trkpt>
      <trkpt lat="45.36607" lon="5.90132">
        <ele>1871.123124232</ele>
        <time>2016-02-11T10:38:32Z</time>
      </trkpt>
      <trkpt lat="45.36606" lon="5.90132">
        <ele>1871.123124232</ele>
        <time>2016-02-11T10:38:43Z</time>
      </trkpt>
      <trkpt lat="45.36605" lon="5.9013">
        <ele>1871.123124232</ele>
        <time>2016-02-11T10:38:47Z</time>
      </trkpt>
      <trkpt lat="45.36598" lon="5.90125">
        <ele>1873.237219196</ele>
        <time>2016-02-11T10:38:56Z</time>
      </trkpt>
      <trkpt lat="45.36592" lon="5.90121">
        <ele>1873.237219196</ele>
        <time>2016-02-11T10:39:02Z</time>
      </trkpt>
      <trkpt lat="45.36587" lon="5.90124">
        <ele>1874.998676445</ele>
        <time>2016-02-11T10:39:12Z</time>
      </trkpt>
      <trkpt lat="45.36584" lon="5.90124">
        <ele>1874.998676445</ele>
        <time>2016-02-11T10:39:16Z</time>
      </trkpt>
      <trkpt lat="45.36583" lon="5.90118">
        <ele>1874.998676445</ele>
        <time>2016-02-11T10:39:27Z</time>
      </trkpt>
      <trkpt lat="45.36584" lon="5.90118">
        <ele>1874.998676445</ele>
        <time>2016-02-11T10:39:32Z</time>
      </trkpt>
      <trkpt lat="45.36584" lon="5.90118">
        <ele>1874.998676445</ele>
        <time>2016-02-11T10:39:36Z</time>
      </trkpt>
      <trkpt lat="45.36584" lon="5.90118">
        <ele>1874.998676445</ele>
        <time>2016-02-11T10:39:47Z</time>
      </trkpt>
      <trkpt lat="45.36584" lon="5.90118">
        <ele>1874.998676445</ele>
        <time>2016-02-11T10:39:52Z</time>
      </trkpt>
      <trkpt lat="45.36582" lon="5.90116">
        <ele>1877.154718878</ele>
        <time>2016-02-11T10:40:02Z</time>
      </trkpt>
      <trkpt lat="45.36577" lon="5.90116">
        <ele>1877.154718878</ele>
        <time>2016-02-11T10:40:07Z</time>
      </trkpt>
      <trkpt lat="45.36572" lon="5.90112">
        <ele>1878.81150975</ele>
        <time>2016-02-11T10:40:17Z</time>
      </trkpt>
      <trkpt lat="45.36568" lon="5.9011">
        <ele>1878.81150975</ele>
        <time>2016-02-11T10:40:22Z</time>
      </trkpt>
      <trkpt lat="45.36562" lon="5.90106">
        <ele>1880.151197799</ele>
        <time>2016-02-11T10:40:32Z</time>
      </trkpt>
      <trkpt lat="45.3656" lon="5.90104">
        <ele>1880.151197799</ele>
        <time>2016-02-11T10:40:37Z</time>
      </trkpt>
      <trkpt lat="45.36553" lon="5.90103">
        <ele>1881.055348646</ele>
        <time>2016-02-11T10:40:48Z</time>
      </trkpt>
      <trkpt lat="45.36547" lon="5.90102">
        <ele>1881.055348646</ele>
        <time>2016-02-11T10:40:52Z</time>
      </trkpt>
      <trkpt lat="45.36543" lon="5.90097">
        <ele>1881.847896598</ele>
        <time>2016-02-11T10:41:02Z</time>
      </trkpt>
      <trkpt lat="45.36532" lon="5.90095">
        <ele>1881.676496923</ele>
        <time>2016-02-11T10:41:17Z</time>
      </trkpt>
      <trkpt lat="45.36528" lon="5.90091">
        <ele>1881.676496923</ele>
        <time>2016-02-11T10:41:23Z</time>
      </trkpt>
      <trkpt lat="45.36526" lon="5.90092">
        <ele>1881.676496923</ele>
        <time>2016-02-11T10:41:31Z</time>
      </trkpt>
      <trkpt lat="45.36526" lon="5.90093">
        <ele>1881.676496923</ele>
        <time>2016-02-11T10:41:36Z</time>
      </trkpt>
      <trkpt lat="45.36526" lon="5.90093">
        <ele>1881.676496923</ele>
        <time>2016-02-11T10:41:41Z</time>
      </trkpt>
      <trkpt lat="45.36526" lon="5.90093">
        <ele>1881.676496923</ele>
        <time>2016-02-11T10:41:46Z</time>
      </trkpt>
      <trkpt lat="45.36526" lon="5.90093">
        <ele>1881.676496923</ele>
        <time>2016-02-11T10:41:51Z</time>
      </trkpt>
      <trkpt lat="45.36526" lon="5.90093">
        <ele>1881.676496923</ele>
        <time>2016-02-11T10:41:56Z</time>
      </trkpt>
      <trkpt lat="45.36526" lon="5.90093">
        <ele>1881.676496923</ele>
        <time>2016-02-11T10:42:02Z</time>
      </trkpt>
      <trkpt lat="45.36524" lon="5.90093">
        <ele>1881.771750233</ele>
        <time>2016-02-11T10:42:12Z</time>
      </trkpt>
      <trkpt lat="45.36523" lon="5.90093">
        <ele>1881.771750233</ele>
        <time>2016-02-11T10:42:17Z</time>
      </trkpt>
      <trkpt lat="45.36515" lon="5.90091">
        <ele>1881.976159529</ele>
        <time>2016-02-11T10:42:27Z</time>
      </trkpt>
      <trkpt lat="45.36513" lon="5.9009">
        <ele>1881.976159529</ele>
        <time>2016-02-11T10:42:33Z</time>
      </trkpt>
      <trkpt lat="45.36503" lon="5.90091">
        <ele>1882.143519451</ele>
        <time>2016-02-11T10:42:43Z</time>
      </trkpt>
      <trkpt lat="45.36498" lon="5.90091">
        <ele>1882.143519451</ele>
        <time>2016-02-11T10:42:48Z</time>
      </trkpt>
      <trkpt lat="45.36491" lon="5.9009">
        <ele>1882.714921402</ele>
        <time>2016-02-11T10:42:57Z</time>
      </trkpt>
      <trkpt lat="45.36488" lon="5.90089">
        <ele>1882.714921402</ele>
        <time>2016-02-11T10:43:02Z</time>
      </trkpt>
      <trkpt lat="45.36484" lon="5.90093">
        <ele>1882.714921402</ele>
        <time>2016-02-11T10:43:07Z</time>
      </trkpt>
      <trkpt lat="45.36483" lon="5.90093">
        <ele>1882.945021429</ele>
        <time>2016-02-11T10:43:18Z</time>
      </trkpt>
      <trkpt lat="45.36482" lon="5.90092">
        <ele>1882.945021429</ele>
        <time>2016-02-11T10:43:22Z</time>
      </trkpt>
      <trkpt lat="45.36475" lon="5.90082">
        <ele>1882.864714226</ele>
        <time>2016-02-11T10:43:33Z</time>
      </trkpt>
      <trkpt lat="45.36472" lon="5.90084">
        <ele>1882.864714226</ele>
        <time>2016-02-11T10:43:37Z</time>
      </trkpt>
      <trkpt lat="45.36466" lon="5.90082">
        <ele>1882.359340777</ele>
        <time>2016-02-11T10:43:47Z</time>
      </trkpt>
      <trkpt lat="45.36461" lon="5.9008">
        <ele>1882.359340777</ele>
        <time>2016-02-11T10:43:53Z</time>
      </trkpt>
      <trkpt lat="45.36455" lon="5.90077">
        <ele>1881.900241631</ele>
        <time>2016-02-11T10:44:02Z</time>
      </trkpt>
      <trkpt lat="45.36455" lon="5.90078">
        <ele>1881.900241631</ele>
        <time>2016-02-11T10:44:06Z</time>
      </trkpt>
      <trkpt lat="45.36452" lon="5.90086">
        <ele>1881.900241631</ele>
        <time>2016-02-11T10:44:18Z</time>
      </trkpt>
      <trkpt lat="45.3645" lon="5.90084">
        <ele>1881.20336959</ele>
        <time>2016-02-11T10:44:22Z</time>
      </trkpt>
      <trkpt lat="45.36447" lon="5.90085">
        <ele>1881.20336959</ele>
        <time>2016-02-11T10:44:32Z</time>
      </trkpt>
      <trkpt lat="45.36444" lon="5.90082">
        <ele>1881.20336959</ele>
        <time>2016-02-11T10:44:38Z</time>
      </trkpt>
      <trkpt lat="45.36439" lon="5.9008">
        <ele>1880.870783044</ele>
        <time>2016-02-11T10:44:46Z</time>
      </trkpt>
      <trkpt lat="45.36436" lon="5.90081">
        <ele>1880.870783044</ele>
        <time>2016-02-11T10:44:52Z</time>
      </trkpt>
      <trkpt lat="45.36432" lon="5.90087">
        <ele>1880.738626143</ele>
        <time>2016-02-11T10:45:03Z</time>
      </trkpt>
      <trkpt lat="45.36428" lon="5.90087">
        <ele>1880.738626143</ele>
        <time>2016-02-11T10:45:07Z</time>
      </trkpt>
      <trkpt lat="45.36425" lon="5.9009">
        <ele>1880.738626143</ele>
        <time>2016-02-11T10:45:18Z</time>
      </trkpt>
      <trkpt lat="45.36425" lon="5.9009">
        <ele>1880.738626143</ele>
        <time>2016-02-11T10:45:23Z</time>
      </trkpt>
      <trkpt lat="45.36421" lon="5.90093">
        <ele>1880.942617665</ele>
        <time>2016-02-11T10:45:32Z</time>
      </trkpt>
      <trkpt lat="45.36418" lon="5.90096">
        <ele>1880.942617665</ele>
        <time>2016-02-11T10:45:37Z</time>
      </trkpt>
      <trkpt lat="45.36415" lon="5.90097">
        <ele>1880.942617665</ele>
        <time>2016-02-11T10:45:48Z</time>
      </trkpt>
      <trkpt lat="45.36408" lon="5.90096">
        <ele>1880.886875123</ele>
        <time>2016-02-11T10:45:52Z</time>
      </trkpt>
      <trkpt lat="45.36399" lon="5.90091">
        <ele>1880.88454432</ele>
        <time>2016-02-11T10:46:07Z</time>
      </trkpt>
      <trkpt lat="45.36399" lon="5.9009">
        <ele>1880.88454432</ele>
        <time>2016-02-11T10:46:12Z</time>
      </trkpt>
      <trkpt lat="45.36399" lon="5.90089">
        <ele>1880.88454432</ele>
        <time>2016-02-11T10:46:23Z</time>
      </trkpt>
      <trkpt lat="45.36399" lon="5.90089">
        <ele>1880.88454432</ele>
        <time>2016-02-11T10:46:27Z</time>
      </trkpt>
      <trkpt lat="45.36398" lon="5.90094">
        <ele>1880.88454432</ele>
        <time>2016-02-11T10:46:37Z</time>
      </trkpt>
      <trkpt lat="45.36396" lon="5.90096">
        <ele>1880.88454432</ele>
        <time>2016-02-11T10:46:42Z</time>
      </trkpt>
      <trkpt lat="45.36396" lon="5.90096">
        <ele>1880.88454432</ele>
        <time>2016-02-11T10:46:51Z</time>
      </trkpt>
      <trkpt lat="45.36393" lon="5.90097">
        <ele>1881.225471408</ele>
        <time>2016-02-11T10:46:57Z</time>
      </trkpt>
      <trkpt lat="45.36384" lon="5.90101">
        <ele>1881.744763775</ele>
        <time>2016-02-11T10:47:08Z</time>
      </trkpt>
      <trkpt lat="45.36383" lon="5.90104">
        <ele>1881.744763775</ele>
        <time>2016-02-11T10:47:12Z</time>
      </trkpt>
      <trkpt lat="45.36383" lon="5.90113">
        <ele>1881.744763775</ele>
        <time>2016-02-11T10:47:28Z</time>
      </trkpt>
      <trkpt lat="45.36383" lon="5.90117">
        <ele>1882.577211211</ele>
        <time>2016-02-11T10:47:32Z</time>
      </trkpt>
      <trkpt lat="45.36382" lon="5.90121">
        <ele>1882.577211211</ele>
        <time>2016-02-11T10:47:42Z</time>
      </trkpt>
      <trkpt lat="45.36383" lon="5.90122">
        <ele>1882.577211211</ele>
        <time>2016-02-11T10:47:47Z</time>
      </trkpt>
      <trkpt lat="45.36383" lon="5.90126">
        <ele>1882.577211211</ele>
        <time>2016-02-11T10:47:58Z</time>
      </trkpt>
      <trkpt lat="45.36385" lon="5.90127">
        <ele>1882.577211211</ele>
        <time>2016-02-11T10:48:02Z</time>
      </trkpt>
      <trkpt lat="45.36383" lon="5.90137">
        <ele>1883.558448969</ele>
        <time>2016-02-11T10:48:12Z</time>
      </trkpt>
      <trkpt lat="45.3638" lon="5.9014">
        <ele>1883.558448969</ele>
        <time>2016-02-11T10:48:17Z</time>
      </trkpt>
      <trkpt lat="45.3638" lon="5.90142">
        <ele>1883.558448969</ele>
        <time>2016-02-11T10:48:28Z</time>
      </trkpt>
      <trkpt lat="45.3638" lon="5.90142">
        <ele>1883.558448969</ele>
        <time>2016-02-11T10:48:32Z</time>
      </trkpt>
      <trkpt lat="45.36381" lon="5.90144">
        <ele>1883.558448969</ele>
        <time>2016-02-11T10:48:43Z</time>
      </trkpt>
      <trkpt lat="45.3638" lon="5.9015">
        <ele>1884.679730756</ele>
        <time>2016-02-11T10:48:48Z</time>
      </trkpt>
      <trkpt lat="45.3638" lon="5.90155">
        <ele>1884.679730756</ele>
        <time>2016-02-11T10:49:03Z</time>
      </trkpt>
      <trkpt lat="45.3638" lon="5.90156">
        <ele>1884.679730756</ele>
        <time>2016-02-11T10:49:07Z</time>
      </trkpt>
      <trkpt lat="45.3638" lon="5.90156">
        <ele>1884.679730756</ele>
        <time>2016-02-11T10:49:17Z</time>
      </trkpt>
      <trkpt lat="45.3638" lon="5.90156">
        <ele>1884.679730756</ele>
        <time>2016-02-11T10:49:22Z</time>
      </trkpt>
      <trkpt lat="45.3638" lon="5.90156">
        <ele>1884.679730756</ele>
        <time>2016-02-11T10:49:32Z</time>
      </trkpt>
      <trkpt lat="45.3638" lon="5.90156">
        <ele>1884.679730756</ele>
        <time>2016-02-11T10:49:36Z</time>
      </trkpt>
      <trkpt lat="45.36379" lon="5.90155">
        <ele>1884.679730756</ele>
        <time>2016-02-11T10:49:47Z</time>
      </trkpt>
      <trkpt lat="45.36373" lon="5.90154">
        <ele>1887.661751996</ele>
        <time>2016-02-11T10:49:52Z</time>
      </trkpt>
      <trkpt lat="45.3637" lon="5.90156">
        <ele>1887.661751996</ele>
        <time>2016-02-11T10:49:57Z</time>
      </trkpt>
      <trkpt lat="45.36358" lon="5.90163">
        <ele>1890.058342206</ele>
        <time>2016-02-11T10:50:08Z</time>
      </trkpt>
      <trkpt lat="45.36351" lon="5.90168">
        <ele>1890.058342206</ele>
        <time>2016-02-11T10:50:22Z</time>
      </trkpt>
      <trkpt lat="45.3635" lon="5.90169">
        <ele>1892.34266043</ele>
        <time>2016-02-11T10:50:37Z</time>
      </trkpt>
      <trkpt lat="45.3635" lon="5.90169">
        <ele>1892.34266043</ele>
        <time>2016-02-11T10:50:42Z</time>
      </trkpt>
      <trkpt lat="45.3635" lon="5.90169">
        <ele>1892.34266043</ele>
        <time>2016-02-11T10:50:52Z</time>
      </trkpt>
      <trkpt lat="45.3635" lon="5.90169">
        <ele>1892.34266043</ele>
        <time>2016-02-11T10:50:56Z</time>
      </trkpt>
      <trkpt lat="45.3635" lon="5.90169">
        <ele>1892.34266043</ele>
        <time>2016-02-11T10:51:06Z</time>
      </trkpt>
      <trkpt lat="45.3635" lon="5.90169">
        <ele>1892.34266043</ele>
        <time>2016-02-11T10:51:11Z</time>
      </trkpt>
      <trkpt lat="45.3635" lon="5.90169">
        <ele>1892.34266043</ele>
        <time>2016-02-11T10:51:22Z</time>
      </trkpt>
      <trkpt lat="45.3635" lon="5.90169">
        <ele>1892.34266043</ele>
        <time>2016-02-11T10:51:27Z</time>
      </trkpt>
      <trkpt lat="45.3635" lon="5.90169">
        <ele>1892.34266043</ele>
        <time>2016-02-11T10:51:38Z</time>
      </trkpt>
      <trkpt lat="45.3635" lon="5.90169">
        <ele>1892.34266043</ele>
        <time>2016-02-11T10:51:42Z</time>
      </trkpt>
      <trkpt lat="45.36342" lon="5.90168">
        <ele>1892.34266043</ele>
        <time>2016-02-11T10:51:57Z</time>
      </trkpt>
      <trkpt lat="45.36337" lon="5.90165">
        <ele>1879.677508615</ele>
        <time>2016-02-11T10:52:03Z</time>
      </trkpt>
      <trkpt lat="45.36332" lon="5.90156">
        <ele>1879.677508615</ele>
        <time>2016-02-11T10:52:13Z</time>
      </trkpt>
      <trkpt lat="45.3633" lon="5.90154">
        <ele>1881.878997062</ele>
        <time>2016-02-11T10:52:17Z</time>
      </trkpt>
      <trkpt lat="45.36321" lon="5.90143">
        <ele>1884.450649146</ele>
        <time>2016-02-11T10:52:28Z</time>
      </trkpt>
      <trkpt lat="45.36319" lon="5.90138">
        <ele>1884.450649146</ele>
        <time>2016-02-11T10:52:32Z</time>
      </trkpt>
      <trkpt lat="45.3631" lon="5.90127">
        <ele>1881.74168825</ele>
        <time>2016-02-11T10:52:47Z</time>
      </trkpt>
      <trkpt lat="45.36307" lon="5.90123">
        <ele>1881.74168825</ele>
        <time>2016-02-11T10:52:52Z</time>
      </trkpt>
      <trkpt lat="45.36309" lon="5.90128">
        <ele>1881.74168825</ele>
        <time>2016-02-11T10:53:02Z</time>
      </trkpt>
      <trkpt lat="45.36309" lon="5.9013">
        <ele>1881.74168825</ele>
        <time>2016-02-11T10:53:07Z</time>
      </trkpt>
      <trkpt lat="45.36309" lon="5.9013">
        <ele>1881.74168825</ele>
        <time>2016-02-11T10:53:17Z</time>
      </trkpt>
      <trkpt lat="45.36309" lon="5.9013">
        <ele>1881.74168825</ele>
        <time>2016-02-11T10:53:22Z</time>
      </trkpt>
      <trkpt lat="45.36308" lon="5.90129">
        <ele>1883.662752356</ele>
        <time>2016-02-11T10:53:32Z</time>
      </trkpt>
      <trkpt lat="45.36308" lon="5.90128">
        <ele>1883.662752356</ele>
        <time>2016-02-11T10:53:37Z</time>
      </trkpt>
      <trkpt lat="45.36308" lon="5.90128">
        <ele>1883.662752356</ele>
        <time>2016-02-11T10:53:46Z</time>
      </trkpt>
      <trkpt lat="45.36308" lon="5.90128">
        <ele>1883.662752356</ele>
        <time>2016-02-11T10:53:52Z</time>
      </trkpt>
      <trkpt lat="45.36308" lon="5.90128">
        <ele>1883.662752356</ele>
        <time>2016-02-11T10:54:02Z</time>
      </trkpt>
      <trkpt lat="45.36308" lon="5.90128">
        <ele>1883.662752356</ele>
        <time>2016-02-11T10:54:07Z</time>
      </trkpt>
      <trkpt lat="45.36307" lon="5.90128">
        <ele>1883.662752356</ele>
        <time>2016-02-11T10:54:17Z</time>
      </trkpt>
      <trkpt lat="45.36309" lon="5.90128">
        <ele>1883.662752356</ele>
        <time>2016-02-11T10:54:22Z</time>
      </trkpt>
      <trkpt lat="45.36303" lon="5.90118">
        <ele>1885.260402335</ele>
        <time>2016-02-11T10:54:32Z</time>
      </trkpt>
      <trkpt lat="45.36302" lon="5.90112">
        <ele>1885.260402335</ele>
        <time>2016-02-11T10:54:37Z</time>
      </trkpt>
      <trkpt lat="45.36301" lon="5.90108">
        <ele>1885.260402335</ele>
        <time>2016-02-11T10:54:42Z</time>
      </trkpt>
      <trkpt lat="45.36301" lon="5.90109">
        <ele>1885.260402335</ele>
        <time>2016-02-11T10:54:48Z</time>
      </trkpt>
      <trkpt lat="45.36301" lon="5.90109">
        <ele>1885.260402335</ele>
        <time>2016-02-11T10:54:52Z</time>
      </trkpt>
      <trkpt lat="45.36301" lon="5.90109">
        <ele>1885.260402335</ele>
        <time>2016-02-11T10:54:56Z</time>
      </trkpt>
      <trkpt lat="45.36301" lon="5.90109">
        <ele>1885.260402335</ele>
        <time>2016-02-11T10:55:07Z</time>
      </trkpt>
      <trkpt lat="45.36301" lon="5.90109">
        <ele>1885.260402335</ele>
        <time>2016-02-11T10:55:11Z</time>
      </trkpt>
      <trkpt lat="45.36301" lon="5.90109">
        <ele>1885.260402335</ele>
        <time>2016-02-11T10:55:21Z</time>
      </trkpt>
      <trkpt lat="45.36301" lon="5.90109">
        <ele>1885.260402335</ele>
        <time>2016-02-11T10:55:27Z</time>
      </trkpt>
      <trkpt lat="45.36301" lon="5.90109">
        <ele>1885.260402335</ele>
        <time>2016-02-11T10:55:37Z</time>
      </trkpt>
      <trkpt lat="45.36301" lon="5.90109">
        <ele>1885.260402335</ele>
        <time>2016-02-11T10:55:41Z</time>
      </trkpt>
      <trkpt lat="45.36298" lon="5.90106">
        <ele>1886.12504958</ele>
        <time>2016-02-11T10:55:51Z</time>
      </trkpt>
      <trkpt lat="45.36297" lon="5.90103">
        <ele>1886.12504958</ele>
        <time>2016-02-11T10:55:56Z</time>
      </trkpt>
      <trkpt lat="45.36297" lon="5.90103">
        <ele>1886.12504958</ele>
        <time>2016-02-11T10:56:12Z</time>
      </trkpt>
      <trkpt lat="45.36297" lon="5.90103">
        <ele>1886.12504958</ele>
        <time>2016-02-11T10:56:22Z</time>
      </trkpt>
      <trkpt lat="45.36297" lon="5.90103">
        <ele>1886.12504958</ele>
        <time>2016-02-11T10:56:28Z</time>
      </trkpt>
      <trkpt lat="45.36297" lon="5.90095">
        <ele>1886.12504958</ele>
        <time>2016-02-11T10:56:43Z</time>
      </trkpt>
      <trkpt lat="45.36293" lon="5.90087">
        <ele>1887.031989612</ele>
        <time>2016-02-11T10:56:53Z</time>
      </trkpt>
      <trkpt lat="45.36291" lon="5.90084">
        <ele>1887.031989612</ele>
        <time>2016-02-11T10:56:57Z</time>
      </trkpt>
      <trkpt lat="45.36287" lon="5.90083">
        <ele>1887.031989612</ele>
        <time>2016-02-11T10:57:02Z</time>
      </trkpt>
      <trkpt lat="45.36278" lon="5.90078">
        <ele>1887.402307225</ele>
        <time>2016-02-11T10:57:11Z</time>
      </trkpt>
      <trkpt lat="45.36273" lon="5.90076">
        <ele>1887.402307225</ele>
        <time>2016-02-11T10:57:16Z</time>
      </trkpt>
      <trkpt lat="45.36267" lon="5.90069">
        <ele>1887.853877867</ele>
        <time>2016-02-11T10:57:27Z</time>
      </trkpt>
      <trkpt lat="45.36264" lon="5.90069">
        <ele>1887.853877867</ele>
        <time>2016-02-11T10:57:31Z</time>
      </trkpt>
      <trkpt lat="45.36266" lon="5.90069">
        <ele>1887.853877867</ele>
        <time>2016-02-11T10:57:42Z</time>
      </trkpt>
      <trkpt lat="45.36266" lon="5.9007">
        <ele>1887.853877867</ele>
        <time>2016-02-11T10:57:47Z</time>
      </trkpt>
      <trkpt lat="45.36267" lon="5.90069">
        <ele>1887.853877867</ele>
        <time>2016-02-11T10:57:57Z</time>
      </trkpt>
      <trkpt lat="45.36267" lon="5.90069">
        <ele>1887.853877867</ele>
        <time>2016-02-11T10:58:02Z</time>
      </trkpt>
      <trkpt lat="45.36267" lon="5.90069">
        <ele>1887.853877867</ele>
        <time>2016-02-11T10:58:12Z</time>
      </trkpt>
      <trkpt lat="45.36267" lon="5.90069">
        <ele>1887.853877867</ele>
        <time>2016-02-11T10:58:17Z</time>
      </trkpt>
      <trkpt lat="45.36267" lon="5.90069">
        <ele>1887.853877867</ele>
        <time>2016-02-11T10:58:27Z</time>
      </trkpt>
      <trkpt lat="45.36267" lon="5.90069">
        <ele>1887.853877867</ele>
        <time>2016-02-11T10:58:32Z</time>
      </trkpt>
      <trkpt lat="45.36267" lon="5.90069">
        <ele>1887.853877867</ele>
        <time>2016-02-11T10:58:43Z</time>
      </trkpt>
      <trkpt lat="45.36265" lon="5.90071">
        <ele>1887.853877867</ele>
        <time>2016-02-11T10:58:47Z</time>
      </trkpt>
      <trkpt lat="45.36261" lon="5.90061">
        <ele>1887.661833716</ele>
        <time>2016-02-11T10:58:57Z</time>
      </trkpt>
      <trkpt lat="45.36261" lon="5.9006">
        <ele>1887.661833716</ele>
        <time>2016-02-11T10:59:01Z</time>
      </trkpt>
      <trkpt lat="45.3626" lon="5.90059">
        <ele>1887.661833716</ele>
        <time>2016-02-11T10:59:06Z</time>
      </trkpt>
      <trkpt lat="45.36258" lon="5.90058">
        <ele>1887.661833716</ele>
        <time>2016-02-11T10:59:11Z</time>
      </trkpt>
      <trkpt lat="45.36251" lon="5.90045">
        <ele>1887.020904072</ele>
        <time>2016-02-11T10:59:22Z</time>
      </trkpt>
      <trkpt lat="45.36249" lon="5.90042">
        <ele>1887.020904072</ele>
        <time>2016-02-11T10:59:26Z</time>
      </trkpt>
      <trkpt lat="45.36243" lon="5.90032">
        <ele>1886.256759964</ele>
        <time>2016-02-11T10:59:36Z</time>
      </trkpt>
      <trkpt lat="45.3624" lon="5.9003">
        <ele>1886.256759964</ele>
        <time>2016-02-11T10:59:41Z</time>
      </trkpt>
      <trkpt lat="45.3624" lon="5.9003">
        <ele>1886.256759964</ele>
        <time>2016-02-11T10:59:51Z</time>
      </trkpt>
      <trkpt lat="45.3624" lon="5.9003">
        <ele>1886.256759964</ele>
        <time>2016-02-11T10:59:56Z</time>
      </trkpt>
      <trkpt lat="45.36228" lon="5.90018">
        <ele>1885.383145881</ele>
        <time>2016-02-11T11:00:06Z</time>
      </trkpt>
      <trkpt lat="45.36225" lon="5.90016">
        <ele>1885.383145881</ele>
        <time>2016-02-11T11:00:11Z</time>
      </trkpt>
      <trkpt lat="45.3622" lon="5.90002">
        <ele>1884.989419087</ele>
        <time>2016-02-11T11:00:21Z</time>
      </trkpt>
      <trkpt lat="45.36217" lon="5.89997">
        <ele>1884.989419087</ele>
        <time>2016-02-11T11:00:26Z</time>
      </trkpt>
      <trkpt lat="45.36211" lon="5.89987">
        <ele>1884.32316363</ele>
        <time>2016-02-11T11:00:36Z</time>
      </trkpt>
      <trkpt lat="45.36211" lon="5.89983">
        <ele>1884.32316363</ele>
        <time>2016-02-11T11:00:41Z</time>
      </trkpt>
      <trkpt lat="45.362" lon="5.89973">
        <ele>1884.128977491</ele>
        <time>2016-02-11T11:00:56Z</time>
      </trkpt>
      <trkpt lat="45.36202" lon="5.8997">
        <ele>1884.128977491</ele>
        <time>2016-02-11T11:01:01Z</time>
      </trkpt>
      <trkpt lat="45.36196" lon="5.89964">
        <ele>1883.510078553</ele>
        <time>2016-02-11T11:01:11Z</time>
      </trkpt>
      <trkpt lat="45.36192" lon="5.8996">
        <ele>1883.510078553</ele>
        <time>2016-02-11T11:01:16Z</time>
      </trkpt>
      <trkpt lat="45.36188" lon="5.89955">
        <ele>1882.645395763</ele>
        <time>2016-02-11T11:01:26Z</time>
      </trkpt>
      <trkpt lat="45.36188" lon="5.89955">
        <ele>1882.645395763</ele>
        <time>2016-02-11T11:01:31Z</time>
      </trkpt>
      <trkpt lat="45.36178" lon="5.8995">
        <ele>1882.421824283</ele>
        <time>2016-02-11T11:01:42Z</time>
      </trkpt>
      <trkpt lat="45.36176" lon="5.89947">
        <ele>1882.421824283</ele>
        <time>2016-02-11T11:01:46Z</time>
      </trkpt>
      <trkpt lat="45.36166" lon="5.8994">
        <ele>1882.218064287</ele>
        <time>2016-02-11T11:01:56Z</time>
      </trkpt>
      <trkpt lat="45.36163" lon="5.89938">
        <ele>1882.218064287</ele>
        <time>2016-02-11T11:02:01Z</time>
      </trkpt>
      <trkpt lat="45.36156" lon="5.89934">
        <ele>1882.034713062</ele>
        <time>2016-02-11T11:02:11Z</time>
      </trkpt>
      <trkpt lat="45.36156" lon="5.89933">
        <ele>1882.034713062</ele>
        <time>2016-02-11T11:02:16Z</time>
      </trkpt>
      <trkpt lat="45.36156" lon="5.89933">
        <ele>1882.034713062</ele>
        <time>2016-02-11T11:02:26Z</time>
      </trkpt>
      <trkpt lat="45.36156" lon="5.89933">
        <ele>1882.034713062</ele>
        <time>2016-02-11T11:02:31Z</time>
      </trkpt>
      <trkpt lat="45.36156" lon="5.89933">
        <ele>1882.034713062</ele>
        <time>2016-02-11T11:02:41Z</time>
      </trkpt>
      <trkpt lat="45.36156" lon="5.89933">
        <ele>1882.034713062</ele>
        <time>2016-02-11T11:02:46Z</time>
      </trkpt>
      <trkpt lat="45.36152" lon="5.89926">
        <ele>1882.034713062</ele>
        <time>2016-02-11T11:02:56Z</time>
      </trkpt>
      <trkpt lat="45.36148" lon="5.89923">
        <ele>1881.295691838</ele>
        <time>2016-02-11T11:03:01Z</time>
      </trkpt>
      <trkpt lat="45.36141" lon="5.89916">
        <ele>1881.295691838</ele>
        <time>2016-02-11T11:03:11Z</time>
      </trkpt>
      <trkpt lat="45.36135" lon="5.8991">
        <ele>1879.756892237</ele>
        <time>2016-02-11T11:03:17Z</time>
      </trkpt>
      <trkpt lat="45.36134" lon="5.89907">
        <ele>1879.756892237</ele>
        <time>2016-02-11T11:03:27Z</time>
      </trkpt>
      <trkpt lat="45.36133" lon="5.89903">
        <ele>1879.756892237</ele>
        <time>2016-02-11T11:03:31Z</time>
      </trkpt>
      <trkpt lat="45.36131" lon="5.89892">
        <ele>1877.050138434</ele>
        <time>2016-02-11T11:03:47Z</time>
      </trkpt>
      <trkpt lat="45.36127" lon="5.89888">
        <ele>1877.050138434</ele>
        <time>2016-02-11T11:04:03Z</time>
      </trkpt>
      <trkpt lat="45.36127" lon="5.89888">
        <ele>1877.050138434</ele>
        <time>2016-02-11T11:04:07Z</time>
      </trkpt>
      <trkpt lat="45.36127" lon="5.89888">
        <ele>1877.050138434</ele>
        <time>2016-02-11T11:04:18Z</time>
      </trkpt>
      <trkpt lat="45.36127" lon="5.89888">
        <ele>1877.050138434</ele>
        <time>2016-02-11T11:04:22Z</time>
      </trkpt>
      <trkpt lat="45.36127" lon="5.89888">
        <ele>1877.050138434</ele>
        <time>2016-02-11T11:04:31Z</time>
      </trkpt>
      <trkpt lat="45.36127" lon="5.89883">
        <ele>1877.050138434</ele>
        <time>2016-02-11T11:04:37Z</time>
      </trkpt>
      <trkpt lat="45.36123" lon="5.89882">
        <ele>1874.566773017</ele>
        <time>2016-02-11T11:04:46Z</time>
      </trkpt>
      <trkpt lat="45.36115" lon="5.8988">
        <ele>1874.566773017</ele>
        <time>2016-02-11T11:04:51Z</time>
      </trkpt>
      <trkpt lat="45.36111" lon="5.89874">
        <ele>1872.009934067</ele>
        <time>2016-02-11T11:05:02Z</time>
      </trkpt>
      <trkpt lat="45.36112" lon="5.89874">
        <ele>1872.009934067</ele>
        <time>2016-02-11T11:05:07Z</time>
      </trkpt>
      <trkpt lat="45.36113" lon="5.89874">
        <ele>1872.009934067</ele>
        <time>2016-02-11T11:05:17Z</time>
      </trkpt>
      <trkpt lat="45.36113" lon="5.89874">
        <ele>1872.009934067</ele>
        <time>2016-02-11T11:05:22Z</time>
      </trkpt>
      <trkpt lat="45.36112" lon="5.89873">
        <ele>1872.009934067</ele>
        <time>2016-02-11T11:05:32Z</time>
      </trkpt>
      <trkpt lat="45.3611" lon="5.89874">
        <ele>1872.009934067</ele>
        <time>2016-02-11T11:05:36Z</time>
      </trkpt>
      <trkpt lat="45.36106" lon="5.89872">
        <ele>1872.009934067</ele>
        <time>2016-02-11T11:05:41Z</time>
      </trkpt>
      <trkpt lat="45.36104" lon="5.89866">
        <ele>1867.807610294</ele>
        <time>2016-02-11T11:05:51Z</time>
      </trkpt>
      <trkpt lat="45.36099" lon="5.89863">
        <ele>1867.807610294</ele>
        <time>2016-02-11T11:05:56Z</time>
      </trkpt>
      <trkpt lat="45.36091" lon="5.89869">
        <ele>1862.957595523</ele>
        <time>2016-02-11T11:06:06Z</time>
      </trkpt>
      <trkpt lat="45.36087" lon="5.89871">
        <ele>1862.957595523</ele>
        <time>2016-02-11T11:06:11Z</time>
      </trkpt>
      <trkpt lat="45.36077" lon="5.89873">
        <ele>1858.386004124</ele>
        <time>2016-02-11T11:06:21Z</time>
      </trkpt>
      <trkpt lat="45.36074" lon="5.89873">
        <ele>1858.386004124</ele>
        <time>2016-02-11T11:06:27Z</time>
      </trkpt>
      <trkpt lat="45.36073" lon="5.89874">
        <ele>1858.386004124</ele>
        <time>2016-02-11T11:06:37Z</time>
      </trkpt>
      <trkpt lat="45.36072" lon="5.89874">
        <ele>1858.386004124</ele>
        <time>2016-02-11T11:06:42Z</time>
      </trkpt>
      <trkpt lat="45.36072" lon="5.89875">
        <ele>1858.386004124</ele>
        <time>2016-02-11T11:06:52Z</time>
      </trkpt>
      <trkpt lat="45.36072" lon="5.89875">
        <ele>1858.386004124</ele>
        <time>2016-02-11T11:06:56Z</time>
      </trkpt>
      <trkpt lat="45.36072" lon="5.89875">
        <ele>1858.386004124</ele>
        <time>2016-02-11T11:07:08Z</time>
      </trkpt>
      <trkpt lat="45.36072" lon="5.89875">
        <ele>1858.386004124</ele>
        <time>2016-02-11T11:07:12Z</time>
      </trkpt>
      <trkpt lat="45.36072" lon="5.8987">
        <ele>1858.386004124</ele>
        <time>2016-02-11T11:07:23Z</time>
      </trkpt>
      <trkpt lat="45.36066" lon="5.89868">
        <ele>1854.517584718</ele>
        <time>2016-02-11T11:07:27Z</time>
      </trkpt>
      <trkpt lat="45.36068" lon="5.89853">
        <ele>1850.590782632</ele>
        <time>2016-02-11T11:07:42Z</time>
      </trkpt>
      <trkpt lat="45.36066" lon="5.89849">
        <ele>1850.590782632</ele>
        <time>2016-02-11T11:07:46Z</time>
      </trkpt>
      <trkpt lat="45.36059" lon="5.8985">
        <ele>1846.044003954</ele>
        <time>2016-02-11T11:07:56Z</time>
      </trkpt>
      <trkpt lat="45.36055" lon="5.89846">
        <ele>1846.044003954</ele>
        <time>2016-02-11T11:08:01Z</time>
      </trkpt>
      <trkpt lat="45.36046" lon="5.89839">
        <ele>1841.511265168</ele>
        <time>2016-02-11T11:08:12Z</time>
      </trkpt>
      <trkpt lat="45.36043" lon="5.89842">
        <ele>1841.511265168</ele>
        <time>2016-02-11T11:08:17Z</time>
      </trkpt>
      <trkpt lat="45.36042" lon="5.89848">
        <ele>1841.511265168</ele>
        <time>2016-02-11T11:08:27Z</time>
      </trkpt>
      <trkpt lat="45.36042" lon="5.89848">
        <ele>1841.511265168</ele>
        <time>2016-02-11T11:08:33Z</time>
      </trkpt>
      <trkpt lat="45.3604" lon="5.89851">
        <ele>1837.29146117</ele>
        <time>2016-02-11T11:08:42Z</time>
      </trkpt>
      <trkpt lat="45.36039" lon="5.89853">
        <ele>1837.29146117</ele>
        <time>2016-02-11T11:08:47Z</time>
      </trkpt>
      <trkpt lat="45.36036" lon="5.89856">
        <ele>1837.29146117</ele>
        <time>2016-02-11T11:08:57Z</time>
      </trkpt>
      <trkpt lat="45.36035" lon="5.89856">
        <ele>1837.29146117</ele>
        <time>2016-02-11T11:09:02Z</time>
      </trkpt>
      <trkpt lat="45.36035" lon="5.89856">
        <ele>1837.29146117</ele>
        <time>2016-02-11T11:09:12Z</time>
      </trkpt>
      <trkpt lat="45.36035" lon="5.89856">
        <ele>1837.29146117</ele>
        <time>2016-02-11T11:09:16Z</time>
      </trkpt>
      <trkpt lat="45.36035" lon="5.89856">
        <ele>1837.29146117</ele>
        <time>2016-02-11T11:09:26Z</time>
      </trkpt>
      <trkpt lat="45.36035" lon="5.89856">
        <ele>1837.29146117</ele>
        <time>2016-02-11T11:09:31Z</time>
      </trkpt>
      <trkpt lat="45.36035" lon="5.89857">
        <ele>1837.29146117</ele>
        <time>2016-02-11T11:09:46Z</time>
      </trkpt>
      <trkpt lat="45.36035" lon="5.89854">
        <ele>1833.660356075</ele>
        <time>2016-02-11T11:09:51Z</time>
      </trkpt>
      <trkpt lat="45.36034" lon="5.89856">
        <ele>1833.660356075</ele>
        <time>2016-02-11T11:10:01Z</time>
      </trkpt>
      <trkpt lat="45.36029" lon="5.89856">
        <ele>1833.660356075</ele>
        <time>2016-02-11T11:10:06Z</time>
      </trkpt>
      <trkpt lat="45.36029" lon="5.89848">
        <ele>1829.862721807</ele>
        <time>2016-02-11T11:10:16Z</time>
      </trkpt>
      <trkpt lat="45.36028" lon="5.89848">
        <ele>1829.862721807</ele>
        <time>2016-02-11T11:10:21Z</time>
      </trkpt>
      <trkpt lat="45.36018" lon="5.89843">
        <ele>1826.495966641</ele>
        <time>2016-02-11T11:10:31Z</time>
      </trkpt>
      <trkpt lat="45.36016" lon="5.89847">
        <ele>1826.495966641</ele>
        <time>2016-02-11T11:10:36Z</time>
      </trkpt>
      <trkpt lat="45.3601" lon="5.89847">
        <ele>1823.535649261</ele>
        <time>2016-02-11T11:10:46Z</time>
      </trkpt>
      <trkpt lat="45.36008" lon="5.89845">
        <ele>1823.535649261</ele>
        <time>2016-02-11T11:10:51Z</time>
      </trkpt>
      <trkpt lat="45.36007" lon="5.8984">
        <ele>1823.535649261</ele>
        <time>2016-02-11T11:11:01Z</time>
      </trkpt>
      <trkpt lat="45.36004" lon="5.8984">
        <ele>1821.966455206</ele>
        <time>2016-02-11T11:11:06Z</time>
      </trkpt>
      <trkpt lat="45.36001" lon="5.89828">
        <ele>1821.966455206</ele>
        <time>2016-02-11T11:11:17Z</time>
      </trkpt>
      <trkpt lat="45.36" lon="5.89824">
        <ele>1819.958421851</ele>
        <time>2016-02-11T11:11:22Z</time>
      </trkpt>
      <trkpt lat="45.35995" lon="5.89826">
        <ele>1819.958421851</ele>
        <time>2016-02-11T11:11:32Z</time>
      </trkpt>
      <trkpt lat="45.35992" lon="5.89824">
        <ele>1819.958421851</ele>
        <time>2016-02-11T11:11:37Z</time>
      </trkpt>
      <trkpt lat="45.35988" lon="5.89825">
        <ele>1817.546291356</ele>
        <time>2016-02-11T11:11:46Z</time>
      </trkpt>
      <trkpt lat="45.35988" lon="5.89825">
        <ele>1817.546291356</ele>
        <time>2016-02-11T11:11:52Z</time>
      </trkpt>
      <trkpt lat="45.35988" lon="5.89825">
        <ele>1817.546291356</ele>
        <time>2016-02-11T11:11:56Z</time>
      </trkpt>
      <trkpt lat="45.35987" lon="5.89825">
        <ele>1817.546291356</ele>
        <time>2016-02-11T11:12:01Z</time>
      </trkpt>
      <trkpt lat="45.35987" lon="5.89825">
        <ele>1817.546291356</ele>
        <time>2016-02-11T11:12:06Z</time>
      </trkpt>
      <trkpt lat="45.35987" lon="5.89825">
        <ele>1817.546291356</ele>
        <time>2016-02-11T11:12:11Z</time>
      </trkpt>
      <trkpt lat="45.35987" lon="5.89825">
        <ele>1817.546291356</ele>
        <time>2016-02-11T11:12:16Z</time>
      </trkpt>
      <trkpt lat="45.35987" lon="5.89825">
        <ele>1817.546291356</ele>
        <time>2016-02-11T11:12:21Z</time>
      </trkpt>
      <trkpt lat="45.35985" lon="5.89822">
        <ele>1817.546291356</ele>
        <time>2016-02-11T11:12:26Z</time>
      </trkpt>
      <trkpt lat="45.35982" lon="5.89821">
        <ele>1817.546291356</ele>
        <time>2016-02-11T11:12:31Z</time>
      </trkpt>
      <trkpt lat="45.35979" lon="5.89812">
        <ele>1815.916002525</ele>
        <time>2016-02-11T11:12:36Z</time>
      </trkpt>
      <trkpt lat="45.35974" lon="5.89802">
        <ele>1815.916002525</ele>
        <time>2016-02-11T11:12:41Z</time>
      </trkpt>
      <trkpt lat="45.35972" lon="5.89801">
        <ele>1813.714032585</ele>
        <time>2016-02-11T11:12:46Z</time>
      </trkpt>
      <trkpt lat="45.35966" lon="5.89796">
        <ele>1813.714032585</ele>
        <time>2016-02-11T11:12:51Z</time>
      </trkpt>
      <trkpt lat="45.35965" lon="5.89791">
        <ele>1812.13753557</ele>
        <time>2016-02-11T11:12:56Z</time>
      </trkpt>
      <trkpt lat="45.35965" lon="5.89789">
        <ele>1812.13753557</ele>
        <time>2016-02-11T11:13:01Z</time>
      </trkpt>
      <trkpt lat="45.35958" lon="5.89779">
        <ele>1811.429072057</ele>
        <time>2016-02-11T11:13:06Z</time>
      </trkpt>
      <trkpt lat="45.35958" lon="5.89777">
        <ele>1811.429072057</ele>
        <time>2016-02-11T11:13:11Z</time>
      </trkpt>
      <trkpt lat="45.35954" lon="5.89775">
        <ele>1811.429072057</ele>
        <time>2016-02-11T11:13:18Z</time>
      </trkpt>
      <trkpt lat="45.35952" lon="5.89778">
        <ele>1811.429072057</ele>
        <time>2016-02-11T11:13:26Z</time>
      </trkpt>
      <trkpt lat="45.35952" lon="5.89779">
        <ele>1810.801959566</ele>
        <time>2016-02-11T11:13:32Z</time>
      </trkpt>
      <trkpt lat="45.35951" lon="5.89779">
        <ele>1810.801959566</ele>
        <time>2016-02-11T11:13:42Z</time>
      </trkpt>
      <trkpt lat="45.35951" lon="5.89779">
        <ele>1810.801959566</ele>
        <time>2016-02-11T11:13:46Z</time>
      </trkpt>
      <trkpt lat="45.35949" lon="5.89782">
        <ele>1810.801959566</ele>
        <time>2016-02-11T11:14:03Z</time>
      </trkpt>
      <trkpt lat="45.35949" lon="5.89782">
        <ele>1810.801959566</ele>
        <time>2016-02-11T11:14:07Z</time>
      </trkpt>
      <trkpt lat="45.35944" lon="5.89783">
        <ele>1810.53566374</ele>
        <time>2016-02-11T11:14:17Z</time>
      </trkpt>
      <trkpt lat="45.35938" lon="5.89782">
        <ele>1810.53566374</ele>
        <time>2016-02-11T11:14:22Z</time>
      </trkpt>
      <trkpt lat="45.35935" lon="5.89783">
        <ele>1810.53566374</ele>
        <time>2016-02-11T11:14:32Z</time>
      </trkpt>
      <trkpt lat="45.35935" lon="5.89784">
        <ele>1811.320275554</ele>
        <time>2016-02-11T11:14:37Z</time>
      </trkpt>
      <trkpt lat="45.35935" lon="5.89784">
        <ele>1811.320275554</ele>
        <time>2016-02-11T11:14:48Z</time>
      </trkpt>
      <trkpt lat="45.35935" lon="5.89784">
        <ele>1811.320275554</ele>
        <time>2016-02-11T11:14:52Z</time>
      </trkpt>
      <trkpt lat="45.35928" lon="5.89783">
        <ele>1811.320275554</ele>
        <time>2016-02-11T11:15:02Z</time>
      </trkpt>
      <trkpt lat="45.35927" lon="5.89778">
        <ele>1812.78332723</ele>
        <time>2016-02-11T11:15:07Z</time>
      </trkpt>
      <trkpt lat="45.3592" lon="5.89777">
        <ele>1812.78332723</ele>
        <time>2016-02-11T11:15:18Z</time>
      </trkpt>
      <trkpt lat="45.3592" lon="5.89777">
        <ele>1812.78332723</ele>
        <time>2016-02-11T11:15:22Z</time>
      </trkpt>
      <trkpt lat="45.3592" lon="5.89776">
        <ele>1812.78332723</ele>
        <time>2016-02-11T11:15:32Z</time>
      </trkpt>
      <trkpt lat="45.3592" lon="5.89776">
        <ele>1812.78332723</ele>
        <time>2016-02-11T11:15:37Z</time>
      </trkpt>
      <trkpt lat="45.35912" lon="5.8977">
        <ele>1814.865923618</ele>
        <time>2016-02-11T11:15:47Z</time>
      </trkpt>
      <trkpt lat="45.35909" lon="5.8977">
        <ele>1814.865923618</ele>
        <time>2016-02-11T11:15:52Z</time>
      </trkpt>
      <trkpt lat="45.35908" lon="5.89769">
        <ele>1814.865923618</ele>
        <time>2016-02-11T11:16:02Z</time>
      </trkpt>
      <trkpt lat="45.35908" lon="5.89769">
        <ele>1814.865923618</ele>
        <time>2016-02-11T11:16:07Z</time>
      </trkpt>
      <trkpt lat="45.35906" lon="5.8977">
        <ele>1814.865923618</ele>
        <time>2016-02-11T11:16:12Z</time>
      </trkpt>
      <trkpt lat="45.35901" lon="5.89773">
        <ele>1817.079350781</ele>
        <time>2016-02-11T11:16:21Z</time>
      </trkpt>
      <trkpt lat="45.35901" lon="5.89774">
        <ele>1817.079350781</ele>
        <time>2016-02-11T11:16:26Z</time>
      </trkpt>
      <trkpt lat="45.35895" lon="5.89769">
        <ele>1817.079350781</ele>
        <time>2016-02-11T11:16:37Z</time>
      </trkpt>
      <trkpt lat="45.35892" lon="5.89766">
        <ele>1819.402724323</ele>
        <time>2016-02-11T11:16:41Z</time>
      </trkpt>
      <trkpt lat="45.35887" lon="5.89763">
        <ele>1819.402724323</ele>
        <time>2016-02-11T11:16:51Z</time>
      </trkpt>
      <trkpt lat="45.35884" lon="5.8976">
        <ele>1821.528161359</ele>
        <time>2016-02-11T11:16:56Z</time>
      </trkpt>
      <trkpt lat="45.35883" lon="5.89753">
        <ele>1821.528161359</ele>
        <time>2016-02-11T11:17:06Z</time>
      </trkpt>
      <trkpt lat="45.35877" lon="5.89752">
        <ele>1823.60331674</ele>
        <time>2016-02-11T11:17:11Z</time>
      </trkpt>
      <trkpt lat="45.35872" lon="5.89735">
        <ele>1825.476980317</ele>
        <time>2016-02-11T11:17:23Z</time>
      </trkpt>
      <trkpt lat="45.35867" lon="5.89734">
        <ele>1825.476980317</ele>
        <time>2016-02-11T11:17:27Z</time>
      </trkpt>
      <trkpt lat="45.35856" lon="5.89729">
        <ele>1826.577370742</ele>
        <time>2016-02-11T11:17:42Z</time>
      </trkpt>
      <trkpt lat="45.35855" lon="5.89728">
        <ele>1826.577370742</ele>
        <time>2016-02-11T11:17:47Z</time>
      </trkpt>
      <trkpt lat="45.35848" lon="5.8973">
        <ele>1826.577370742</ele>
        <time>2016-02-11T11:17:57Z</time>
      </trkpt>
      <trkpt lat="45.35847" lon="5.89729">
        <ele>1828.106324878</ele>
        <time>2016-02-11T11:18:02Z</time>
      </trkpt>
      <trkpt lat="45.35847" lon="5.89731">
        <ele>1828.106324878</ele>
        <time>2016-02-11T11:18:12Z</time>
      </trkpt>
      <trkpt lat="45.35846" lon="5.89732">
        <ele>1828.106324878</ele>
        <time>2016-02-11T11:18:17Z</time>
      </trkpt>
      <trkpt lat="45.35846" lon="5.89732">
        <ele>1828.106324878</ele>
        <time>2016-02-11T11:18:28Z</time>
      </trkpt>
      <trkpt lat="45.35846" lon="5.89732">
        <ele>1828.106324878</ele>
        <time>2016-02-11T11:18:32Z</time>
      </trkpt>
      <trkpt lat="45.35846" lon="5.89732">
        <ele>1828.106324878</ele>
        <time>2016-02-11T11:18:42Z</time>
      </trkpt>
      <trkpt lat="45.35846" lon="5.89732">
        <ele>1828.106324878</ele>
        <time>2016-02-11T11:18:47Z</time>
      </trkpt>
      <trkpt lat="45.35846" lon="5.89732">
        <ele>1828.106324878</ele>
        <time>2016-02-11T11:18:57Z</time>
      </trkpt>
      <trkpt lat="45.35846" lon="5.89732">
        <ele>1828.106324878</ele>
        <time>2016-02-11T11:19:02Z</time>
      </trkpt>
      <trkpt lat="45.35845" lon="5.89732">
        <ele>1828.106324878</ele>
        <time>2016-02-11T11:19:17Z</time>
      </trkpt>
      <trkpt lat="45.35844" lon="5.89732">
        <ele>1828.106324878</ele>
        <time>2016-02-11T11:19:22Z</time>
      </trkpt>
      <trkpt lat="45.3584" lon="5.89723">
        <ele>1830.167545505</ele>
        <time>2016-02-11T11:19:33Z</time>
      </trkpt>
      <trkpt lat="45.35837" lon="5.89719">
        <ele>1830.167545505</ele>
        <time>2016-02-11T11:19:37Z</time>
      </trkpt>
      <trkpt lat="45.3583" lon="5.89708">
        <ele>1831.558773346</ele>
        <time>2016-02-11T11:19:46Z</time>
      </trkpt>
      <trkpt lat="45.3583" lon="5.89703">
        <ele>1831.558773346</ele>
        <time>2016-02-11T11:19:51Z</time>
      </trkpt>
      <trkpt lat="45.35823" lon="5.89698">
        <ele>1832.753333202</ele>
        <time>2016-02-11T11:20:01Z</time>
      </trkpt>
      <trkpt lat="45.35819" lon="5.89692">
        <ele>1832.753333202</ele>
        <time>2016-02-11T11:20:06Z</time>
      </trkpt>
      <trkpt lat="45.35815" lon="5.89691">
        <ele>1832.893506815</ele>
        <time>2016-02-11T11:20:16Z</time>
      </trkpt>
      <trkpt lat="45.35815" lon="5.89699">
        <ele>1832.893506815</ele>
        <time>2016-02-11T11:20:22Z</time>
      </trkpt>
      <trkpt lat="45.35809" lon="5.89727">
        <ele>1832.917058559</ele>
        <time>2016-02-11T11:20:36Z</time>
      </trkpt>
      <trkpt lat="45.35808" lon="5.89728">
        <ele>1831.819931176</ele>
        <time>2016-02-11T11:20:51Z</time>
      </trkpt>
      <trkpt lat="45.35813" lon="5.8974">
        <ele>1829.828036448</ele>
        <time>2016-02-11T11:21:07Z</time>
      </trkpt>
      <trkpt lat="45.35812" lon="5.8974">
        <ele>1829.828036448</ele>
        <time>2016-02-11T11:21:12Z</time>
      </trkpt>
      <trkpt lat="45.35813" lon="5.89741">
        <ele>1829.828036448</ele>
        <time>2016-02-11T11:21:16Z</time>
      </trkpt>
      <trkpt lat="45.35814" lon="5.8974">
        <ele>1829.828036448</ele>
        <time>2016-02-11T11:21:21Z</time>
      </trkpt>
      <trkpt lat="45.35814" lon="5.89741">
        <ele>1829.828036448</ele>
        <time>2016-02-11T11:21:26Z</time>
      </trkpt>
      <trkpt lat="45.35814" lon="5.89741">
        <ele>1829.828036448</ele>
        <time>2016-02-11T11:21:31Z</time>
      </trkpt>
      <trkpt lat="45.35814" lon="5.89741">
        <ele>1829.828036448</ele>
        <time>2016-02-11T11:21:37Z</time>
      </trkpt>
      <trkpt lat="45.35811" lon="5.89742">
        <ele>1829.828036448</ele>
        <time>2016-02-11T11:21:53Z</time>
      </trkpt>
      <trkpt lat="45.3581" lon="5.89746">
        <ele>1827.441590099</ele>
        <time>2016-02-11T11:21:57Z</time>
      </trkpt>
      <trkpt lat="45.35808" lon="5.89752">
        <ele>1827.441590099</ele>
        <time>2016-02-11T11:22:07Z</time>
      </trkpt>
      <trkpt lat="45.35808" lon="5.89752">
        <ele>1827.441590099</ele>
        <time>2016-02-11T11:22:12Z</time>
      </trkpt>
      <trkpt lat="45.35812" lon="5.89754">
        <ele>1824.548874525</ele>
        <time>2016-02-11T11:22:21Z</time>
      </trkpt>
      <trkpt lat="45.35818" lon="5.89763">
        <ele>1824.548874525</ele>
        <time>2016-02-11T11:22:27Z</time>
      </trkpt>
      <trkpt lat="45.35818" lon="5.89773">
        <ele>1820.615593027</ele>
        <time>2016-02-11T11:22:36Z</time>
      </trkpt>
      <trkpt lat="45.35822" lon="5.89782">
        <ele>1820.615593027</ele>
        <time>2016-02-11T11:22:42Z</time>
      </trkpt>
      <trkpt lat="45.35822" lon="5.89784">
        <ele>1820.615593027</ele>
        <time>2016-02-11T11:22:52Z</time>
      </trkpt>
      <trkpt lat="45.35822" lon="5.89785">
        <ele>1816.014384728</ele>
        <time>2016-02-11T11:22:57Z</time>
      </trkpt>
      <trkpt lat="45.35824" lon="5.89784">
        <ele>1816.014384728</ele>
        <time>2016-02-11T11:23:13Z</time>
      </trkpt>
      <trkpt lat="45.35824" lon="5.89784">
        <ele>1816.014384728</ele>
        <time>2016-02-11T11:23:23Z</time>
      </trkpt>
      <trkpt lat="45.35818" lon="5.89806">
        <ele>1811.092458986</ele>
        <time>2016-02-11T11:23:42Z</time>
      </trkpt>
      <trkpt lat="45.3582" lon="5.89835">
        <ele>1804.731342533</ele>
        <time>2016-02-11T11:23:47Z</time>
      </trkpt>
      <trkpt lat="45.35827" lon="5.89869">
        <ele>1797.195757447</ele>
        <time>2016-02-11T11:23:56Z</time>
      </trkpt>
      <trkpt lat="45.35828" lon="5.89867">
        <ele>1797.195757447</ele>
        <time>2016-02-11T11:24:02Z</time>
      </trkpt>
      <trkpt lat="45.35828" lon="5.89868">
        <ele>1797.195757447</ele>
        <time>2016-02-11T11:24:12Z</time>
      </trkpt>
      <trkpt lat="45.35828" lon="5.89868">
        <ele>1797.195757447</ele>
        <time>2016-02-11T11:24:17Z</time>
      </trkpt>
      <trkpt lat="45.35828" lon="5.89868">
        <ele>1797.195757447</ele>
        <time>2016-02-11T11:24:28Z</time>
      </trkpt>
      <trkpt lat="45.35829" lon="5.89868">
        <ele>1797.195757447</ele>
        <time>2016-02-11T11:24:33Z</time>
      </trkpt>
      <trkpt lat="45.3583" lon="5.89891">
        <ele>1786.716664817</ele>
        <time>2016-02-11T11:24:42Z</time>
      </trkpt>
      <trkpt lat="45.3583" lon="5.89904">
        <ele>1776.851131709</ele>
        <time>2016-02-11T11:24:47Z</time>
      </trkpt>
      <trkpt lat="45.35832" lon="5.89933">
        <ele>1765.705035611</ele>
        <time>2016-02-11T11:24:57Z</time>
      </trkpt>
      <trkpt lat="45.35833" lon="5.89956">
        <ele>1754.841315359</ele>
        <time>2016-02-11T11:25:02Z</time>
      </trkpt>
      <trkpt lat="45.35833" lon="5.90007">
        <ele>1742.824788561</ele>
        <time>2016-02-11T11:25:12Z</time>
      </trkpt>
      <trkpt lat="45.35833" lon="5.90006">
        <ele>1742.824788561</ele>
        <time>2016-02-11T11:25:17Z</time>
      </trkpt>
      <trkpt lat="45.3583" lon="5.90039">
        <ele>1728.040353001</ele>
        <time>2016-02-11T11:25:27Z</time>
      </trkpt>
      <trkpt lat="45.35826" lon="5.90055">
        <ele>1714.186893144</ele>
        <time>2016-02-11T11:25:32Z</time>
      </trkpt>
      <trkpt lat="45.35829" lon="5.90061">
        <ele>1684.964482527</ele>
        <time>2016-02-11T11:26:21Z</time>
      </trkpt>
      <trkpt lat="45.35828" lon="5.90066">
        <ele>1654.777543335</ele>
        <time>2016-02-11T11:27:16Z</time>
      </trkpt>
      <trkpt lat="45.35824" lon="5.90075">
        <ele>1640.286363541</ele>
        <time>2016-02-11T11:27:31Z</time>
      </trkpt>
      <trkpt lat="45.35814" lon="5.90101">
        <ele>1624.893195016</ele>
        <time>2016-02-11T11:27:47Z</time>
      </trkpt>
      <trkpt lat="45.35812" lon="5.90105">
        <ele>1624.893195016</ele>
        <time>2016-02-11T11:27:51Z</time>
      </trkpt>
      <trkpt lat="45.35803" lon="5.90125">
        <ele>1610.283428269</ele>
        <time>2016-02-11T11:28:02Z</time>
      </trkpt>
      <trkpt lat="45.35803" lon="5.90129">
        <ele>1610.283428269</ele>
        <time>2016-02-11T11:28:07Z</time>
      </trkpt>
      <trkpt lat="45.35797" lon="5.90143">
        <ele>1596.430369461</ele>
        <time>2016-02-11T11:28:18Z</time>
      </trkpt>
      <trkpt lat="45.35797" lon="5.90144">
        <ele>1596.430369461</ele>
        <time>2016-02-11T11:28:22Z</time>
      </trkpt>
      <trkpt lat="45.35796" lon="5.9015">
        <ele>1596.430369461</ele>
        <time>2016-02-11T11:28:33Z</time>
      </trkpt>
      <trkpt lat="45.35796" lon="5.90149">
        <ele>1596.430369461</ele>
        <time>2016-02-11T11:28:37Z</time>
      </trkpt>
      <trkpt lat="45.35796" lon="5.90149">
        <ele>1596.430369461</ele>
        <time>2016-02-11T11:28:41Z</time>
      </trkpt>
      <trkpt lat="45.35796" lon="5.90149">
        <ele>1596.430369461</ele>
        <time>2016-02-11T11:28:46Z</time>
      </trkpt>
      <trkpt lat="45.35796" lon="5.90149">
        <ele>1596.430369461</ele>
        <time>2016-02-11T11:28:51Z</time>
      </trkpt>
      <trkpt lat="45.35796" lon="5.90149">
        <ele>1596.430369461</ele>
        <time>2016-02-11T11:28:56Z</time>
      </trkpt>
      <trkpt lat="45.35796" lon="5.90149">
        <ele>1596.430369461</ele>
        <time>2016-02-11T11:29:01Z</time>
      </trkpt>
      <trkpt lat="45.35796" lon="5.90147">
        <ele>1596.430369461</ele>
        <time>2016-02-11T11:29:11Z</time>
      </trkpt>
      <trkpt lat="45.35796" lon="5.90149">
        <ele>1596.430369461</ele>
        <time>2016-02-11T11:29:16Z</time>
      </trkpt>
      <trkpt lat="45.35791" lon="5.90154">
        <ele>1582.009278187</ele>
        <time>2016-02-11T11:29:26Z</time>
      </trkpt>
      <trkpt lat="45.35788" lon="5.90159">
        <ele>1582.009278187</ele>
        <time>2016-02-11T11:29:31Z</time>
      </trkpt>
      <trkpt lat="45.35787" lon="5.90168">
        <ele>1568.243306764</ele>
        <time>2016-02-11T11:29:42Z</time>
      </trkpt>
      <trkpt lat="45.35785" lon="5.90171">
        <ele>1568.243306764</ele>
        <time>2016-02-11T11:29:47Z</time>
      </trkpt>
      <trkpt lat="45.35781" lon="5.90175">
        <ele>1568.243306764</ele>
        <time>2016-02-11T11:29:51Z</time>
      </trkpt>
      <trkpt lat="45.3578" lon="5.90177">
        <ele>1555.542443986</ele>
        <time>2016-02-11T11:29:57Z</time>
      </trkpt>
      <trkpt lat="45.35778" lon="5.90178">
        <ele>1555.542443986</ele>
        <time>2016-02-11T11:30:02Z</time>
      </trkpt>
      <trkpt lat="45.3578" lon="5.90177">
        <ele>1555.542443986</ele>
        <time>2016-02-11T11:30:07Z</time>
      </trkpt>
      <trkpt lat="45.35777" lon="5.90186">
        <ele>1543.562094583</ele>
        <time>2016-02-11T11:30:16Z</time>
      </trkpt>
      <trkpt lat="45.35775" lon="5.90189">
        <ele>1543.562094583</ele>
        <time>2016-02-11T11:30:22Z</time>
      </trkpt>
      <trkpt lat="45.35772" lon="5.90199">
        <ele>1532.700592766</ele>
        <time>2016-02-11T11:30:33Z</time>
      </trkpt>
      <trkpt lat="45.35771" lon="5.90202">
        <ele>1532.700592766</ele>
        <time>2016-02-11T11:30:37Z</time>
      </trkpt>
      <trkpt lat="45.35771" lon="5.90206">
        <ele>1532.700592766</ele>
        <time>2016-02-11T11:30:47Z</time>
      </trkpt>
      <trkpt lat="45.35771" lon="5.90206">
        <ele>1532.700592766</ele>
        <time>2016-02-11T11:30:52Z</time>
      </trkpt>
      <trkpt lat="45.35764" lon="5.90223">
        <ele>1522.025965981</ele>
        <time>2016-02-11T11:31:01Z</time>
      </trkpt>
      <trkpt lat="45.35766" lon="5.9022">
        <ele>1522.025965981</ele>
        <time>2016-02-11T11:31:08Z</time>
      </trkpt>
      <trkpt lat="45.35766" lon="5.90226">
        <ele>1522.025965981</ele>
        <time>2016-02-11T11:31:17Z</time>
      </trkpt>
      <trkpt lat="45.35763" lon="5.9023">
        <ele>1511.24973781</ele>
        <time>2016-02-11T11:31:22Z</time>
      </trkpt>
      <trkpt lat="45.35759" lon="5.90242">
        <ele>1502.265716696</ele>
        <time>2016-02-11T11:31:33Z</time>
      </trkpt>
      <trkpt lat="45.35757" lon="5.90241">
        <ele>1502.265716696</ele>
        <time>2016-02-11T11:31:37Z</time>
      </trkpt>
      <trkpt lat="45.3575" lon="5.90254">
        <ele>1494.228739107</ele>
        <time>2016-02-11T11:31:47Z</time>
      </trkpt>
      <trkpt lat="45.35749" lon="5.90257">
        <ele>1494.228739107</ele>
        <time>2016-02-11T11:31:52Z</time>
      </trkpt>
      <trkpt lat="45.3574" lon="5.90271">
        <ele>1485.487615171</ele>
        <time>2016-02-11T11:32:07Z</time>
      </trkpt>
      <trkpt lat="45.35741" lon="5.90271">
        <ele>1485.487615171</ele>
        <time>2016-02-11T11:32:11Z</time>
      </trkpt>
      <trkpt lat="45.35737" lon="5.90284">
        <ele>1476.531235316</ele>
        <time>2016-02-11T11:32:22Z</time>
      </trkpt>
      <trkpt lat="45.35735" lon="5.9029">
        <ele>1476.531235316</ele>
        <time>2016-02-11T11:32:26Z</time>
      </trkpt>
      <trkpt lat="45.35736" lon="5.90291">
        <ele>1476.531235316</ele>
        <time>2016-02-11T11:32:38Z</time>
      </trkpt>
      <trkpt lat="45.35736" lon="5.90291">
        <ele>1476.531235316</ele>
        <time>2016-02-11T11:32:42Z</time>
      </trkpt>
      <trkpt lat="45.35736" lon="5.90291">
        <ele>1476.531235316</ele>
        <time>2016-02-11T11:32:46Z</time>
      </trkpt>
      <trkpt lat="45.35736" lon="5.90291">
        <ele>1476.531235316</ele>
        <time>2016-02-11T11:32:51Z</time>
      </trkpt>
      <trkpt lat="45.35736" lon="5.90291">
        <ele>1476.531235316</ele>
        <time>2016-02-11T11:32:56Z</time>
      </trkpt>
      <trkpt lat="45.35736" lon="5.90291">
        <ele>1476.531235316</ele>
        <time>2016-02-11T11:33:01Z</time>
      </trkpt>
      <trkpt lat="45.35736" lon="5.90291">
        <ele>1476.531235316</ele>
        <time>2016-02-11T11:33:06Z</time>
      </trkpt>
      <trkpt lat="45.35734" lon="5.90297">
        <ele>1468.533033661</ele>
        <time>2016-02-11T11:33:17Z</time>
      </trkpt>
      <trkpt lat="45.3573" lon="5.90305">
        <ele>1468.533033661</ele>
        <time>2016-02-11T11:33:25Z</time>
      </trkpt>
      <trkpt lat="45.35724" lon="5.90319">
        <ele>1460.559341752</ele>
        <time>2016-02-11T11:33:33Z</time>
      </trkpt>
      <trkpt lat="45.35723" lon="5.90321">
        <ele>1460.559341752</ele>
        <time>2016-02-11T11:33:36Z</time>
      </trkpt>
      <trkpt lat="45.35718" lon="5.90331">
        <ele>1452.753172262</ele>
        <time>2016-02-11T11:33:47Z</time>
      </trkpt>
      <trkpt lat="45.35714" lon="5.90337">
        <ele>1452.753172262</ele>
        <time>2016-02-11T11:33:53Z</time>
      </trkpt>
      <trkpt lat="45.35713" lon="5.9034">
        <ele>1452.753172262</ele>
        <time>2016-02-11T11:33:56Z</time>
      </trkpt>
      <trkpt lat="45.35709" lon="5.90347">
        <ele>1444.957768855</ele>
        <time>2016-02-11T11:34:06Z</time>
      </trkpt>
      <trkpt lat="45.35707" lon="5.9035">
        <ele>1444.957768855</ele>
        <time>2016-02-11T11:34:11Z</time>
      </trkpt>
      <trkpt lat="45.35704" lon="5.90363">
        <ele>1437.459667158</ele>
        <time>2016-02-11T11:34:22Z</time>
      </trkpt>
      <trkpt lat="45.35702" lon="5.90371">
        <ele>1437.459667158</ele>
        <time>2016-02-11T11:34:28Z</time>
      </trkpt>
      <trkpt lat="45.357" lon="5.90377">
        <ele>1430.667149379</ele>
        <time>2016-02-11T11:34:38Z</time>
      </trkpt>
      <trkpt lat="45.35701" lon="5.90375">
        <ele>1430.667149379</ele>
        <time>2016-02-11T11:34:42Z</time>
      </trkpt>
      <trkpt lat="45.35705" lon="5.9038">
        <ele>1430.667149379</ele>
        <time>2016-02-11T11:34:53Z</time>
      </trkpt>
      <trkpt lat="45.35699" lon="5.90385">
        <ele>1423.94731092</ele>
        <time>2016-02-11T11:34:57Z</time>
      </trkpt>
      <trkpt lat="45.35693" lon="5.90396">
        <ele>1417.866034227</ele>
        <time>2016-02-11T11:35:07Z</time>
      </trkpt>
      <trkpt lat="45.35692" lon="5.90403">
        <ele>1417.866034227</ele>
        <time>2016-02-11T11:35:12Z</time>
      </trkpt>
      <trkpt lat="45.35697" lon="5.90403">
        <ele>1412.080829719</ele>
        <time>2016-02-11T11:35:23Z</time>
      </trkpt>
      <trkpt lat="45.35698" lon="5.90403">
        <ele>1412.080829719</ele>
        <time>2016-02-11T11:35:28Z</time>
      </trkpt>
      <trkpt lat="45.35697" lon="5.90404">
        <ele>1412.080829719</ele>
        <time>2016-02-11T11:35:38Z</time>
      </trkpt>
      <trkpt lat="45.35697" lon="5.90404">
        <ele>1412.080829719</ele>
        <time>2016-02-11T11:35:44Z</time>
      </trkpt>
      <trkpt lat="45.35684" lon="5.90421">
        <ele>1406.705573449</ele>
        <time>2016-02-11T11:35:53Z</time>
      </trkpt>
      <trkpt lat="45.35684" lon="5.90419">
        <ele>1406.705573449</ele>
        <time>2016-02-11T11:35:57Z</time>
      </trkpt>
      <trkpt lat="45.35679" lon="5.90423">
        <ele>1406.705573449</ele>
        <time>2016-02-11T11:36:11Z</time>
      </trkpt>
      <trkpt lat="45.35673" lon="5.90428">
        <ele>1400.403264211</ele>
        <time>2016-02-11T11:36:16Z</time>
      </trkpt>
      <trkpt lat="45.35672" lon="5.90438">
        <ele>1400.403264211</ele>
        <time>2016-02-11T11:36:26Z</time>
      </trkpt>
      <trkpt lat="45.35669" lon="5.90441">
        <ele>1394.819735423</ele>
        <time>2016-02-11T11:36:31Z</time>
      </trkpt>
      <trkpt lat="45.35665" lon="5.90446">
        <ele>1394.819735423</ele>
        <time>2016-02-11T11:36:42Z</time>
      </trkpt>
      <trkpt lat="45.35664" lon="5.90447">
        <ele>1394.819735423</ele>
        <time>2016-02-11T11:36:47Z</time>
      </trkpt>
      <trkpt lat="45.3566" lon="5.90452">
        <ele>1388.307293235</ele>
        <time>2016-02-11T11:36:57Z</time>
      </trkpt>
      <trkpt lat="45.35658" lon="5.90455">
        <ele>1388.307293235</ele>
        <time>2016-02-11T11:37:01Z</time>
      </trkpt>
      <trkpt lat="45.35652" lon="5.90459">
        <ele>1388.307293235</ele>
        <time>2016-02-11T11:37:13Z</time>
      </trkpt>
      <trkpt lat="45.35649" lon="5.90468">
        <ele>1382.36809823</ele>
        <time>2016-02-11T11:37:17Z</time>
      </trkpt>
      <trkpt lat="45.35646" lon="5.90473">
        <ele>1382.36809823</ele>
        <time>2016-02-11T11:37:28Z</time>
      </trkpt>
      <trkpt lat="45.35644" lon="5.90481">
        <ele>1376.951154865</ele>
        <time>2016-02-11T11:37:32Z</time>
      </trkpt>
      <trkpt lat="45.35646" lon="5.90478">
        <ele>1376.951154865</ele>
        <time>2016-02-11T11:37:48Z</time>
      </trkpt>
      <trkpt lat="45.35646" lon="5.90478">
        <ele>1376.951154865</ele>
        <time>2016-02-11T11:37:52Z</time>
      </trkpt>
      <trkpt lat="45.35646" lon="5.90478">
        <ele>1376.951154865</ele>
        <time>2016-02-11T11:38:02Z</time>
      </trkpt>
      <trkpt lat="45.35646" lon="5.90478">
        <ele>1376.951154865</ele>
        <time>2016-02-11T11:38:07Z</time>
      </trkpt>
      <trkpt lat="45.35646" lon="5.90478">
        <ele>1376.951154865</ele>
        <time>2016-02-11T11:38:18Z</time>
      </trkpt>
      <trkpt lat="45.35646" lon="5.90478">
        <ele>1376.951154865</ele>
        <time>2016-02-11T11:38:22Z</time>
      </trkpt>
      <trkpt lat="45.35646" lon="5.90477">
        <ele>1376.951154865</ele>
        <time>2016-02-11T11:38:37Z</time>
      </trkpt>
      <trkpt lat="45.35646" lon="5.90477">
        <ele>1376.951154865</ele>
        <time>2016-02-11T11:38:48Z</time>
      </trkpt>
      <trkpt lat="45.35646" lon="5.90477">
        <ele>1376.951154865</ele>
        <time>2016-02-11T11:38:52Z</time>
      </trkpt>
      <trkpt lat="45.35646" lon="5.90477">
        <ele>1376.951154865</ele>
        <time>2016-02-11T11:39:07Z</time>
      </trkpt>
      <trkpt lat="45.35646" lon="5.90477">
        <ele>1376.951154865</ele>
        <time>2016-02-11T11:39:13Z</time>
      </trkpt>
      <trkpt lat="45.35646" lon="5.90477">
        <ele>1376.951154865</ele>
        <time>2016-02-11T11:39:23Z</time>
      </trkpt>
      <trkpt lat="45.35646" lon="5.90477">
        <ele>1376.951154865</ele>
        <time>2016-02-11T11:39:27Z</time>
      </trkpt>
      <trkpt lat="45.35646" lon="5.90477">
        <ele>1376.951154865</ele>
        <time>2016-02-11T11:39:37Z</time>
      </trkpt>
      <trkpt lat="45.35646" lon="5.90477">
        <ele>1376.951154865</ele>
        <time>2016-02-11T11:39:41Z</time>
      </trkpt>
      <trkpt lat="45.35646" lon="5.90477">
        <ele>1376.951154865</ele>
        <time>2016-02-11T11:39:51Z</time>
      </trkpt>
      <trkpt lat="45.35646" lon="5.90477">
        <ele>1376.951154865</ele>
        <time>2016-02-11T11:39:56Z</time>
      </trkpt>
      <trkpt lat="45.35646" lon="5.90477">
        <ele>1376.951154865</ele>
        <time>2016-02-11T11:40:07Z</time>
      </trkpt>
      <trkpt lat="45.35646" lon="5.90477">
        <ele>1376.951154865</ele>
        <time>2016-02-11T11:40:12Z</time>
      </trkpt>
      <trkpt lat="45.35646" lon="5.90477">
        <ele>1376.951154865</ele>
        <time>2016-02-11T11:40:23Z</time>
      </trkpt>
      <trkpt lat="45.35646" lon="5.90477">
        <ele>1376.951154865</ele>
        <time>2016-02-11T11:40:27Z</time>
      </trkpt>
      <trkpt lat="45.35646" lon="5.90477">
        <ele>1376.951154865</ele>
        <time>2016-02-11T11:40:37Z</time>
      </trkpt>
      <trkpt lat="45.35646" lon="5.90477">
        <ele>1376.951154865</ele>
        <time>2016-02-11T11:40:42Z</time>
      </trkpt>
      <trkpt lat="45.35646" lon="5.90476">
        <ele>1376.951154865</ele>
        <time>2016-02-11T11:40:58Z</time>
      </trkpt>
      <trkpt lat="45.35646" lon="5.90476">
        <ele>1376.951154865</ele>
        <time>2016-02-11T11:41:13Z</time>
      </trkpt>
      <trkpt lat="45.35646" lon="5.90477">
        <ele>1376.951154865</ele>
        <time>2016-02-11T11:41:27Z</time>
      </trkpt>
      <trkpt lat="45.35646" lon="5.90491">
        <ele>1372.295918376</ele>
        <time>2016-02-11T11:41:32Z</time>
      </trkpt>
      <trkpt lat="45.35649" lon="5.90502">
        <ele>1372.295918376</ele>
        <time>2016-02-11T11:41:42Z</time>
      </trkpt>
      <trkpt lat="45.35653" lon="5.90504">
        <ele>1367.757432867</ele>
        <time>2016-02-11T11:41:46Z</time>
      </trkpt>
      <trkpt lat="45.35658" lon="5.90519">
        <ele>1363.890702823</ele>
        <time>2016-02-11T11:41:57Z</time>
      </trkpt>
      <trkpt lat="45.35658" lon="5.90529">
        <ele>1363.890702823</ele>
        <time>2016-02-11T11:42:02Z</time>
      </trkpt>
      <trkpt lat="45.35666" lon="5.90546">
        <ele>1360.487581424</ele>
        <time>2016-02-11T11:42:12Z</time>
      </trkpt>
      <trkpt lat="45.35667" lon="5.90557">
        <ele>1360.487581424</ele>
        <time>2016-02-11T11:42:18Z</time>
      </trkpt>
      <trkpt lat="45.35678" lon="5.90567">
        <ele>1357.354010353</ele>
        <time>2016-02-11T11:42:28Z</time>
      </trkpt>
      <trkpt lat="45.35682" lon="5.90575">
        <ele>1357.354010353</ele>
        <time>2016-02-11T11:42:33Z</time>
      </trkpt>
      <trkpt lat="45.35692" lon="5.90589">
        <ele>1354.597791169</ele>
        <time>2016-02-11T11:42:42Z</time>
      </trkpt>
      <trkpt lat="45.35695" lon="5.90594">
        <ele>1354.597791169</ele>
        <time>2016-02-11T11:42:46Z</time>
      </trkpt>
      <trkpt lat="45.35704" lon="5.90605">
        <ele>1351.59736889</ele>
        <time>2016-02-11T11:42:57Z</time>
      </trkpt>
      <trkpt lat="45.35706" lon="5.90608">
        <ele>1351.59736889</ele>
        <time>2016-02-11T11:43:01Z</time>
      </trkpt>
      <trkpt lat="45.35715" lon="5.90635">
        <ele>1348.642413407</ele>
        <time>2016-02-11T11:43:13Z</time>
      </trkpt>
      <trkpt lat="45.3572" lon="5.90641">
        <ele>1348.642413407</ele>
        <time>2016-02-11T11:43:17Z</time>
      </trkpt>
      <trkpt lat="45.35721" lon="5.90649">
        <ele>1346.001436431</ele>
        <time>2016-02-11T11:43:21Z</time>
      </trkpt>
      <trkpt lat="45.35725" lon="5.90659">
        <ele>1346.001436431</ele>
        <time>2016-02-11T11:43:28Z</time>
      </trkpt>
      <trkpt lat="45.3573" lon="5.90665">
        <ele>1343.202068147</ele>
        <time>2016-02-11T11:43:32Z</time>
      </trkpt>
      <trkpt lat="45.35731" lon="5.90671">
        <ele>1343.202068147</ele>
        <time>2016-02-11T11:43:36Z</time>
      </trkpt>
      <trkpt lat="45.35743" lon="5.90691">
        <ele>1339.519167454</ele>
        <time>2016-02-11T11:43:48Z</time>
      </trkpt>
      <trkpt lat="45.35744" lon="5.90694">
        <ele>1339.519167454</ele>
        <time>2016-02-11T11:43:52Z</time>
      </trkpt>
      <trkpt lat="45.35754" lon="5.9071">
        <ele>1336.301227185</ele>
        <time>2016-02-11T11:44:02Z</time>
      </trkpt>
      <trkpt lat="45.35757" lon="5.9072">
        <ele>1336.301227185</ele>
        <time>2016-02-11T11:44:07Z</time>
      </trkpt>
      <trkpt lat="45.35761" lon="5.90739">
        <ele>1333.06739289</ele>
        <time>2016-02-11T11:44:18Z</time>
      </trkpt>
      <trkpt lat="45.35766" lon="5.90743">
        <ele>1333.06739289</ele>
        <time>2016-02-11T11:44:22Z</time>
      </trkpt>
      <trkpt lat="45.35776" lon="5.90755">
        <ele>1329.804878322</ele>
        <time>2016-02-11T11:44:33Z</time>
      </trkpt>
      <trkpt lat="45.35782" lon="5.90756">
        <ele>1329.804878322</ele>
        <time>2016-02-11T11:44:37Z</time>
      </trkpt>
      <trkpt lat="45.35794" lon="5.90765">
        <ele>1326.502297319</ele>
        <time>2016-02-11T11:44:47Z</time>
      </trkpt>
      <trkpt lat="45.35799" lon="5.90768">
        <ele>1326.502297319</ele>
        <time>2016-02-11T11:44:52Z</time>
      </trkpt>
      <trkpt lat="45.35804" lon="5.90783">
        <ele>1323.870161714</ele>
        <time>2016-02-11T11:45:02Z</time>
      </trkpt>
      <trkpt lat="45.35802" lon="5.90793">
        <ele>1323.870161714</ele>
        <time>2016-02-11T11:45:07Z</time>
      </trkpt>
      <trkpt lat="45.35802" lon="5.908">
        <ele>1320.691867535</ele>
        <time>2016-02-11T11:45:17Z</time>
      </trkpt>
      <trkpt lat="45.35803" lon="5.90811">
        <ele>1320.691867535</ele>
        <time>2016-02-11T11:45:22Z</time>
      </trkpt>
      <trkpt lat="45.35802" lon="5.90827">
        <ele>1317.71557251</ele>
        <time>2016-02-11T11:45:33Z</time>
      </trkpt>
      <trkpt lat="45.35801" lon="5.90834">
        <ele>1317.71557251</ele>
        <time>2016-02-11T11:45:37Z</time>
      </trkpt>
      <trkpt lat="45.35803" lon="5.90851">
        <ele>1314.049105729</ele>
        <time>2016-02-11T11:45:52Z</time>
      </trkpt>
      <trkpt lat="45.35803" lon="5.90854">
        <ele>1314.049105729</ele>
        <time>2016-02-11T11:45:56Z</time>
      </trkpt>
      <trkpt lat="45.35804" lon="5.9087">
        <ele>1309.876972378</ele>
        <time>2016-02-11T11:46:08Z</time>
      </trkpt>
      <trkpt lat="45.35805" lon="5.90875">
        <ele>1309.876972378</ele>
        <time>2016-02-11T11:46:12Z</time>
      </trkpt>
      <trkpt lat="45.35807" lon="5.90888">
        <ele>1305.660187619</ele>
        <time>2016-02-11T11:46:21Z</time>
      </trkpt>
      <trkpt lat="45.35809" lon="5.90901">
        <ele>1302.114668091</ele>
        <time>2016-02-11T11:46:27Z</time>
      </trkpt>
      <trkpt lat="45.35812" lon="5.90908">
        <ele>1302.114668091</ele>
        <time>2016-02-11T11:46:36Z</time>
      </trkpt>
      <trkpt lat="45.35812" lon="5.90908">
        <ele>1302.114668091</ele>
        <time>2016-02-11T11:46:41Z</time>
      </trkpt>
      <trkpt lat="45.35811" lon="5.90909">
        <ele>1302.114668091</ele>
        <time>2016-02-11T11:46:46Z</time>
      </trkpt>
      <trkpt lat="45.35812" lon="5.90911">
        <ele>1302.114668091</ele>
        <time>2016-02-11T11:46:51Z</time>
      </trkpt>
      <trkpt lat="45.35815" lon="5.90913">
        <ele>1298.605270726</ele>
        <time>2016-02-11T11:46:56Z</time>
      </trkpt>
      <trkpt lat="45.35824" lon="5.90922">
        <ele>1295.264373902</ele>
        <time>2016-02-11T11:47:06Z</time>
      </trkpt>
      <trkpt lat="45.35828" lon="5.90929">
        <ele>1295.264373902</ele>
        <time>2016-02-11T11:47:11Z</time>
      </trkpt>
      <trkpt lat="45.35833" lon="5.90949">
        <ele>1292.646899048</ele>
        <time>2016-02-11T11:47:21Z</time>
      </trkpt>
      <trkpt lat="45.35841" lon="5.90956">
        <ele>1290.544824007</ele>
        <time>2016-02-11T11:47:27Z</time>
      </trkpt>
      <trkpt lat="45.35842" lon="5.90963">
        <ele>1290.544824007</ele>
        <time>2016-02-11T11:47:36Z</time>
      </trkpt>
      <trkpt lat="45.35842" lon="5.90971">
        <ele>1287.755589034</ele>
        <time>2016-02-11T11:47:41Z</time>
      </trkpt>
      <trkpt lat="45.35837" lon="5.90994">
        <ele>1284.464306275</ele>
        <time>2016-02-11T11:47:57Z</time>
      </trkpt>
      <trkpt lat="45.35835" lon="5.91004">
        <ele>1284.464306275</ele>
        <time>2016-02-11T11:48:02Z</time>
      </trkpt>
      <trkpt lat="45.3584" lon="5.91022">
        <ele>1281.276633997</ele>
        <time>2016-02-11T11:48:13Z</time>
      </trkpt>
      <trkpt lat="45.3584" lon="5.91029">
        <ele>1281.276633997</ele>
        <time>2016-02-11T11:48:17Z</time>
      </trkpt>
      <trkpt lat="45.35841" lon="5.9105">
        <ele>1278.033290485</ele>
        <time>2016-02-11T11:48:27Z</time>
      </trkpt>
      <trkpt lat="45.35844" lon="5.91064">
        <ele>1275.019575349</ele>
        <time>2016-02-11T11:48:32Z</time>
      </trkpt>
      <trkpt lat="45.35849" lon="5.9108">
        <ele>1272.211347186</ele>
        <time>2016-02-11T11:48:42Z</time>
      </trkpt>
      <trkpt lat="45.3585" lon="5.91087">
        <ele>1272.211347186</ele>
        <time>2016-02-11T11:48:47Z</time>
      </trkpt>
      <trkpt lat="45.35858" lon="5.91105">
        <ele>1269.297815182</ele>
        <time>2016-02-11T11:48:57Z</time>
      </trkpt>
      <trkpt lat="45.35864" lon="5.91109">
        <ele>1269.297815182</ele>
        <time>2016-02-11T11:49:02Z</time>
      </trkpt>
      <trkpt lat="45.35877" lon="5.91124">
        <ele>1265.703459511</ele>
        <time>2016-02-11T11:49:18Z</time>
      </trkpt>
      <trkpt lat="45.35882" lon="5.91129">
        <ele>1265.703459511</ele>
        <time>2016-02-11T11:49:21Z</time>
      </trkpt>
      <trkpt lat="45.35893" lon="5.91133">
        <ele>1262.194306224</ele>
        <time>2016-02-11T11:49:31Z</time>
      </trkpt>
      <trkpt lat="45.35898" lon="5.91142">
        <ele>1262.194306224</ele>
        <time>2016-02-11T11:49:37Z</time>
      </trkpt>
      <trkpt lat="45.35908" lon="5.91143">
        <ele>1258.903773493</ele>
        <time>2016-02-11T11:49:46Z</time>
      </trkpt>
      <trkpt lat="45.35913" lon="5.91144">
        <ele>1258.903773493</ele>
        <time>2016-02-11T11:49:51Z</time>
      </trkpt>
      <trkpt lat="45.35926" lon="5.91138">
        <ele>1254.802310481</ele>
        <time>2016-02-11T11:50:01Z</time>
      </trkpt>
      <trkpt lat="45.35932" lon="5.91138">
        <ele>1254.802310481</ele>
        <time>2016-02-11T11:50:06Z</time>
      </trkpt>
      <trkpt lat="45.35944" lon="5.91145">
        <ele>1251.532593748</ele>
        <time>2016-02-11T11:50:16Z</time>
      </trkpt>
      <trkpt lat="45.3595" lon="5.91148">
        <ele>1251.532593748</ele>
        <time>2016-02-11T11:50:21Z</time>
      </trkpt>
      <trkpt lat="45.35958" lon="5.91154">
        <ele>1248.452937525</ele>
        <time>2016-02-11T11:50:31Z</time>
      </trkpt>
      <trkpt lat="45.35964" lon="5.91157">
        <ele>1248.452937525</ele>
        <time>2016-02-11T11:50:36Z</time>
      </trkpt>
      <trkpt lat="45.35966" lon="5.91159">
        <ele>1248.452937525</ele>
        <time>2016-02-11T11:50:46Z</time>
      </trkpt>
      <trkpt lat="45.35961" lon="5.91154">
        <ele>1244.968556449</ele>
        <time>2016-02-11T11:50:51Z</time>
      </trkpt>
      <trkpt lat="45.35948" lon="5.91174">
        <ele>1240.817997699</ele>
        <time>2016-02-11T11:51:06Z</time>
      </trkpt>
      <trkpt lat="45.35946" lon="5.91178">
        <ele>1240.817997699</ele>
        <time>2016-02-11T11:51:11Z</time>
      </trkpt>
      <trkpt lat="45.35938" lon="5.91183">
        <ele>1237.346376194</ele>
        <time>2016-02-11T11:51:21Z</time>
      </trkpt>
      <trkpt lat="45.35937" lon="5.91187">
        <ele>1237.346376194</ele>
        <time>2016-02-11T11:51:26Z</time>
      </trkpt>
      <trkpt lat="45.35933" lon="5.91189">
        <ele>1237.346376194</ele>
        <time>2016-02-11T11:51:37Z</time>
      </trkpt>
      <trkpt lat="45.35932" lon="5.9119">
        <ele>1237.346376194</ele>
        <time>2016-02-11T11:51:43Z</time>
      </trkpt>
      <trkpt lat="45.35912" lon="5.9121">
        <ele>1232.77201117</ele>
        <time>2016-02-11T11:51:53Z</time>
      </trkpt>
      <trkpt lat="45.35906" lon="5.91219">
        <ele>1232.77201117</ele>
        <time>2016-02-11T11:51:57Z</time>
      </trkpt>
      <trkpt lat="45.35898" lon="5.91216">
        <ele>1228.329658232</ele>
        <time>2016-02-11T11:52:08Z</time>
      </trkpt>
      <trkpt lat="45.35893" lon="5.91219">
        <ele>1228.329658232</ele>
        <time>2016-02-11T11:52:12Z</time>
      </trkpt>
      <trkpt lat="45.3589" lon="5.91221">
        <ele>1228.329658232</ele>
        <time>2016-02-11T11:52:23Z</time>
      </trkpt>
      <trkpt lat="45.3588" lon="5.91229">
        <ele>1223.722106984</ele>
        <time>2016-02-11T11:52:27Z</time>
      </trkpt>
      <trkpt lat="45.35859" lon="5.91251">
        <ele>1218.818756024</ele>
        <time>2016-02-11T11:52:41Z</time>
      </trkpt>
      <trkpt lat="45.35846" lon="5.91258">
        <ele>1214.076054039</ele>
        <time>2016-02-11T11:52:46Z</time>
      </trkpt>
      <trkpt lat="45.35839" lon="5.91268">
        <ele>1209.916631958</ele>
        <time>2016-02-11T11:52:56Z</time>
      </trkpt>
      <trkpt lat="45.3584" lon="5.91268">
        <ele>1209.916631958</ele>
        <time>2016-02-11T11:53:01Z</time>
      </trkpt>
      <trkpt lat="45.35831" lon="5.91271">
        <ele>1205.14536054</ele>
        <time>2016-02-11T11:53:11Z</time>
      </trkpt>
      <trkpt lat="45.35824" lon="5.91276">
        <ele>1205.14536054</ele>
        <time>2016-02-11T11:53:16Z</time>
      </trkpt>
      <trkpt lat="45.35815" lon="5.91293">
        <ele>1200.67430549</ele>
        <time>2016-02-11T11:53:27Z</time>
      </trkpt>
      <trkpt lat="45.35809" lon="5.913">
        <ele>1200.67430549</ele>
        <time>2016-02-11T11:53:33Z</time>
      </trkpt>
      <trkpt lat="45.35801" lon="5.91307">
        <ele>1196.050803401</ele>
        <time>2016-02-11T11:53:42Z</time>
      </trkpt>
      <trkpt lat="45.35795" lon="5.91307">
        <ele>1196.050803401</ele>
        <time>2016-02-11T11:53:46Z</time>
      </trkpt>
      <trkpt lat="45.35785" lon="5.91305">
        <ele>1191.576525888</ele>
        <time>2016-02-11T11:53:56Z</time>
      </trkpt>
      <trkpt lat="45.35775" lon="5.91311">
        <ele>1187.530651404</ele>
        <time>2016-02-11T11:54:01Z</time>
      </trkpt>
      <trkpt lat="45.35761" lon="5.91319">
        <ele>1183.882501418</ele>
        <time>2016-02-11T11:54:11Z</time>
      </trkpt>
      <trkpt lat="45.35756" lon="5.91323">
        <ele>1183.882501418</ele>
        <time>2016-02-11T11:54:16Z</time>
      </trkpt>
      <trkpt lat="45.3574" lon="5.91329">
        <ele>1180.314379965</ele>
        <time>2016-02-11T11:54:27Z</time>
      </trkpt>
      <trkpt lat="45.35733" lon="5.91324">
        <ele>1180.314379965</ele>
        <time>2016-02-11T11:54:33Z</time>
      </trkpt>
      <trkpt lat="45.35722" lon="5.91344">
        <ele>1176.38765355</ele>
        <time>2016-02-11T11:54:47Z</time>
      </trkpt>
      <trkpt lat="45.35714" lon="5.91369">
        <ele>1171.696970243</ele>
        <time>2016-02-11T11:55:01Z</time>
      </trkpt>
      <trkpt lat="45.35707" lon="5.91402">
        <ele>1166.87772261</ele>
        <time>2016-02-11T11:55:17Z</time>
      </trkpt>
      <trkpt lat="45.35707" lon="5.91413">
        <ele>1166.87772261</ele>
        <time>2016-02-11T11:55:22Z</time>
      </trkpt>
      <trkpt lat="45.35703" lon="5.9143">
        <ele>1162.230803136</ele>
        <time>2016-02-11T11:55:32Z</time>
      </trkpt>
      <trkpt lat="45.35703" lon="5.91434">
        <ele>1162.230803136</ele>
        <time>2016-02-11T11:55:37Z</time>
      </trkpt>
      <trkpt lat="45.357" lon="5.91457">
        <ele>1161.060884591</ele>
        <time>2016-02-11T11:55:47Z</time>
      </trkpt>
      <trkpt lat="45.35699" lon="5.91463">
        <ele>1161.060884591</ele>
        <time>2016-02-11T11:55:51Z</time>
      </trkpt>
      <trkpt lat="45.35696" lon="5.91489">
        <ele>1156.044147763</ele>
        <time>2016-02-11T11:56:02Z</time>
      </trkpt>
      <trkpt lat="45.35696" lon="5.91497">
        <ele>1156.044147763</ele>
        <time>2016-02-11T11:56:07Z</time>
      </trkpt>
      <trkpt lat="45.35696" lon="5.91509">
        <ele>1150.349258379</ele>
        <time>2016-02-11T11:56:17Z</time>
      </trkpt>
      <trkpt lat="45.35697" lon="5.91516">
        <ele>1150.349258379</ele>
        <time>2016-02-11T11:56:22Z</time>
      </trkpt>
      <trkpt lat="45.35704" lon="5.91521">
        <ele>1144.031804301</ele>
        <time>2016-02-11T11:56:32Z</time>
      </trkpt>
      <trkpt lat="45.35704" lon="5.91527">
        <ele>1144.031804301</ele>
        <time>2016-02-11T11:56:37Z</time>
      </trkpt>
      <trkpt lat="45.35711" lon="5.91539">
        <ele>1137.721479712</ele>
        <time>2016-02-11T11:56:48Z</time>
      </trkpt>
      <trkpt lat="45.35711" lon="5.91545">
        <ele>1137.721479712</ele>
        <time>2016-02-11T11:56:51Z</time>
      </trkpt>
      <trkpt lat="45.35717" lon="5.91575">
        <ele>1131.137013379</ele>
        <time>2016-02-11T11:57:07Z</time>
      </trkpt>
      <trkpt lat="45.35717" lon="5.91581">
        <ele>1131.137013379</ele>
        <time>2016-02-11T11:57:11Z</time>
      </trkpt>
      <trkpt lat="45.3572" lon="5.916">
        <ele>1124.450855994</ele>
        <time>2016-02-11T11:57:22Z</time>
      </trkpt>
      <trkpt lat="45.35724" lon="5.91608">
        <ele>1124.450855994</ele>
        <time>2016-02-11T11:57:27Z</time>
      </trkpt>
      <trkpt lat="45.3572" lon="5.91618">
        <ele>1118.111234721</ele>
        <time>2016-02-11T11:57:37Z</time>
      </trkpt>
      <trkpt lat="45.35722" lon="5.91621">
        <ele>1118.111234721</ele>
        <time>2016-02-11T11:57:42Z</time>
      </trkpt>
      <trkpt lat="45.35722" lon="5.9163">
        <ele>1111.955951825</ele>
        <time>2016-02-11T11:57:52Z</time>
      </trkpt>
      <trkpt lat="45.35726" lon="5.91641">
        <ele>1111.955951825</ele>
        <time>2016-02-11T11:57:57Z</time>
      </trkpt>
      <trkpt lat="45.35724" lon="5.91658">
        <ele>1105.113552239</ele>
        <time>2016-02-11T11:58:07Z</time>
      </trkpt>
      <trkpt lat="45.35728" lon="5.91666">
        <ele>1105.113552239</ele>
        <time>2016-02-11T11:58:12Z</time>
      </trkpt>
      <trkpt lat="45.35725" lon="5.9168">
        <ele>1099.516523975</ele>
        <time>2016-02-11T11:58:22Z</time>
      </trkpt>
      <trkpt lat="45.35723" lon="5.91687">
        <ele>1099.516523975</ele>
        <time>2016-02-11T11:58:27Z</time>
      </trkpt>
      <trkpt lat="45.3572" lon="5.91698">
        <ele>1092.051994438</ele>
        <time>2016-02-11T11:58:42Z</time>
      </trkpt>
      <trkpt lat="45.3572" lon="5.917">
        <ele>1092.051994438</ele>
        <time>2016-02-11T11:58:57Z</time>
      </trkpt>
      <trkpt lat="45.3572" lon="5.917">
        <ele>1092.051994438</ele>
        <time>2016-02-11T11:59:02Z</time>
      </trkpt>
      <trkpt lat="45.3572" lon="5.917">
        <ele>1092.051994438</ele>
        <time>2016-02-11T11:59:11Z</time>
      </trkpt>
      <trkpt lat="45.35711" lon="5.9171">
        <ele>1085.172971807</ele>
        <time>2016-02-11T11:59:17Z</time>
      </trkpt>
      <trkpt lat="45.35701" lon="5.91724">
        <ele>1079.565250243</ele>
        <time>2016-02-11T11:59:27Z</time>
      </trkpt>
      <trkpt lat="45.35698" lon="5.91729">
        <ele>1079.565250243</ele>
        <time>2016-02-11T11:59:31Z</time>
      </trkpt>
      <trkpt lat="45.35692" lon="5.91745">
        <ele>1073.987073382</ele>
        <time>2016-02-11T11:59:42Z</time>
      </trkpt>
      <trkpt lat="45.3569" lon="5.9175">
        <ele>1073.987073382</ele>
        <time>2016-02-11T11:59:47Z</time>
      </trkpt>
      <trkpt lat="45.35683" lon="5.91766">
        <ele>1068.584654151</ele>
        <time>2016-02-11T11:59:56Z</time>
      </trkpt>
      <trkpt lat="45.35682" lon="5.91772">
        <ele>1068.584654151</ele>
        <time>2016-02-11T12:00:02Z</time>
      </trkpt>
      <trkpt lat="45.35676" lon="5.91783">
        <ele>1063.636915168</ele>
        <time>2016-02-11T12:00:12Z</time>
      </trkpt>
      <trkpt lat="45.35674" lon="5.9179">
        <ele>1063.636915168</ele>
        <time>2016-02-11T12:00:18Z</time>
      </trkpt>
      <trkpt lat="45.35671" lon="5.918">
        <ele>1059.400850211</ele>
        <time>2016-02-11T12:00:27Z</time>
      </trkpt>
      <trkpt lat="45.35667" lon="5.91808">
        <ele>1059.400850211</ele>
        <time>2016-02-11T12:00:33Z</time>
      </trkpt>
      <trkpt lat="45.35659" lon="5.91819">
        <ele>1055.53597648</ele>
        <time>2016-02-11T12:00:43Z</time>
      </trkpt>
      <trkpt lat="45.35658" lon="5.9182">
        <ele>1055.53597648</ele>
        <time>2016-02-11T12:00:47Z</time>
      </trkpt>
      <trkpt lat="45.35652" lon="5.91827">
        <ele>1055.53597648</ele>
        <time>2016-02-11T12:00:57Z</time>
      </trkpt>
      <trkpt lat="45.35647" lon="5.91837">
        <ele>1052.446191922</ele>
        <time>2016-02-11T12:01:02Z</time>
      </trkpt>
      <trkpt lat="45.35638" lon="5.91852">
        <ele>1050.215198535</ele>
        <time>2016-02-11T12:01:12Z</time>
      </trkpt>
      <trkpt lat="45.35632" lon="5.91857">
        <ele>1050.215198535</ele>
        <time>2016-02-11T12:01:17Z</time>
      </trkpt>
      <trkpt lat="45.35625" lon="5.91862">
        <ele>1048.918032821</ele>
        <time>2016-02-11T12:01:22Z</time>
      </trkpt>
      <trkpt lat="45.35622" lon="5.91865">
        <ele>1048.918032821</ele>
        <time>2016-02-11T12:01:26Z</time>
      </trkpt>
      <trkpt lat="45.35617" lon="5.91871">
        <ele>1047.612738942</ele>
        <time>2016-02-11T12:01:31Z</time>
      </trkpt>
    </trkseg>
  </trk>
</gpx>